[[{"header":{"parameterUnit":"m.s-1","parameterCategory":1,"la1":30.6,"la2":28.766,"lo1":-90.7593,"lo2":-88.6598,"dy":0.0162,"dx":0.0183,"nx":116,"ny":114,"refTime":"2024-06-18T12:00:00:Z","depth":0,"parameterNumber":2,"parameterNumberName":"U-component_of_WINDS"},"data":[0.0,0.0,0.0,0.0,0.0,0.0,0.0,0.0,0.0,0.0,0.0,0.0,0.0,0.0,0.0,0.0,0.0,0.0,0.0,0.0,0.0,0.0,0.0,0.0,0.0,0.0,0.0,0.0,0.0,0.0,0.0,0.0,0.0,0.0,0.0,0.0,0.0,0.0,0.0,0.0,0.0,0.0,0.0,0.0,0.0,0.0,0.0,0.0,0.0,0.0,0.0,0.0,0.0,0.0,0.0,0.0,0.0,0.0,0.0,0.0,0.0,0.0,0.0,0.0,0.0,0.0,0.0,0.0,0.0,0.0,0.0,0.0,0.0,0.0,0.0,0.0,0.0,0.0,0.0,0.0,0.0,0.0,0.0,0.0,0.0,0.0,0.0,0.0,0.0,0.0,0.0,0.0,0.0,0.0,0.0,0.0,0.0,0.0,0.0,0.0,0.0,0.0,0.0,0.0,0.0,0.0,0.0,0.0,0.0,0.0,0.0,0.0,0.0,0.0,0.0,0.0,0.0,0.0,0.0,0.0,0.0,0.0,0.0,0.0,0.0,0.0,0.0,0.0,0.0,0.0,0.0,0.0,0.0,0.0,0.0,0.0,0.0,0.0,0.0,0.0,0.0,0.0,0.0,0.0,0.0,0.0,0.0,0.0,0.0,0.0,0.0,0.0,0.0,0.0,0.0,0.0,0.0,0.0,0.0,0.0,0.0,0.0,0.0,0.0,0.0,0.0,0.0,0.0,0.0,0.0,0.0,0.0,0.0,0.0,0.0,0.0,0.0,0.0,0.0,0.0,0.0,0.0,0.0,0.0,0.0,0.0,0.0,0.0,0.0,0.0,0.0,0.0,0.0,0.0,0.0,0.0,0.0,0.0,0.0,0.0,0.0,0.0,0.0,0.0,0.0,0.0,0.0,0.0,0.0,0.0,0.0,0.0,0.0,0.0,0.0,0.0,0.0,0.0,0.0,0.0,0.0,0.0,0.0,0.0,0.0,0.0,0.0,0.0,0.0,0.0,0.0,0.0,0.0,0.0,0.0,0.0,0.0,0.0,0.0,0.0,0.0,0.0,0.0,0.0,0.0,0.0,0.0,0.0,0.0,0.0,0.0,0.0,0.0,0.0,0.0,0.0,0.0,0.0,0.0,0.0,0.0,0.0,0.0,0.0,0.0,0.0,0.0,0.0,0.0,0.0,0.0,0.0,0.0,0.0,0.0,0.0,0.0,0.0,0.0,0.0,0.0,0.0,0.0,0.0,0.0,0.0,0.0,0.0,0.0,0.0,0.0,0.0,0.0,0.0,0.0,0.0,0.0,0.0,0.0,0.0,0.0,0.0,0.0,0.0,0.0,0.0,0.0,0.0,0.0,0.0,0.0,0.0,0.0,0.0,0.0,0.0,0.0,0.0,0.0,0.0,0.0,0.0,0.0,0.0,0.0,0.0,0.0,0.0,0.0,0.0,0.0,0.0,0.0,0.0,0.0,0.0,0.0,0.0,0.0,0.0,0.0,0.0,0.0,0.0,0.0,0.0,0.0,0.0,0.0,0.0,0.0,0.0,0.0,0.0,0.0,0.0,0.0,0.0,0.0,0.0,0.0,0.0,0.0,0.0,0.0,0.0,0.0,0.0,0.0,0.0,0.0,0.0,0.0,0.0,0.0,0.0,0.0,0.0,0.0,0.0,0.0,0.0,0.0,0.0,0.0,0.0,0.0,0.0,0.0,0.0,0.0,0.0,0.0,0.0,0.0,0.0,0.0,0.0,0.0,0.0,0.0,0.0,0.0,0.0,0.0,0.0,0.0,0.0,0.0,0.0,0.0,0.0,0.0,0.0,0.0,0.0,0.0,0.0,0.0,0.0,0.0,0.0,0.0,0.0,0.0,0.0,0.0,0.0,0.0,0.0,0.0,0.0,0.0,0.0,0.0,0.0,0.0,0.0,0.0,0.0,0.0,0.0,0.0,0.0,0.0,0.0,0.0,0.0,0.0,0.0,0.0,0.0,0.0,0.0,0.0,0.0,0.0,0.0,0.0,0.0,0.0,0.0,0.0,0.0,0.0,0.0,0.0,0.0,0.0,0.0,0.0,0.0,0.0,0.0,0.0,0.0,0.0,0.0,0.0,0.0,0.0,0.0,0.0,0.0,0.0,0.0,0.0,0.0,0.0,0.0,0.0,0.0,0.0,0.0,0.0,0.0,0.0,0.0,0.0,0.0,0.0,0.0,0.0,0.0,0.0,0.0,0.0,0.0,0.0,0.0,0.0,0.0,0.0,0.0,0.0,0.0,0.0,0.0,0.0,0.0,0.0,0.0,0.0,0.0,0.0,0.0,0.0,0.0,0.0,0.0,0.0,0.0,0.0,0.0,0.0,0.0,0.0,0.0,0.0,0.0,0.0,0.0,0.0,0.0,0.0,0.0,0.0,0.0,0.0,0.0,0.0,0.0,0.0,0.0,0.0,0.0,0.0,0.0,0.0,0.0,0.0,0.0,0.0,0.0,0.0,0.0,0.0,0.0,0.0,0.0,0.0,0.0,0.0,0.0,0.0,0.0,0.0,0.0,0.0,0.0,0.0,0.0,0.0,0.0,0.0,0.0,0.0,0.0,0.0,0.0,0.0,0.0,0.0,0.0,0.0,0.0,0.0,0.0,0.0,0.0,0.0,0.0,0.0,0.0,0.0,0.0,0.0,0.0,0.0,0.0,0.0,0.0,0.0,0.0,0.0,0.0,0.0,0.0,0.0,0.0,0.0,0.0,0.0,0.0,0.0,0.0,0.0,0.0,0.0,0.0,0.0,0.0,0.0,0.0,0.0,0.0,0.0,0.0,0.0,0.0,0.0,0.0,0.0,0.0,0.0,0.0,0.0,0.0,0.0,0.0,0.0,0.0,0.0,0.0,0.0,0.0,0.0,0.0,0.0,0.0,0.0,0.0,0.0,0.0,0.0,0.0,0.0,0.0,0.0,0.0,0.0,0.0,0.0,0.0,0.0,0.0,0.0,0.0,0.0,0.0,0.0,0.0,0.0,0.0,0.0,0.0,0.0,0.0,0.0,0.0,0.0,0.0,0.0,0.0,0.0,0.0,0.0,0.0,0.0,0.0,0.0,0.0,0.0,0.0,0.0,0.0,0.0,0.0,0.0,0.0,0.0,0.0,0.0,0.0,0.0,0.0,0.0,0.0,0.0,0.0,0.0,0.0,0.0,0.0,0.0,0.0,0.0,0.0,0.0,0.0,0.0,0.0,0.0,0.0,0.0,0.0,0.0,0.0,0.0,0.0,0.0,0.0,0.0,0.0,0.0,0.0,0.0,0.0,0.0,0.0,0.0,0.0,0.0,0.0,0.0,0.0,0.0,0.0,0.0,0.0,0.0,0.0,0.0,0.0,0.0,0.0,0.0,0.0,0.0,0.0,0.0,0.0,0.0,0.0,0.0,0.0,0.0,0.0,0.0,0.0,0.0,0.0,0.0,0.0,0.0,0.0,0.0,0.0,0.0,0.0,0.0,0.0,0.0,0.0,0.0,0.0,0.0,0.0,0.0,0.0,0.0,0.0,0.0,0.0,0.0,0.0,0.0,0.0,0.0,0.0,0.0,0.0,0.0,0.0,0.0,0.0,0.0,0.0,0.0,0.0,0.0,0.0,0.0,0.0,0.0,0.0,0.0,0.0,0.0,0.0,0.0,0.0,0.0,0.0,0.0,0.0,0.0,0.0,0.0,0.0,0.0,0.0,0.0,0.0,0.0,0.0,0.0,0.0,0.0,0.0,0.0,0.0,0.0,0.0,0.0,0.0,0.0,0.0,0.0,0.0,0.0,0.0,0.0,0.0,0.0,0.0,0.0,0.0,0.0,0.0,0.0,0.0,0.0,0.0,0.0,0.0,0.0,0.0,0.0,0.0,0.0,0.0,0.0,0.0,0.0,0.0,0.0,0.0,0.0,0.0,0.0,0.0,0.0,0.0,0.0,0.0,0.0,0.0,0.0,0.0,0.0,0.0,0.0,0.0,0.0,0.0,0.0,0.0,0.0,0.0,0.0,0.0,0.0,0.0,0.0,0.0,0.0,0.0,0.0,0.0,0.0,0.0,0.0,0.0,0.0,0.0,0.0,0.0,0.0,0.0,0.0,0.0,0.0,0.0,0.0,0.0,0.0,0.0,0.0,0.0,0.0,0.0,0.0,0.0,0.0,0.0,0.0,0.0,0.0,0.0,0.0,0.0,0.0,0.0,0.0,0.0,0.0,0.0,0.0,0.0,0.0,0.0,0.0,0.0,0.0,0.0,0.0,0.0,0.0,0.0,0.0,0.0,0.0,0.0,0.0,0.0,0.0,0.0,0.0,0.0,0.0,0.0,0.0,0.0,0.0,0.0,0.0,0.0,0.0,0.0,0.0,0.0,0.0,0.0,0.0,0.0,0.0,0.0,0.0,0.0,0.0,0.0,0.0,0.0,0.0,0.0,0.0,0.0,0.0,0.0,0.0,0.0,0.0,0.0,0.0,0.0,0.0,0.0,0.0,0.0,0.0,0.0,0.0,0.0,0.0,0.0,0.0,0.0,0.0,0.0,0.0,0.0,0.0,0.0,0.0,0.0,0.0,0.0,0.0,0.0,0.0,0.0,0.0,0.0,0.0,0.0,0.0,0.0,0.0,0.0,0.0,0.0,0.0,0.0,0.0,0.0,0.0,0.0,0.0,0.0,0.0,0.0,0.0,0.0,0.0,0.0,0.0,0.0,0.0,0.0,0.0,0.0,0.0,0.0,0.0,0.0,0.0,0.0,0.0,0.0,0.0,0.0,0.0,0.0,0.0,0.0,0.0,0.0,0.0,0.0,0.0,0.0,0.0,0.0,0.0,0.0,0.0,0.0,0.0,0.0,0.0,0.0,0.0,0.0,0.0,0.0,0.0,0.0,0.0,0.0,0.0,0.0,0.0,0.0,0.0,0.0,0.0,0.0,0.0,0.0,0.0,0.0,0.0,0.0,0.0,0.0,0.0,0.0,0.0,0.0,0.0,0.0,0.0,0.0,0.0,0.0,0.0,0.0,0.0,0.0,0.0,0.0,0.0,0.0,0.0,0.0,0.0,0.0,0.0,0.0,0.0,0.0,0.0,0.0,0.0,0.0,0.0,0.0,0.0,0.0,0.0,0.0,0.0,0.0,0.0,0.0,0.0,0.0,0.0,0.0,0.0,0.0,0.0,0.0,0.0,0.0,0.0,0.0,0.0,0.0,0.0,0.0,0.0,0.0,0.0,0.0,0.0,0.0,0.0,0.0,0.0,0.0,0.0,0.0,0.0,0.0,0.0,0.0,0.0,0.0,0.0,0.0,0.0,0.0,0.0,0.0,0.0,0.0,0.0,0.0,0.0,0.0,0.0,0.0,0.0,0.0,0.0,0.0,0.0,0.0,0.0,0.0,0.0,0.0,0.0,0.0,0.0,0.0,0.0,0.0,0.0,0.0,0.0,0.0,0.0,0.0,0.0,0.0,0.0,0.0,0.0,0.0,0.0,0.0,0.0,0.0,0.0,0.0,0.0,0.0,0.0,0.0,0.0,0.0,0.0,0.0,0.0,0.0,0.0,0.0,0.0,0.0,0.0,0.0,0.0,0.0,0.0,0.0,0.0,0.0,0.0,0.0,0.0,0.0,0.0,0.0,0.0,0.0,0.0,0.0,0.0,0.0,0.0,0.0,0.0,0.0,0.0,0.0,0.0,0.0,0.0,0.0,0.0,0.0,0.0,0.0,0.0,0.0,0.0,0.0,0.0,0.0,0.0,0.0,0.0,0.0,0.0,0.0,0.0,0.0,0.0,0.0,0.0,0.0,0.0,0.0,0.0,0.0,0.0,0.0,0.0,0.0,0.0,0.0,0.0,0.0,0.0,0.0,0.0,0.0,0.0,0.0,0.0,0.0,0.0,0.0,0.0,0.0,0.0,0.0,0.0,0.0,0.0,0.0,0.0,0.0,0.0,0.0,0.0,0.0,0.0,0.0,0.0,0.0,0.0,0.0,0.0,0.0,0.0,0.0,0.0,0.0,0.0,0.0,0.0,0.0,0.0,0.0,0.0,0.0,0.0,0.0,0.0,0.0,0.0,0.0,0.0,0.0,0.0,0.0,0.5613,0.5346,0.0,0.0,0.0,0.0,0.0,0.0,0.0,0.0,0.0,0.0,0.0,0.0,0.0,0.0,0.0,0.0,0.0,0.0,0.0,0.0,0.0,0.0,0.0,0.8011,0.818,0.8248,0.833,0.8053,0.7245,0.0,0.0,0.0,0.0,0.0,0.5867,0.5862,0.5866,0.5867,0.5946,0.6534,0.7583,0.829,0.8236,0.7516,0.0,0.0,0.0,0.0,0.0,0.0,0.0,0.0,0.0,0.0,0.0,0.0,0.0,0.0,0.0,0.0,0.0,0.0,0.0,0.0,0.0,0.0,0.0,0.0,0.0,0.0,0.0,0.0,0.0,0.0,0.0,0.0,0.0,0.0,0.0,0.0,0.0,0.0,0.0,0.0,0.0,0.0,0.0,0.0,0.0,0.0,0.0,0.0,0.0,0.0,0.0,0.0,0.0,0.0,0.0,0.0,0.0,0.0,0.0,0.0,0.0,0.0,0.0,0.0,0.0,0.0,0.0,0.0,0.0,0.0,0.2804,0.4795,0.0,0.0,0.0,0.0,0.0,0.0,0.0,0.0,0.0,0.0,0.0,0.0,0.0,0.0,0.0,0.0,0.0,0.0,0.0,0.0,0.0,0.6891,0.7229,0.7445,0.7729,0.8149,0.7923,0.7357,0.6418,0.6105,0.5368,0.405,0.401,0.401,0.3993,0.4009,0.4008,0.4015,0.4062,0.4991,0.673,0.8508,0.867,0.7439,0.8033,0.0,0.0,0.0,0.0,0.0,0.0,0.0,0.0,0.0,0.0,0.0,0.0,0.0,0.0,0.0,0.0,0.0,0.0,0.0,0.0,0.0,0.0,0.0,0.0,0.0,0.0,0.0,0.0,0.0,0.0,0.0,0.0,0.0,0.0,0.0,0.0,0.0,0.0,0.0,0.0,0.0,0.0,0.0,0.0,0.0,0.0,0.0,0.0,0.0,0.0,0.0,0.0,0.0,0.0,0.0,0.0,0.0,0.0,0.0,0.0,0.0,0.0,0.0,-0.9467,-0.9492,-0.9697,-0.9596,-0.955,-0.9108,-0.108,0.2752,0.3293,0.2752,0.0,0.0,0.0,0.0,0.0,0.0,0.0,0.0,0.0,0.0,0.0,0.0,0.0,0.0,0.0,0.0,0.0,0.0,0.0,0.4286,0.4358,0.4471,0.5196,0.6794,0.5608,0.5298,0.6566,0.5282,0.4326,0.4016,0.4009,0.4006,0.4013,0.3993,0.4006,0.3996,0.4281,0.4635,0.5008,0.5436,0.5426,0.5257,0.8105,0.9435,0.9399,0.0,0.0,0.0,0.0,0.0,0.0,0.0,0.0,0.0,0.0,0.0,0.0,0.0,0.0,0.0,0.0,0.0,0.0,0.0,0.0,0.0,0.0,0.0,0.0,0.0,0.0,0.0,0.0,0.0,0.0,0.0,0.0,0.0,0.0,0.0,0.0,0.0,0.0,0.0,0.0,0.0,-0.5848,-0.5908,0.0,0.0,0.0,0.0,0.0,0.0,0.0,0.0,0.0,0.0,0.0,0.0,0.0,-0.8803,-0.9345,-0.95,-0.9751,-1.0179,-1.016,-1.0147,-1.0197,-1.0178,-1.0185,-1.0101,-0.8843,0.0,-0.7195,-0.6971,0.0,0.0,0.0,0.0,0.0,0.0,0.0,0.0,0.0,0.0,0.0,0.0,0.0,0.0,0.0,0.0,0.0,0.0,0.0,0.0,0.0,0.408,0.4487,0.5392,0.4789,0.4321,0.4177,0.3482,0.226,0.0427,0.0338,-0.0113,-0.1091,-0.0149,0.0794,0.1739,0.3077,0.3737,0.382,0.5086,0.5586,0.5509,0.685,0.777,0.8305,0.8813,0.0,0.0,0.0,0.0,0.0,0.0,0.0,0.0,0.0,0.0,0.0,0.0,0.0,0.0,0.0,0.0,0.0,0.0,0.0,0.0,0.0,0.0,0.0,0.0,0.0,0.0,0.0,0.0,0.0,0.0,0.0,0.0,0.0,0.0,0.0,0.0,0.0,0.0,0.0,-0.6444,-0.7146,-0.7248,-0.7366,-0.7262,0.0,0.0,0.0,0.0,0.0,0.0,0.0,0.0,0.0,-0.9888,-1.0113,-1.1039,-1.2839,-1.3001,-1.3979,-1.5838,-1.5739,-1.5757,-1.5944,-1.574,-1.5674,-1.5674,-1.5614,-1.5351,-1.4628,-1.0871,-0.9187,-0.8883,0.0,0.0,0.0,0.0,-0.5171,-0.5182,0.0,0.0,0.0,0.0,0.0,0.0,0.0,0.0,0.0,0.0,0.0,0.0,0.3114,0.3139,0.3363,0.398,0.3602,0.3052,0.2388,0.1888,0.0411,-0.2364,-0.2533,-0.3403,-0.5194,-0.4207,-0.3092,-0.1948,0.021,0.1299,0.1317,0.3642,0.4625,0.4484,0.495,0.577,0.6884,0.8001,0.8155,0.7539,0.0,0.0,0.0,0.0,0.0,0.0,0.0,0.0,0.0,0.0,0.0,0.0,0.0,0.0,0.0,0.0,0.0,0.0,0.0,0.0,0.0,0.0,0.0,0.0,0.0,0.0,0.0,0.0,0.0,0.0,0.0,0.0,0.0,0.0,0.0,0.0,0.0,-1.0667,-1.1154,-1.045,-1.0966,-1.0712,0.0,0.0,0.0,0.0,0.0,0.0,-1.1841,-1.228,-1.2618,-1.2872,-1.3067,-1.425,-1.6566,-1.6721,-1.8004,-2.0438,-2.0329,-2.0404,-2.055,-2.0329,-2.0207,-2.0207,-2.0064,-1.9888,-1.9293,-1.423,-1.2027,-1.1796,-1.0853,-1.0437,-1.0286,-0.9584,-0.9346,-0.9391,0.0,0.0,0.0,0.0,0.0,0.0,0.0,0.0,0.0,0.0,0.0,0.02,0.0222,0.0197,0.0899,0.2645,0.1214,0.0917,0.2581,0.106,-0.068,-0.2418,-0.2634,-0.3587,-0.5532,-0.6415,-0.6982,-0.7231,-0.481,-0.3665,-0.3594,-0.0948,0.033,0.0374,0.2492,0.4399,0.6007,0.5281,0.501,0.5018,0.4298,0.0,0.0,0.0,0.0,0.0,0.0,0.0,0.0,0.0,0.0,0.0,0.0,0.0,0.0,0.0,0.0,0.0,0.0,0.0,0.0,0.0,0.0,0.0,0.0,0.0,0.0,0.0,0.0,0.0,0.0,0.0,0.0,0.0,0.0,0.0,0.0,0.0,0.0,-1.8828,-1.9668,0.0,0.0,0.0,0.0,-1.566,-1.6508,-1.7275,-1.8008,-1.8594,-1.9199,-1.9805,-2.0251,-2.0629,-2.0906,-2.1009,-2.1148,-2.1301,-2.1301,-2.1301,-2.1321,-2.1211,-2.1143,-2.1143,-2.1001,-2.077,-2.0334,-1.9033,-1.8347,-1.775,-1.4931,-1.3719,-1.3233,-1.0724,-0.9795,-0.9772,0.0,0.0,0.0,0.0,0.0,0.2187,0.1469,0.0949,0.0652,0.0703,0.0285,0.0,0.0,0.0,0.0265,0.0908,0.0359,0.0279,0.0902,-0.0657,-0.2537,-0.4669,-0.5825,-0.7069,-0.8464,-0.9034,-0.8883,-0.8027,-0.7297,-0.6839,-0.6738,-0.5776,-0.525,-0.5101,-0.434,-0.361,-0.2648,0.3025,0.5217,0.4862,0.4431,0.4027,0.0,0.0,0.0,0.0,0.0,0.0,0.0,0.0,0.0,0.0,0.0,0.0,0.0,0.0,0.0,0.0,0.0,0.0,0.0,0.0,0.0,0.0,0.0,0.0,0.0,0.0,0.0,0.0,0.0,0.0,0.0,0.0,0.0,0.0,0.0,0.0,0.0,-2.4057,-2.3133,0.0,-1.9763,-1.8215,-1.7487,-1.7792,-1.864,-1.9393,-1.9942,-2.0451,-2.0814,-2.1177,-2.153,-2.1686,-2.1638,-2.1794,-2.1828,-2.1726,-2.1726,-2.1726,-2.1726,-2.1584,-2.1509,-2.1496,-2.1245,-2.1068,-2.0933,-2.0363,-1.9841,-1.9299,-1.7993,-1.7483,-1.7316,-1.632,-1.5993,-1.5975,0.0,0.0,0.0,0.0,0.1457,0.0931,0.0119,-0.0419,-0.0796,-0.097,-0.0839,-0.1113,-0.2073,-0.1596,-0.1543,-0.2333,-0.2405,-0.2356,-0.2343,-0.3367,-0.4871,-0.6895,-0.8852,-1.0402,-1.1427,-1.1897,-1.1762,-1.094,-1.0203,-0.9799,-0.9694,-0.8787,-0.8272,-0.8193,-0.8192,-0.8128,-0.7687,-0.157,0.1383,0.1867,0.177,0.2042,0.2515,0.0,0.0,0.0,0.0,0.0,0.0,0.0,0.0,0.0,0.0,0.0,0.0,0.0,0.0,0.0,0.0,0.0,0.0,0.0,0.0,0.0,0.0,0.0,0.0,0.0,0.0,0.0,0.0,0.0,0.0,0.0,0.0,0.0,0.0,-2.7438,-2.8775,-2.8684,-2.7822,-2.612,-2.3268,-2.1737,-2.0516,-1.954,-2.0227,-2.0824,-2.1123,-2.1564,-2.1862,-2.1971,-2.2201,-2.2289,-2.2181,-2.2289,-2.2289,-2.2181,-2.2181,-2.2181,-2.2181,-2.1991,-2.1903,-2.1882,-2.1564,-2.1387,-2.1279,-2.1068,-2.1307,-2.1797,-2.1535,-2.1402,-2.1531,-2.2606,-2.3005,-2.2861,0.0,0.0,0.0,0.1712,0.0776,0.0,0.0,-0.1256,-0.2359,-0.284,-0.255,-0.3368,-0.6194,-0.4826,-0.4639,-0.6889,-0.7096,-0.7051,-0.6925,-0.6945,-0.758,-0.8971,-1.1444,-1.322,-1.4159,-1.4991,-1.5655,-1.6103,-1.378,-1.2657,-1.2549,-0.9965,-0.8738,-0.876,-0.876,-0.8682,-0.8562,-0.8559,-0.6883,-0.4247,-0.4013,-0.2452,-0.0222,0.0,0.0,0.0,0.0,0.0,0.0,0.0,0.0,0.0,0.0,0.0,0.0,0.0,0.0,0.0,0.0,0.0,0.0,0.0,0.0,0.0,0.0,0.0,0.0,0.0,0.0,0.0,0.0,0.0,0.0,0.0,0.0,0.0,-3.2185,-3.4242,-3.5012,-3.3096,-3.4057,-3.2183,-2.5293,-2.5501,-2.4669,-2.1254,-2.1681,-2.2038,-2.1916,-2.2392,-2.2644,-2.2644,-2.271,-2.2798,-2.2784,-2.2784,-2.2784,-2.2784,-2.2925,-2.2925,-2.2764,-2.2625,-2.2413,-2.2323,-2.2025,-2.1794,-2.1595,-2.1581,-2.3182,-2.5677,-2.5298,-2.5209,-2.5663,-2.8664,-2.9784,-2.9299,0.0,0.0,0.0459,0.0478,0.021,0.0,0.0,-0.1244,-0.2361,-0.2833,-0.4013,-0.5256,-0.6371,-0.6291,-0.6379,-0.7061,-0.6996,-0.6945,-0.6912,-0.7815,-0.95,-1.2047,-1.3654,-1.4828,-1.5513,-1.5879,-1.6225,-1.6513,-1.6022,-1.569,-1.5537,-1.4801,-1.4369,-1.429,-1.429,-1.4282,-1.4232,-1.4143,-1.2536,-0.9836,-0.7614,-0.6204,-0.5483,0.0,0.0,0.0,0.0,0.0,0.0,0.0,0.0,0.0,0.0,0.0,0.0,0.0,0.0,0.0,0.0,0.0,0.0,0.0,0.0,0.0,0.0,0.0,0.0,0.0,0.0,0.0,0.0,0.0,0.0,0.0,-3.2716,-3.5137,-3.5004,-3.6647,-3.8034,-3.8584,-3.4956,-3.2698,-3.3548,-2.9632,-2.6687,-2.5698,-2.6156,-2.5286,-2.2659,-2.2764,-2.2886,-2.2886,-2.3029,-2.3049,-2.294,-2.294,-2.2886,-2.2855,-2.556,-2.5412,-2.2855,-2.5531,-2.5145,-2.2479,-2.2289,-2.3587,-2.5816,-2.5365,-2.5714,-2.6249,-2.3222,-2.3407,-2.5277,-2.3724,-2.3074,-2.2842,0.0,0.1084,0.0,0.0,0.0,-0.0194,-0.0758,-0.222,-0.3691,-0.4873,-0.6097,-0.7478,-0.9115,-0.8893,-0.8986,-0.9935,-0.9995,-0.9879,-0.9545,-1.0362,-1.1844,-1.3977,-1.4903,-1.5628,-1.6164,-1.6388,-1.6612,-1.6842,-1.6998,-1.7026,-1.6885,-1.6946,-1.6932,-1.6897,-1.6829,-1.6768,-1.67,-1.6558,-1.5531,-1.3904,-1.2075,-0.9899,-0.7743,-0.7626,-0.748,-0.7377,-0.7145,-0.714,-0.7198,-0.6956,0.0,0.0,0.0,0.0,0.0,0.0,0.0,0.0,0.0,0.0,0.0,0.0,0.0,0.0,0.0,0.0,0.0,0.0,0.0,0.0,0.0,0.0,0.0,0.0,-3.5899,-3.7956,-3.8397,-3.9132,-4.008,-4.131,-3.8316,-3.5938,-3.5369,-3.1968,-2.8585,-2.5673,-2.5809,-2.5069,-2.3014,-2.3008,-2.3804,-2.542,-2.4017,-2.4667,-2.7809,-2.6266,-2.6211,-2.7716,-2.8332,-2.7443,-2.5412,-2.7556,-2.7248,-2.5087,-2.4847,-2.6748,-2.97,-2.617,-2.6406,-2.8735,0.0,0.0,0.0,0.0,-2.3779,-2.246,0.0,0.1484,0.0,0.0,0.0,-0.0442,-0.1791,-0.354,-0.5494,-0.7675,-0.8399,-0.9817,-1.2795,-1.188,-1.188,-1.3881,-1.4183,-1.4007,-1.3404,-1.3614,-1.4163,-1.5078,-1.5499,-1.5898,-1.6402,-1.6615,-1.6876,-1.7032,-1.7154,-1.7216,-1.7222,-1.7358,-1.7419,-1.7412,-1.7263,-1.7121,-1.6992,-1.6842,-1.6635,-1.6537,-1.6408,-1.3336,-0.8889,-0.8746,-0.8667,-0.8636,-0.8445,-0.8353,-0.8262,-0.8203,0.0,0.0,0.0,0.0,0.0,0.0,0.0,0.0,0.0,0.0,0.0,0.0,0.0,0.0,0.0,0.0,0.0,0.0,0.0,0.0,0.0,0.0,0.0,0.0,-3.8504,-4.0334,-4.1746,-4.1523,-4.1563,-4.2325,-4.2326,-4.0109,-3.4636,-3.3815,-3.0971,-2.4387,-2.4131,-2.3947,-2.31,-2.3502,0.0,0.0,0.0,-2.7664,-3.4415,-3.1194,-3.0963,-3.3863,-3.1317,-2.9716,-2.8935,-2.9603,-2.9437,-2.856,-2.8369,-2.996,-3.2245,-2.5503,-2.6052,-3.1233,-3.0787,-2.8697,-2.6314,-2.8718,-2.7838,-2.547,0.0,0.0974,0.0,0.0,0.0,-0.0444,-0.1797,-0.3543,-0.5442,-0.7564,-0.9651,-1.1382,-1.2523,-1.2989,-1.3395,-1.3799,-1.4027,-1.4156,-1.4245,-1.4543,-1.5051,-1.5704,-1.611,-1.6564,-1.7012,-1.708,-1.7182,-1.7338,-1.7365,-1.7378,-1.7378,-1.7405,-1.7419,-1.7412,-1.7263,-1.7175,-1.7141,-1.6998,-1.6849,-1.6648,-1.6621,-1.5797,-1.452,-1.422,-1.4014,-1.3899,-1.345,-1.3401,-1.3483,-1.3089,-1.2675,-1.2281,-1.2028,-1.1307,0.0,0.0,0.0,0.0,0.0,0.0,0.0,0.0,0.0,0.0,0.0,0.0,0.0,0.0,0.0,0.0,0.0,0.0,0.0,-3.7996,-4.0,-4.1644,-4.2442,-4.302,-4.3461,-4.3634,-4.1153,-4.0239,-4.2349,-4.011,-3.6681,-3.2157,-3.2115,-2.9593,-2.3465,-2.6096,-2.8162,-2.8864,-3.1114,-3.3009,-3.4486,-3.3783,-3.2244,-3.0061,-3.5408,0.0,-2.9069,-3.5125,-3.4453,-2.8577,-2.8579,-2.8707,-2.8922,-2.7175,-2.698,-2.7798,-2.7199,-2.6651,-2.589,-2.355,-2.4095,-2.5491,0.1881,0.0839,0.0,0.0,0.0,-0.0674,-0.2686,-0.3972,-0.5689,-0.8443,-1.0332,-1.1619,-1.2216,-1.2881,-1.3186,-1.3078,-1.3268,-1.3715,-1.4462,-1.4869,-1.5445,-1.6266,-1.6659,-1.6998,-1.7297,-1.7304,-1.7344,-1.7419,-1.7446,-1.748,-1.748,-1.7609,-1.765,-1.7636,-1.7487,-1.7419,-1.7405,-1.7182,-1.7039,-1.6965,-1.6897,-1.6734,-1.649,-1.6117,-1.5879,-1.571,-1.5404,-1.5248,-1.516,-1.493,-1.4611,-1.4245,-1.3939,-1.3281,-1.2469,0.0,0.0,0.0,0.0,0.0,0.0,0.0,0.0,0.0,0.0,0.0,0.0,0.0,0.0,-3.3788,-3.4963,0.0,-3.8691,-4.004,-4.1497,-4.2592,-4.302,-4.3754,-4.4182,-4.4008,-4.2682,-4.193,-4.2264,-4.0752,-3.8223,-3.4523,-3.266,-3.084,-2.8944,-2.8864,-3.0619,-3.4405,-3.4486,-3.6307,-4.0102,-3.8213,-3.7285,-3.7355,-3.9176,-3.8133,-3.4636,-3.8364,-3.6952,-3.1521,-3.147,-3.1275,-3.0761,-2.8448,-2.7376,-2.7156,-2.6626,-2.5315,-2.372,-2.3635,-2.3498,-2.3161,0.1465,0.0669,0.0,0.0,0.0,-0.0806,-0.324,-0.4234,-0.5815,-0.8922,-1.0331,-1.1274,-1.1826,-1.2244,-1.2467,-1.2338,-1.2705,-1.3389,-1.457,-1.512,-1.5832,-1.6743,-1.7093,-1.7311,-1.746,-1.7467,-1.748,-1.7507,-1.7629,-1.7649,-1.7683,-1.7846,-1.797,-1.7948,-1.7772,-1.7684,-1.767,-1.7365,-1.7216,-1.7182,-1.7066,-1.7005,-1.6944,-1.6578,-1.6327,-1.6144,-1.601,-1.5669,-1.5371,-1.5398,-1.5215,-1.4976,-1.4713,-1.4299,-1.3828,-1.3613,-1.3049,0.0,0.0,0.0,0.0,0.0,0.0,0.0,0.0,-2.9102,-3.0575,-3.372,-3.5672,-3.7155,-3.829,-3.9666,-4.0949,-4.1964,-4.2806,-4.342,-4.3674,-4.4182,-4.4409,-4.4115,-4.4623,-4.3901,-4.1102,-4.0209,-3.8336,-3.4756,-3.1089,-3.0238,-3.3281,-3.1283,-3.3138,-3.9975,-3.799,-3.9697,-4.5743,-4.2785,-4.2069,-4.3494,-4.1938,-4.0449,-3.906,-4.053,-3.8712,-3.4405,-3.2798,-3.191,-3.1416,-2.8694,-2.7511,-2.757,-2.8682,-2.6735,-2.3614,-2.5672,-2.4878,-2.2638,0.0,0.0097,0.0,0.0,0.0,-0.0504,-0.1987,-0.3631,-0.5407,-0.7404,-0.9368,-1.0697,-1.1002,-1.1442,-1.1945,-1.2433,-1.32,-1.4072,-1.5045,-1.5784,-1.6469,-1.7114,-1.7304,-1.7467,-1.7568,-1.7568,-1.7684,-1.7868,-1.7881,-1.7914,-1.8036,-1.8057,-1.8145,-1.8247,-1.7968,-1.7846,-1.7826,-1.7521,-1.7317,-1.7188,-1.7175,-1.7093,-1.6978,-1.6924,-1.6727,-1.6435,-1.6157,-1.5689,-1.5228,-1.5364,-1.5215,-1.503,-1.5079,-1.4977,-1.5146,-1.6725,-1.534,-1.4271,-1.8875,-2.0896,-2.2695,-2.6797,-2.7653,-2.916,0.0,-3.677,-3.6879,-3.8806,-4.0214,-4.1056,-4.0914,-4.1924,-4.2873,-4.3273,-4.3861,-4.4289,-4.4329,-4.4623,-4.473,-4.4369,-4.4917,-4.5235,-4.5022,-4.2015,-3.8528,-3.4756,-3.1136,-2.9193,-2.9512,-3.2414,-3.6062,-4.0384,-4.3363,-4.5289,-4.6146,-4.5718,-4.2241,-3.5807,-4.2089,-4.158,-3.5337,-4.2007,-4.1234,-3.4104,-2.7105,-2.4038,-2.422,-2.6663,-2.7621,-2.8136,-3.4386,-3.4474,-3.0658,-2.7521,-2.803,-2.9342,0.0,0.0,0.0,0.0,0.0,-0.0454,-0.1788,-0.3471,-0.5195,-0.6881,-0.8772,-1.0059,-1.0238,-1.0508,-1.0914,-1.1509,-1.2537,-1.3572,-1.4604,-1.5615,-1.6483,-1.7161,-1.7338,-1.744,-1.7595,-1.7683,-1.7812,-1.7915,-1.7915,-1.799,-1.8091,-1.8002,-1.8091,-1.8301,-1.8002,-1.7914,-1.7968,-1.7684,-1.7467,-1.7317,-1.7229,-1.7107,-1.6971,-1.6883,-1.6605,-1.6246,-1.6123,-1.5696,0.0,-1.5255,-1.514,-1.503,-1.5085,-1.5646,-1.6493,-1.7351,-1.8027,-1.9572,-2.4674,-2.6434,-2.7842,-3.1729,-3.3356,-3.4878,-3.8198,-3.8945,-3.9372,-4.0976,-4.1817,-4.2365,-4.2579,-4.3167,-4.3714,-4.3995,-4.4409,-4.4623,-4.4409,-4.4543,-4.4436,-4.3902,-4.4436,-4.4984,-4.5383,-4.4031,-4.1616,-3.8052,-3.6343,-3.5491,-3.5408,-3.7163,-3.9859,-4.3705,-4.5499,-4.644,-4.644,-4.4129,-4.2421,-4.1312,-4.2081,-4.1938,-4.1153,-4.4264,-4.2792,-3.7472,-3.167,-2.9219,-2.9315,-3.0416,-3.2089,-3.4274,-3.703,-3.8292,-3.8096,-3.4272,-3.0931,-2.7931,0.0,0.0,0.0,0.0,0.0,-0.0328,-0.1309,-0.3189,-0.4931,-0.6124,-0.8155,-0.9557,-0.971,-0.9907,-1.0224,-1.0745,-1.1915,-1.3078,-1.4048,-1.535,-1.6374,-1.7039,-1.7338,-1.748,-1.7595,-1.7792,-1.7915,-1.7915,-1.7915,-1.799,-1.8091,-1.7989,-1.8077,-1.8301,-1.8036,-1.7989,-1.8077,-1.7806,-1.7595,-1.7412,-1.7297,-1.7121,-1.6897,-1.6648,-1.63,-1.5832,-1.5832,-1.5391,-1.4801,-1.4719,-1.4652,-1.474,-1.5362,-1.645,-1.7836,-1.9581,-2.2358,-2.5477,-2.8362,-3.0275,-3.221,-3.5337,-3.7448,-3.8945,-3.9706,-4.0401,-4.1203,-4.2325,-4.2766,-4.302,-4.3461,-4.3781,-4.4115,-4.4329,-4.477,-4.4917,-4.4583,-4.4409,-4.4075,-4.3487,-4.3634,-4.4075,-4.477,-4.4143,-4.2684,-4.0204,-3.9164,-3.9048,-4.0032,-4.0419,-4.2384,-4.6181,-4.6587,-4.6734,-4.6734,-4.3881,-4.3133,-4.4608,-4.2715,-4.2659,-4.4182,-4.4182,-4.2641,-3.9882,-3.5733,-3.3869,-3.3857,-3.4501,-3.6277,-3.8673,-3.9448,-4.1097,-4.2659,-3.8963,-3.3389,-2.7582,0.0,0.0,0.0,0.0,0.0,-0.0025,-0.005,-0.2596,-0.4566,-0.475,-0.7371,-0.9308,-0.9585,-0.9846,-1.0143,-1.048,-1.1735,-1.2834,-1.3558,-1.5174,-1.6286,-1.6689,-1.7277,-1.7595,-1.7595,-1.7792,-1.7915,-1.7915,-1.7915,-1.799,-1.8091,-1.8091,-1.8165,-1.8265,-1.8158,-1.8091,-1.8077,-1.797,-1.7684,-1.7419,-1.7412,-1.7095,-1.6675,-1.6435,-1.5859,-1.5208,-1.5208,-1.4638,-1.3795,-1.3553,-1.3553,-1.4027,-1.6323,-1.7476,-1.9111,-2.4932,-2.9086,-3.1273,-2.8908,-3.1389,-3.5084,-3.6901,-3.8651,-4.0294,-4.1456,-4.2365,-4.31,-4.342,-4.3487,-4.3487,-4.3527,-4.3781,-4.4115,-4.4329,-4.4917,-4.5197,-4.4917,-4.4369,-4.3781,-4.3167,-4.2619,-4.2619,-4.3487,-4.1324,-3.9806,-3.9726,-3.6673,-3.6411,-3.9905,-4.0537,-4.2595,-4.646,-4.6881,-4.7068,-4.7068,-4.6984,-4.4812,-4.084,-4.4331,-4.3969,-4.0264,-4.0264,-4.0183,-3.9882,-3.5982,-3.408,-3.4083,-3.7409,-3.8707,-3.8963,-4.2436,-4.3555,-4.2686,-3.9158,-3.5126,-3.093,0.0,0.0,0.0,0.0,0.0,0.0,0.0,-0.2565,-0.4535,-0.4692,-0.741,0.0,0.0,0.0,0.0,0.0,-1.1362,-1.2318,-1.3261,-1.4401,-1.5377,-1.6123,-1.6682,-1.7047,-1.7202,-1.7446,-1.7568,-1.7568,-1.7568,-1.765,-1.7792,-1.7684,-1.7772,-1.8002,-1.7758,-1.7704,-1.7737,-1.7629,-1.7453,-1.7263,-1.7168,-1.6978,-1.6675,-1.6473,-1.5798,-1.4848,0.0,-1.3933,-1.3241,-1.3186,-1.3078,-1.3408,-1.585,-1.7708,-1.9939,-2.4744,-2.8868,-3.1719,-3.1145,-3.4149,-3.7742,-3.9346,-4.0762,-4.1964,-4.2766,-4.302,-4.3127,-4.3207,-4.2939,-4.2659,-4.2659,-4.2913,-4.3354,-4.4035,-4.4663,-4.4984,-4.4877,-4.4703,-4.4075,-4.2686,-4.2833,-4.298,-4.2686,-4.2417,-4.1498,-3.9816,-4.0936,-4.1288,-4.0183,-4.3013,-4.5271,-4.6544,-4.7094,-4.7348,-4.7348,-4.4674,-4.386,-4.4895,-4.5817,-4.5335,-4.3838,-4.3838,-4.3838,-4.3756,-4.2217,-4.0091,-3.7813,-3.8641,-3.8904,-3.8597,-3.735,-3.9393,-4.2362,-3.6467,-3.3227,-3.1243,0.0,0.0,0.0,0.0,0.0,0.0,0.0,0.0,0.0,0.0,0.0,0.0,0.0,0.0,0.0,0.0,0.0,-1.1809,-1.2637,-1.3532,-1.4387,-1.5228,-1.5689,-1.6069,-1.6334,-1.6476,-1.6646,-1.6863,-1.6917,-1.7073,-1.727,-1.7283,-1.7365,-1.7595,-1.7351,-1.7317,-1.7399,-1.7243,-1.7093,-1.6931,-1.668,-1.6456,-1.6182,-1.5866,-1.512,0.0,-1.3634,-1.3098,-1.2542,-1.2472,-1.3081,-1.429,-1.6814,-2.0405,-2.4018,-2.5662,-2.9374,-3.2943,-3.2881,-3.59,-3.9426,-4.1122,-4.2258,-4.306,-4.3314,-4.3233,-4.298,-4.2552,-4.1924,-4.1376,-4.1101,-4.1096,-4.1603,-4.3127,-4.3674,-4.4182,-4.4917,-4.477,-4.4155,-4.298,-4.306,-4.3127,-4.2873,-4.338,-4.307,-4.1677,-4.3957,-4.4546,-4.242,-4.5055,-4.6654,-4.6774,-4.7241,-4.7495,-4.7495,-4.4885,-4.472,-4.6921,-4.6413,-4.6039,-4.5677,-4.5677,-4.5677,-4.5595,-4.4125,-4.1987,-3.9542,-3.7907,-3.7816,-3.8456,-3.4709,-3.6556,-4.0451,-3.3262,-3.0419,-2.9703,0.0,0.0,0.0,0.0,0.0,0.0,0.0,0.0,0.0,0.0,0.0,0.0,0.0,0.0,0.0,0.0,0.0,0.0,-1.1746,-1.2623,-1.3418,-1.403,-1.4312,-1.4685,-1.5126,-1.5018,-1.5282,-1.5854,-1.6003,-1.6246,-1.6621,-1.6822,-1.689,-1.689,-1.689,-1.689,-1.689,-1.6734,-1.6533,-1.6415,-1.6024,-1.5622,-1.5289,-1.4584,-1.3926,-1.3288,-1.2576,-1.2115,-1.1759,-1.1552,-1.3635,-1.6787,-1.9319,-2.5228,-3.0671,-2.7767,-3.091,-3.512,-3.4125,-3.6734,-4.0254,-4.2218,-4.3127,-4.3461,-4.3167,-4.2917,-4.244,-4.1381,-4.0312,-3.9475,-3.8953,-3.8544,-3.9092,-4.167,-4.2178,-4.298,-4.5024,-4.4623,-4.4075,-4.4008,-4.3273,-4.31,-4.3928,-4.4035,-4.4289,-4.4877,-4.5424,-4.5741,-4.5882,-4.6327,-4.6577,-4.6534,-4.7122,-4.7411,-4.721,-4.7411,-4.7201,-4.6627,-4.6333,-4.6039,-4.5677,-4.5677,-4.5595,-4.5238,-4.1662,-3.9753,-3.8843,-3.5204,-3.5494,-3.7883,-3.4244,-3.4899,-3.6939,-2.9667,-2.6972,-2.682,0.0,0.0,0.0,0.0,0.0,0.0,0.0,0.0,0.0,0.0,0.0,0.0,0.0,0.0,0.0,0.0,0.0,0.0,-1.147,-1.1925,-1.2494,-1.3254,-1.3736,-1.4126,-1.4516,-1.4706,-1.493,-1.5241,-1.5282,-1.5371,-1.5581,-1.5622,-1.5642,-1.5642,-1.5642,-1.5703,-1.5798,-1.5649,-1.556,-1.5493,-1.516,-1.4909,-1.4719,-1.4529,-1.3878,-1.3091,-1.2901,-1.2379,-1.1868,-1.24,-1.6361,-2.1605,-2.4763,-2.857,-3.1605,-3.0326,-3.3396,-3.6936,-3.598,-3.887,-4.2365,-4.3127,-4.342,-4.3461,-4.3167,-4.0607,-3.8486,-3.9237,-3.6621,-3.4451,-3.5336,-3.6861,-3.8437,-4.0,-4.1924,-4.3674,-4.5131,-4.5304,-4.4984,-4.4115,-4.4182,-4.4222,-4.4035,-4.4409,-4.4917,-4.5423,-4.5596,-4.4531,-4.197,-4.5099,-4.4297,-3.8593,-4.4281,-4.6115,-4.3187,-4.603,-4.7201,-4.6627,-4.6547,-4.6183,-4.5677,-4.5677,-4.4182,-4.1499,-4.053,-3.6903,-3.1586,-3.0456,-3.0319,-3.0559,-2.678,-2.8952,-3.3228,-2.6024,-2.4875,-2.6522,0.0,0.0,0.0,0.0,0.0,0.0,0.0,0.0,0.0,0.0,0.0,0.0,0.0,0.0,0.0,0.0,0.0,0.0,0.0,-1.1279,-1.1658,-1.2288,-1.2522,-1.284,-1.3207,-1.3274,-1.3539,-1.3885,-1.4064,-1.4231,-1.4502,-1.4563,-1.459,-1.459,-1.459,-1.4645,-1.4713,-1.4563,-1.4502,0.0,0.0,-1.4,-1.3905,-1.3777,-1.3322,-1.2752,-1.273,-1.2854,-1.3391,-1.5464,-1.9499,-2.4487,-2.9323,-3.2353,-3.3835,-3.2785,-3.5572,-3.8742,-3.7455,-4.0135,-4.3314,-4.3487,-4.342,-4.298,-4.167,-3.8501,-3.5712,-3.4909,-3.2693,-3.1002,-3.1263,-3.3954,-3.6647,-3.8357,-4.0842,-4.3207,-4.5064,-4.5451,-4.5451,-4.5171,-4.5211,-4.5237,-4.5171,-4.5465,-4.5785,-4.6037,-4.4397,-4.2573,-4.0759,-4.1479,-4.0811,-3.8221,-4.26,-4.473,-4.4275,-4.64,-4.7201,-4.6544,-4.4952,-4.4681,-4.5663,-4.3989,-4.2089,-4.0032,-3.8353,-3.4335,-2.8785,-2.6983,-2.702,-2.7818,-2.414,-2.5884,-2.9795,-2.4154,-2.3214,-2.4508,0.0,0.0,0.0,0.0,0.0,0.0,0.0,0.0,0.0,0.0,0.0,0.0,0.0,0.0,0.0,0.0,0.0,0.0,0.0,0.0,-1.1009,-1.1321,-1.1261,-1.1355,-1.1726,-1.1638,-1.1877,-1.2413,-1.2717,-1.3024,-1.3382,-1.3504,-1.3565,-1.3565,-1.3585,-1.3605,-1.3612,-1.349,-1.345,-1.3443,-1.322,-1.3105,-1.3098,0.0,-1.2623,-1.2461,-1.2379,-1.3315,-1.5157,-1.9052,-2.2477,-2.6278,-3.2625,-3.5735,-3.6742,-3.5576,-3.785,-4.0545,-3.9189,-4.1137,-4.3569,-4.3487,-4.3167,-4.2178,-3.9567,-3.6387,-3.3123,-3.0088,-2.8602,-2.7645,-2.6818,-3.0016,-3.3434,-3.5728,-3.8268,-4.1076,-4.4215,-4.4651,-4.513,-4.6437,-4.6117,-4.601,-4.6587,-4.6627,-4.6417,-4.5897,-4.2003,-3.9854,-4.0361,-3.73,-3.7344,-4.1569,-4.1724,-4.3558,-4.7495,-4.7455,-4.6892,-4.5831,-4.25,-4.2079,-4.4113,-4.0807,-3.906,-3.84,-3.5187,-3.1618,-2.7886,-2.456,-2.4864,-2.7137,-2.4038,-2.4512,-2.6586,-2.3332,-2.2127,-2.2072,0.0,0.0,0.0,0.0,0.0,0.0,0.0,0.0,0.0,0.0,-0.1847,-0.4122,0.0,0.0,0.0,0.0,0.0,0.0,0.0,0.0,0.0,-1.0982,-1.1111,-1.1295,-1.1463,-1.1565,-1.1728,-1.1908,-1.1962,-1.2128,-1.237,-1.2397,-1.2411,-1.2411,-1.2501,-1.2623,-1.2732,-1.2705,-1.2733,-1.2841,-1.2827,-1.2732,-1.263,-1.2665,-1.2562,0.0,-1.2576,-1.3119,-1.4524,-1.9474,-2.3975,-2.8273,-3.2514,-3.645,-3.9534,-4.026,-4.151,-4.2624,-4.2573,-4.3374,-4.4036,-4.3354,-4.2405,-4.1021,-3.8905,-3.3331,-2.8501,-2.8327,-2.4088,-2.0851,-2.2226,-2.4682,-2.7134,-2.9016,-3.1354,-3.491,-4.0373,-4.1138,-4.2501,-4.6185,-4.6477,-4.6507,-4.6627,-4.6627,-4.5336,-4.2345,-3.8473,-3.6321,-3.6404,-3.5949,-3.7535,-4.1569,-4.1724,-4.3558,-4.7495,-4.7241,-4.5384,-4.1936,-4.1076,-3.9206,-3.6388,-3.5758,-3.3783,-3.084,-3.0141,-2.7735,-2.4152,-2.3499,-2.3399,-2.3693,-2.3053,-2.2951,-2.3144,-2.2517,-2.2215,-2.2093,0.0,0.0,0.0,0.0,0.0,0.0,0.0,0.0,0.0,0.0,-0.0706,-0.2195,-0.4864,-0.5155,0.0,0.0,0.0,0.0,0.0,0.0,0.0,-1.0792,-1.0894,-1.1002,-1.1124,-1.1307,-1.1457,-1.1599,0.0,-1.1721,-1.1751,-1.1751,-1.1751,-1.1751,-1.1789,-1.1904,-1.204,-1.204,-1.2128,-1.2239,-1.2433,-1.2501,-1.2528,-1.2759,-1.2766,0.0,-1.2881,-1.3444,-1.4485,-1.7219,-2.1259,-2.6208,-3.2542,-3.4871,-3.5832,-3.8606,-3.9852,-4.0368,-4.083,-4.2439,-4.3781,-4.306,-4.175,-3.9555,-3.5451,-3.0236,-2.5524,-2.2872,-1.999,-1.8156,-1.8919,-2.206,-2.4931,-2.6044,-2.8438,-3.2245,-3.8309,-3.9368,-4.1374,-4.6264,-4.6841,-4.6921,-4.7054,-4.7068,-4.5481,-4.1739,-3.7842,-3.4704,-3.2664,-3.4603,-3.7639,-4.1569,-4.3642,-4.4583,-4.4361,-4.4223,-4.1999,-3.7831,-3.5721,-3.4627,-3.4415,-3.2507,-3.061,-2.8864,-2.8864,-2.6761,-2.3219,-2.3219,-2.3049,-2.2784,-2.2784,-2.3775,-2.5118,-2.5118,-2.5072,-2.5223,0.0,0.0,0.0,0.0,0.0,0.0,0.0,-0.0693,-0.0899,-0.1341,-0.1407,-0.1807,-0.2719,-0.2752,-0.3425,0.0,0.0,0.0,0.0,0.0,0.0,0.0,-1.0718,-1.0792,-1.0914,0.0,0.0,-1.1389,-1.1545,0.0,0.0,0.0,0.0,0.0,-1.1375,-1.1457,-1.1572,-1.164,-1.1748,0.0,0.0,-1.2447,-1.2583,0.0,0.0,0.0,0.0,-1.3607,-1.4285,-1.4957,-1.7712,-2.224,-3.0008,-3.1735,-3.1474,-3.5,-3.6872,-3.7966,-3.8449,-4.1005,-4.3461,-4.2739,-4.0717,-3.7464,-3.2185,-2.7454,-2.2785,-1.8065,-1.6735,-1.6391,-1.62,-1.9354,-2.2226,-2.3054,-2.5692,-2.9793,-3.6059,-3.7946,-4.0837,-4.6304,-4.7138,-4.7241,-4.7469,-4.677,-4.4646,-4.0715,-3.6757,-3.3198,-3.0128,-3.4496,-3.846,-4.1569,-4.4583,-4.4646,-4.1396,-4.0506,-3.7886,-3.3674,-3.0647,-3.0202,-3.1961,-2.9015,-2.7664,-2.7664,-2.7664,-2.5984,-2.3219,-2.3219,-2.347,-2.396,-2.396,-2.5948,-2.8907,-2.8907,-2.8813,-2.9123,0.0,0.0,0.0,0.0,0.0,0.0,0.0,-0.2965,-0.3762,-0.5653,-0.6003,-0.5353,-0.3452,-0.2929,-0.3429,0.0,0.0,0.0,0.0,0.0,0.0,0.0,0.0,0.0,0.0,0.0,0.0,-1.1389,-1.1545,0.0,0.0,0.0,0.0,0.0,0.0,-1.1396,-1.143,-1.1694,0.0,0.0,0.0,0.0,0.0,0.0,0.0,0.0,0.0,-1.3186,-1.3356,-1.4713,-1.5505,-1.6732,-2.1804,-2.6716,-3.0699,-3.1505,-3.495,-3.8524,-3.8475,-4.115,-4.3674,-4.2552,-3.8669,-3.4336,-3.1344,-2.5159,-1.9469,-1.751,-1.5208,-1.3638,-1.3867,-1.4499,-1.5531,-1.7013,-2.0434,-2.5244,-3.2058,-3.6257,-4.0644,-4.6009,-4.7135,-4.7469,-4.7495,-4.4288,-4.0631,-3.6632,-3.2758,-3.0414,-3.0045,-3.712,-4.1292,-4.1652,-4.1847,-4.1788,-4.1396,-3.7444,-3.3571,-2.9788,-2.9251,-2.7261,-2.4209,-2.3851,-2.3721,-2.3721,-2.3721,-2.3499,-2.3219,-2.3219,-2.5013,-2.7679,-2.7679,-2.9715,-3.2688,-3.2688,-3.2492,-3.2273,0.0,0.0,0.0,0.0,0.0,0.0,-0.1094,-0.2238,-0.3354,-0.4452,-0.5564,-0.605,-0.542,-0.3966,-0.2811,-0.2197,0.0,0.0,0.0,0.0,0.0,0.0,0.0,0.0,0.0,0.0,-1.1619,-1.1832,-1.1945,0.0,0.0,0.0,0.0,0.0,0.0,-1.1579,-1.1667,-1.1746,0.0,0.0,0.0,0.0,0.0,0.0,0.0,0.0,0.0,0.0,-1.3424,-1.3838,-1.4272,-1.4954,-1.6744,-1.9396,-2.2531,-2.5966,-3.0251,-3.3933,-3.4413,-3.8801,-4.2993,-4.2151,-3.7936,-3.2967,-2.9191,-2.3481,-1.8201,-1.5451,-1.3936,-1.3207,-1.3559,-1.3729,-1.4673,-1.7308,-1.8962,-2.2678,-3.056,-3.3721,-3.7532,-4.3771,-4.5491,-4.652,-4.7428,-4.6115,-4.3558,-3.963,-3.793,-3.7048,-3.7048,-3.9834,-4.2515,-4.4893,-4.2463,-4.0003,-3.7515,-3.3548,-2.9513,-2.5652,-2.5521,-2.4704,-2.3219,-2.3219,-2.3219,-2.3219,-2.3219,-2.4503,-2.6611,-2.6611,-2.8712,-3.186,-3.1667,-3.3695,-3.6679,-3.6534,-3.6256,-3.6211,0.0,0.0,0.0,0.0,0.0,-0.0207,-0.0807,-0.2056,-0.3454,-0.4923,-0.6214,-0.7152,-0.7523,-0.5969,-0.4075,-0.2041,-0.1899,0.0,0.0,0.0,0.0,0.0,0.0,0.0,0.0,0.0,-1.1918,-1.2166,-1.2413,-1.2454,0.0,0.0,-1.2186,-1.1816,0.0,0.0,0.0,0.0,0.0,0.0,0.0,0.0,0.0,0.0,0.0,0.0,0.0,0.0,0.0,0.0,0.0,-1.3953,-1.3892,-1.4663,-1.6377,-2.078,-2.532,-2.9058,-2.9904,-3.4681,-3.926,-3.8724,-3.4595,-2.9731,-2.6151,-2.123,-1.6668,-1.3979,-1.32,-1.3173,-1.3498,-1.3558,-1.4636,-1.7844,-1.9326,-2.2724,-3.0218,-3.3254,-3.6354,-4.0902,-4.3441,-4.4502,-4.3751,-4.3896,-4.29,-4.0186,-4.1003,-4.1724,-4.1724,-4.1335,-4.2416,-4.5332,-4.0286,-3.6179,-3.3248,-2.9442,-2.6026,-2.3219,-2.3219,-2.3219,-2.3219,-2.3219,-2.3219,-2.3219,-2.3219,-2.5333,-2.8864,-2.8864,-3.169,-3.5865,-3.5563,-3.7533,-4.0564,-4.0295,-3.996,-3.9876,0.0,0.0,0.0,0.0,0.0,0.0,-0.2768,-0.3238,-0.4837,-0.883,-0.9369,-0.9404,-0.9557,-0.9029,-0.8007,-0.6372,-0.2424,0.0,0.0,0.0,0.0,0.0,0.0,0.0,0.0,0.0,-1.2284,-1.2291,-1.2914,-1.301,-1.2686,-1.2921,-1.2751,-1.2284,0.0,0.0,0.0,0.0,0.0,0.0,0.0,0.0,0.0,0.0,0.0,0.0,0.0,0.0,0.0,0.0,0.0,0.0,0.0,-1.3722,-1.452,-1.648,-2.0692,-2.4798,-2.5562,-2.8671,-3.1574,-3.1112,-2.7502,-2.3669,-2.1938,-1.8017,-1.4482,-1.3587,-1.3275,-1.3261,-1.3376,-1.3526,-1.4529,-1.7331,-2.1296,-2.5821,-3.0982,-3.5727,-3.8371,-3.7616,-4.1094,-4.1231,-3.5387,-3.5459,-3.5903,-3.583,-3.9463,-4.1724,-4.1724,-4.123,-4.1148,-4.1479,-3.3623,-2.943,-2.9358,-2.5286,-2.3225,-2.3219,-2.3219,-2.3219,-2.3219,-2.3219,-2.3219,-2.3219,-2.3219,-2.5333,-2.8864,-2.8864,-3.3154,-3.9622,-3.9296,-4.1239,-4.4329,-4.4036,-4.3742,-4.2939,0.0,0.0,0.0,0.0,0.0,0.0,0.0,-0.2098,-0.3466,-0.5038,-0.6296,-0.7696,-0.9291,-0.8016,-0.7329,-0.8013,-0.4257,0.0,0.0,0.0,0.0,0.0,0.0,0.0,0.0,-1.2088,-1.2479,-1.2792,-1.3139,-1.3336,-1.3301,-1.3288,-1.3118,-1.2785,-1.2637,-1.2562,0.0,0.0,0.0,0.0,0.0,0.0,0.0,0.0,0.0,0.0,0.0,0.0,0.0,0.0,0.0,0.0,0.0,0.0,0.0,-1.4536,-1.87,-2.3069,-2.3468,-2.6624,-2.958,-2.8926,-2.5585,-2.2122,-2.0991,-1.7418,-1.4116,-1.3526,-1.3281,-1.322,-1.337,-1.3444,-1.4621,-1.8135,-1.9906,-2.3082,-2.9616,-3.3248,-3.5477,-3.6045,-3.9778,-4.1545,-3.9634,-4.2121,-4.2672,-4.0064,-4.3474,-4.5596,-4.539,-4.0129,-3.8395,-4.1065,-3.3267,-2.9028,-2.9028,-2.5148,-2.3219,-2.3219,-2.3219,-2.3219,-2.3219,-2.3219,-2.4632,-2.696,-2.4353,-2.8288,-3.6377,-3.3783,-3.7015,-4.347,-4.3188,-4.3658,-4.4396,-4.4115,-4.219,-3.9655,0.0,0.0,0.0,0.0,0.0,0.0,0.0,-0.0958,-0.2028,-0.3006,-0.4678,-0.6657,-0.8945,-0.8493,-0.8601,-0.9989,-0.6958,0.0,0.0,0.0,0.0,0.0,0.0,0.0,-1.1786,-1.2135,-1.2535,-1.3084,-1.3397,-1.3648,-1.3797,-1.3756,-1.3519,-1.3166,-1.3024,-1.2922,0.0,0.0,0.0,0.0,0.0,0.0,-1.3771,0.0,0.0,0.0,0.0,0.0,0.0,0.0,0.0,0.0,0.0,0.0,0.0,0.0,-1.6145,-1.9224,-1.9993,-2.2333,-2.4337,-2.3861,-2.1629,-1.9354,-1.8553,-1.6152,-1.3989,-1.3492,-1.3322,-1.3288,-1.3383,-1.4102,-1.554,-1.8012,-1.9558,-2.2268,-2.7545,-3.1301,-3.4762,-3.798,-3.8699,-4.0064,-4.292,-4.4466,-4.4932,-4.4001,-4.6115,-4.6775,-4.5144,-3.8984,-3.5868,-3.6653,-3.0201,-2.6761,-2.6761,-2.4353,-2.3219,-2.3225,-2.4632,-2.5333,-2.5412,-2.6817,-2.8785,-3.0911,-2.8517,-3.2244,0.0,-3.7465,-3.9995,-4.5424,-4.4917,-4.3819,-4.2684,-4.3665,-4.0634,-3.6134,0.0,0.0,0.0,0.0,0.0,0.0,0.0,0.0,-0.0639,-0.2464,-0.415,-0.6077,-0.8398,-0.9903,-1.1072,-1.1952,0.0,0.0,0.0,0.0,0.0,0.0,0.0,0.0,-1.18,-1.2169,-1.2617,-1.3227,-1.3648,-1.396,-1.4166,-1.4251,-1.4014,-1.3464,-1.3444,-1.3268,0.0,0.0,0.0,0.0,0.0,0.0,0.0,0.0,0.0,0.0,0.0,0.0,0.0,0.0,0.0,0.0,0.0,0.0,0.0,0.0,0.0,0.0,0.0,-1.6517,-1.6931,-1.6768,-1.6313,-1.5723,-1.5018,-1.4472,0.0,-1.3471,-1.3383,-1.3403,-1.3458,-1.5378,-1.7028,-1.7237,-2.0039,-2.3006,-2.5333,-2.9977,-3.5616,-4.2152,-3.7836,-3.7145,-4.4264,-4.3203,-4.345,-4.6815,-4.734,-4.5874,-4.2265,-3.7983,-3.3933,-3.0391,-2.5935,-2.3448,-2.3219,-2.3219,-2.3369,-2.3649,-2.696,-2.8793,-2.9441,-3.2657,-3.4405,-3.4907,-3.4606,-3.6624,-4.0043,-3.9785,-4.1712,-4.4793,-4.4206,-4.1972,-3.9413,-4.2193,-3.8664,-3.2493,0.0,0.0,0.0,0.0,0.0,0.0,0.0,0.0,0.0,0.0,-0.2232,-0.4062,-0.5998,-0.7932,-0.9753,0.0,0.0,0.0,0.0,0.0,0.0,0.0,0.0,0.0,-1.2036,-1.2567,-1.3023,-1.3349,-1.3912,-1.4326,-1.4584,-1.4502,-1.4326,-1.4075,-1.3802,-1.3573,0.0,0.0,0.0,0.0,0.0,0.0,0.0,0.0,0.0,0.0,-1.305,-1.3091,0.0,0.0,0.0,0.0,0.0,0.0,0.0,0.0,-1.2969,-1.3316,-1.3777,0.0,-1.4713,-1.4333,-1.4224,-1.4129,0.0,-1.3661,-1.3492,-1.3275,-1.3268,-1.3403,-1.398,-1.5872,-1.7238,-1.6879,-1.9223,-2.2651,-2.7277,-3.025,-3.4272,-4.0442,-3.7508,-3.5671,-3.7407,-4.2603,-4.4984,-4.2824,-4.5687,-4.6869,-4.5549,-3.9172,-3.6226,-3.7563,-3.1181,-2.6249,-2.3225,-2.3219,-2.4704,-2.7538,-2.5483,-2.7593,-3.3089,-3.1114,-3.3361,-3.8631,-3.5489,-3.6329,-3.9911,-3.947,-3.8168,-3.6727,-3.9291,-3.7982,-3.4724,-3.5299,-3.2721,-2.8843,0.0,0.0,0.0,0.0,0.0,0.0,0.0,0.0,0.0,0.0,0.0,0.0,0.0,0.0,0.0,0.0,0.0,0.0,0.0,0.0,0.0,0.0,0.0,-1.1891,-1.2257,-1.2651,-1.3132,-1.3709,-1.4109,-1.4489,-1.4841,-1.4685,-1.4468,-1.4177,-1.3804,-1.3587,0.0,0.0,0.0,0.0,-1.3966,0.0,0.0,0.0,0.0,0.0,-1.2807,-1.2847,0.0,-1.3159,-1.3207,-1.32,0.0,0.0,0.0,0.0,-1.2684,-1.2805,-1.2847,-1.3553,-1.4217,-1.3973,-1.3973,-1.3971,-1.3933,-1.3593,-1.3275,-1.3193,-1.3214,-1.3342,-1.3892,-1.5963,-1.7778,-1.8149,-2.0739,-2.4957,-3.1489,-3.3809,-3.6914,-4.2482,-4.1473,-4.0254,-4.0347,-4.4332,-4.5997,-4.383,-4.5776,-4.6147,-4.4065,-4.0143,-3.7903,-3.7611,-3.3767,-2.9773,-2.5833,-2.5833,-2.6817,-2.8864,-2.8517,-3.1458,-3.7076,-3.6737,-3.8829,-4.2478,-3.844,-3.789,-3.9736,-3.7532,-3.5535,-3.3968,-3.5664,-3.4079,-3.111,-3.2541,-2.9651,-2.5242,0.0,0.0,0.0,0.0,0.0,0.0,0.0,0.0,0.0,0.0,0.0,0.0,0.0,0.0,0.0,0.0,0.0,0.0,0.0,0.0,0.0,0.0,-1.2006,-1.2064,-1.2528,-1.2693,-1.3227,-1.4034,-1.4306,-1.4631,-1.5051,-1.4916,-1.4604,-1.4132,-1.3661,-1.3526,-1.3599,0.0,0.0,0.0,-1.3734,0.0,0.0,0.0,0.0,0.0,0.0,0.0,0.0,-1.3146,-1.3241,-1.3214,-1.3254,0.0,0.0,0.0,0.0,0.0,-1.2637,-1.3607,-1.4529,-1.4326,-1.438,-1.4462,-1.4394,-1.379,-1.3241,-1.3241,-1.3241,-1.3376,-1.3817,-1.658,-1.9012,-1.9618,-2.3187,-2.8427,-3.5974,-3.7934,-4.0205,-4.4721,-4.525,-4.5354,-4.5604,-4.6158,-4.6547,-4.6547,-4.6587,-4.5149,-4.1818,-4.1066,-3.9466,-3.6496,-3.586,-3.395,-3.0619,-3.0061,-2.9716,-2.9787,-3.3009,-3.6807,-4.1003,-4.3688,-4.4813,-4.4666,-4.1296,-3.9209,-3.7893,-3.4767,-3.3019,-3.2245,-3.2295,-3.0301,-2.7641,-3.0491,-2.7461,-2.2404,0.0,0.0,0.0,0.0,0.0,0.0,0.0,0.0,0.0,0.0,0.0,0.0,0.0,0.0,0.0,0.0,0.0,0.0,0.0,0.0,0.0,-1.286,-1.2433,-1.2372,-1.2645,-1.3091,-1.3485,-1.3835,-1.4658,-1.5079,-1.5153,-1.5391,-1.5059,-1.4251,-1.3919,-1.368,-1.3599,-1.3741,0.0,0.0,-1.4021,0.0,0.0,0.0,0.0,0.0,0.0,0.0,0.0,-1.2657,-1.2963,-1.3281,-1.2793,0.0,0.0,0.0,0.0,0.0,-1.3247,-1.4163,-1.467,-1.3527,-1.377,-1.4231,-1.3808,-1.3612,-1.3559,-1.3559,-1.3559,-1.3835,-1.4943,-1.9676,-2.234,-1.8948,-2.4702,-3.161,-3.7103,-3.8215,-3.9062,-4.0816,-4.1029,-4.1029,-4.1053,-4.4266,-4.6266,-4.6266,-4.648,-4.6241,-4.5433,-4.2473,-4.1814,-4.3915,-4.1024,-3.9102,-3.8364,-3.5257,-3.3633,-3.3633,-3.4215,-3.8133,-4.4771,-4.2158,-4.0907,-4.0723,-3.9924,-3.5883,-3.0155,-3.2372,-2.9651,-2.4375,-2.7372,-2.6361,-2.3234,-2.3681,-2.3134,-2.2304,0.0,0.0,0.0,0.0,0.0,0.0,0.0,0.0,0.0,0.0,0.0,0.0,0.0,0.0,0.0,0.0,0.0,0.0,0.0,0.0,-1.2908,-1.3308,-1.2963,-1.2868,-1.3091,-1.3614,-1.4075,-1.4455,-1.5106,-1.5513,-1.5662,-1.5269,-1.4755,-1.4156,-1.3777,-1.3612,-1.3707,-1.3768,-1.398,0.0,0.0,0.0,0.0,0.0,0.0,0.0,0.0,0.0,0.0,0.0,-1.3037,-1.3322,-1.2888,0.0,0.0,0.0,0.0,0.0,-1.2813,-1.3675,-1.4397,-1.3817,-1.4597,-1.6221,-1.895,-1.8076,-1.7105,-1.869,-1.8866,-1.9071,-1.9962,-2.3043,-2.5923,-2.7403,-3.279,-3.7845,-4.0897,-4.1642,-4.2173,-4.3036,-4.3137,-4.3137,-4.3137,-4.4807,-4.589,-4.589,-4.6079,-4.6079,-4.5972,-4.4379,-4.412,-4.5677,-4.4091,-4.2212,-4.0102,-4.0379,-3.9558,-3.7505,-3.7505,-4.0379,-4.5595,-4.1788,-4.0043,-3.9764,-3.542,-3.1563,-2.8232,-2.7601,-2.5332,-2.2482,-2.4102,-2.3765,-2.2303,-2.2079,-2.2038,-2.2059,0.0,0.0,0.0,0.0,0.0,0.0,0.0,0.0,0.0,0.0,0.0,0.0,0.0,0.0,0.0,0.0,0.0,0.0,0.0,-1.2813,-1.2983,-1.3511,-1.3451,-1.3471,-1.3654,-1.4116,-1.459,-1.5072,-1.556,-1.5893,-1.6062,-1.5235,-1.459,-1.4153,-1.3688,-1.3627,-1.3795,-1.3795,-1.3977,0.0,0.0,0.0,0.0,0.0,0.0,0.0,0.0,0.0,0.0,0.0,0.0,0.0,0.0,0.0,0.0,-1.2698,-1.2501,-1.2488,-1.2657,-1.3783,-1.5002,-1.5357,-1.5804,-1.7335,-2.1831,-2.119,-2.0364,-2.2827,-2.3105,-2.3334,-2.4622,-2.6036,-2.9226,-3.6032,-3.9489,-4.1998,-4.393,-4.4663,-4.5171,-4.5678,-4.5677,-4.5677,-4.5677,-4.5677,-4.5677,-4.5677,-4.5677,-4.5677,-4.5677,-4.5677,-4.5677,-4.5677,-4.5677,-4.4345,-4.143,-4.4264,-4.3838,-4.0102,-4.0957,-4.2905,-4.5595,-4.271,-4.0389,-3.8369,-3.2308,-2.8681,-2.6714,-2.3589,-2.2268,-2.2268,-2.2268,-2.2268,-2.2303,-2.2038,-2.1916,-2.1848,0.0,0.0,0.0,0.0,0.0,0.0,0.0,0.0,0.0,0.0,0.0,0.0,0.0,0.0,0.0,0.0,0.0,0.0,0.0,-1.2793,-1.3125,-1.3403,-1.3797,-1.4143,-1.4428,-1.4475,-1.4787,-1.5377,-1.5974,-1.6198,-1.6069,-1.5445,-1.4841,-1.4272,-1.3953,-1.3781,-1.3795,-1.3795,-1.3977,-1.4272,-1.3923,0.0,0.0,0.0,0.0,0.0,0.0,0.0,0.0,0.0,0.0,0.0,0.0,0.0,-1.3077,-1.3254,-1.284,-1.2549,-1.369,-1.5585,-1.753,-1.8666,-1.7026,-1.5513,-1.6921,-1.9062,-2.1018,-2.2237,-2.2344,-2.3265,-2.6429,-2.8208,-3.1852,-4.0017,-3.9836,-4.0109,-4.4274,-4.509,-4.5384,-4.5637,-4.5677,-4.5677,-4.5677,-4.5677,-4.5677,-4.5677,-4.5677,-4.5677,-4.5677,-4.5677,-4.5677,-4.5677,-4.5677,-4.5595,-4.532,-4.5595,-4.3838,-4.0114,-4.3644,-4.5471,-4.5677,-4.5402,-4.1325,-3.443,-3.3838,-2.9493,-2.2717,-2.2413,-2.2268,-2.2268,-2.2268,-2.2268,-2.2254,-2.216,-2.2004,-2.1862,0.0,0.0,0.0,0.0,0.0,0.0,0.0,0.0,0.0,0.0,0.0,0.0,0.0,0.0,0.0,0.0,0.0,0.0,0.0,-1.261,-1.2935,-1.3519,-1.3709,-1.4021,-1.4502,-1.497,-1.5459,-1.5967,-1.6286,-1.6273,-1.5976,-1.5377,-1.4733,-1.4143,-1.3844,-1.3714,-1.3795,-1.3795,-1.3977,-1.4272,-1.3923,-1.368,0.0,0.0,0.0,0.0,0.0,0.0,0.0,0.0,-1.2562,-1.2854,-1.2745,-1.2949,-1.318,-1.2922,-1.2644,-1.2522,-1.2969,-1.433,-1.5779,-1.6475,-1.7669,-1.9346,-2.1872,-2.3774,-2.5772,-2.8351,-2.8681,-2.9048,-3.0667,-3.3734,-3.7304,-4.1388,-4.2065,-4.2826,-4.4834,-4.5384,-4.557,-4.5677,-4.5677,-4.5677,-4.5677,-4.5677,-4.5677,-4.5677,-4.5677,-4.5677,-4.5677,-4.5677,-4.5677,-4.5677,-4.5677,-4.5677,-4.5677,-4.5677,-4.4977,-4.3575,-4.5046,-4.5677,-4.5595,-4.3262,-4.0535,-3.7423,-3.4923,-3.083,-2.5808,-2.5706,-2.4301,-2.2537,-2.4774,-2.4242,-2.2448,-2.4586,-2.3813,-2.1726,0.0,0.0,0.0,0.0,0.0,0.0,0.0,0.0,0.0,0.0,0.0,0.0,0.0,0.0,0.0,0.0,0.0,0.0,-1.2271,-1.242,-1.2779,-1.339,-1.3511,-1.3883,-1.457,-1.5181,-1.5695,-1.6096,-1.6286,-1.6151,-1.5751,-1.5153,-1.4679,-1.4265,-1.3871,-1.3788,-1.3998,-1.3856,-1.3994,-1.4204,-1.3903,-1.3687,0.0,0.0,0.0,0.0,0.0,0.0,0.0,0.0,-1.2383,-1.261,-1.263,-1.2895,-1.3139,-1.2868,-1.34,-1.3911,-1.3053,-1.4757,-1.6718,-1.6596,-1.9425,-2.2738,-2.4665,-2.7286,-3.0174,-3.3291,-3.4414,-3.4665,-3.4147,-3.7371,-4.0615,-4.2004,-4.338,-4.4476,-4.5211,-4.5491,-4.5638,-4.5677,-4.5677,-4.5677,-4.5677,-4.5677,-4.5677,-4.5677,-4.5677,-4.5677,-4.5677,-4.5677,-4.5677,-4.5677,-4.5677,-4.5677,-4.5677,-4.5677,-4.5128,-4.392,-4.5022,-4.5598,-4.553,-4.2929,-4.0908,-3.9331,-3.6599,-3.3264,-2.965,-2.9506,-2.797,-2.6002,-2.8499,-2.7766,-2.5717,-2.8071,-2.6555,-2.3287,0.0,0.0,0.0,0.0,0.0,0.0,0.0,0.0,0.0,0.0,0.0,0.0,0.0,0.0,0.0,0.0,0.0,0.0,-1.1793,-1.225,-1.2637,-1.2982,-1.339,-1.393,-1.4667,-1.5174,-1.5479,-1.5593,-1.5934,-1.5845,-1.5398,-1.4904,-1.4694,-1.466,-1.4065,-1.4045,-1.4475,-1.3984,-1.3933,-1.4098,-1.3862,-1.3626,-1.339,0.0,0.0,0.0,0.0,0.0,0.0,0.0,-1.2088,-1.1983,-1.3064,-1.3091,-1.2787,-1.3268,-1.535,-1.6885,-1.4287,-1.7562,-2.1427,-2.0269,-2.2643,-2.4899,-2.367,-2.8378,-3.3694,-3.597,-3.833,-3.9157,-3.6247,-3.8361,-4.0882,-4.2031,-4.3233,-4.4302,-4.5197,-4.5318,-4.5424,-4.5637,-4.5677,-4.5677,-4.5677,-4.5677,-4.5677,-4.5677,-4.5677,-4.5677,-4.5677,-4.5677,-4.5677,-4.5677,-4.5677,-4.5677,-4.5677,-4.5595,-4.3756,-4.0114,-4.3637,-4.5236,-4.5236,-4.5304,-4.3027,-3.9018,-3.9018,-3.6836,-3.3249,-3.3239,-3.3171,-3.3171,-3.3249,-3.304,-3.272,-3.2585,-3.0127,-2.6845,0.0,0.0,0.0,0.0,0.0,0.0,0.0,0.0,0.0,0.0,0.0,0.0,0.0,0.0,0.0,0.0,0.0,0.0,-1.1786,-1.206,-1.2372,-1.2779,-1.3227,-1.362,-1.391,-1.4496,-1.5167,-1.5947,-1.5723,-1.5438,-1.5092,-1.4809,-1.457,-1.4272,-1.4299,-1.4211,-1.3991,-1.3856,-1.3933,-1.4098,-1.3862,-1.3747,-1.3668,0.0,0.0,0.0,0.0,0.0,0.0,0.0,0.0,0.0,-1.2522,-1.2963,-1.3288,-1.3146,-1.3913,-1.4572,-1.3569,-1.6673,-2.0242,-2.0678,-2.3757,-2.6913,-2.7698,-3.159,-3.5442,-3.6989,-3.9591,-4.0435,-3.6833,-3.9186,-4.1817,-4.2151,-4.3233,-4.4222,-4.4917,-4.5171,-4.5424,-4.5637,-4.5677,-4.5677,-4.5677,-4.5677,-4.5677,-4.5677,-4.5677,-4.5677,-4.5677,-4.5677,-4.5677,-4.5677,-4.3137,-4.1743,-4.1743,-3.9073,-3.8429,-3.982,-4.0759,-4.1293,-4.1452,-4.3901,-4.4233,-4.2782,-4.2782,-4.0576,-3.6814,-3.425,-3.3171,-3.3431,-3.5998,-3.5299,-3.3131,-3.5428,-3.2342,-2.7027,0.0,0.0,0.0,0.0,0.0,0.0,0.0,0.0,0.0,0.0,-0.5386,-0.758,0.0,0.0,0.0,0.0,0.0,0.0,-1.1705,-1.1945,-1.2264,-1.2672,-1.3105,-1.3519,-1.3966,-1.4333,-1.4821,-1.5459,-1.5248,-1.4991,-1.4706,-1.4726,-1.4631,-1.4479,-1.4618,-1.4475,-1.4058,-1.3937,-1.3919,-1.3892,-1.3815,-1.3761,-1.368,0.0,0.0,0.0,0.0,0.0,0.0,0.0,0.0,0.0,-1.222,-1.2528,-1.2889,-1.3057,-1.4871,-1.6739,-1.5972,-1.8571,-2.2114,-2.484,-2.6881,-2.9334,-3.373,-3.5659,-3.7198,-3.9376,-4.121,-4.1688,-3.9339,-4.0796,-4.2432,-4.2552,-4.338,-4.4182,-4.4623,-4.4957,-4.5211,-4.5384,-4.5491,-4.5571,-4.5571,-4.5571,-4.557,-4.5677,-4.5677,-4.5046,-4.3563,-4.3494,-4.2798,-4.1227,-3.8981,-3.7723,-3.7704,-3.6801,-3.6713,-3.7423,-4.0118,-4.0728,-3.9489,-4.305,-4.4543,-4.4262,-4.4262,-4.2949,-4.0608,-3.8375,-3.7483,-3.7706,-3.9865,-3.9285,-3.7348,-3.928,-3.6243,-3.1017,0.0,0.0,0.0,0.0,0.0,0.0,0.0,0.0,0.0,0.0,-0.427,-0.6275,0.0,0.0,0.0,0.0,0.0,0.0,0.0,-1.1918,-1.2284,-1.2693,-1.3078,-1.3641,-1.4475,-1.4475,-1.4462,-1.4448,-1.4559,-1.4543,-1.4285,-1.4552,-1.4808,-1.4976,-1.5003,-1.4774,-1.4428,-1.4122,-1.3838,-1.3558,-1.3673,-1.3646,-1.3566,-1.3403,0.0,0.0,0.0,0.0,0.0,0.0,0.0,0.0,-1.207,-1.1993,-1.2016,-1.2868,-1.6942,-2.0945,-1.995,-2.209,-2.5861,-3.0971,-3.1116,-3.2103,-3.9953,-3.9533,-3.8543,-4.2336,-4.2913,-4.2803,-4.2803,-4.2766,-4.2873,-4.31,-4.3634,-4.4115,-4.4329,-4.4663,-4.485,-4.4877,-4.5104,-4.5277,-4.5277,-4.5277,-4.5384,-4.5638,-4.561,-4.3967,-4.0239,-4.0043,-3.8253,-3.441,-3.3913,-3.3813,-3.3966,-3.6621,-3.6747,-3.4328,-4.0473,-4.1916,-3.9398,-4.2823,-4.4249,-4.4008,-4.4008,-4.4008,-4.4008,-4.4008,-4.4008,-4.4008,-4.4008,-4.3821,-4.3527,-4.3207,-4.0733,-3.7,0.0,0.0,0.0,0.0,0.0,0.0,0.0,0.0,0.0,0.0,0.0,0.0,0.0,0.0,0.0,0.0,0.0,0.0,0.0,-1.2074,-1.244,-1.2935,-1.3574,-1.4027,-1.434,-1.4231,-1.4109,-1.3944,-1.4143,-1.4183,-1.4129,-1.455,-1.4692,-1.4618,-1.4862,-1.4604,-1.3916,-1.3539,-1.337,-1.3261,-1.318,-1.3241,-1.3241,-1.2976,-1.2739,0.0,0.0,0.0,0.0,0.0,0.0,0.0,-1.2196,-1.2298,-1.2393,-1.2589,-1.4131,-1.6273,-1.8626,-2.2325,-2.6683,-3.1573,-3.3771,-3.54,-3.7904,-3.8011,-3.8644,-4.2586,-4.338,-4.334,-4.334,-4.3527,-4.3648,-4.3461,-4.3754,-4.4115,-4.4329,-4.4476,-4.4623,-4.485,-4.4957,-4.4984,-4.4984,-4.4984,-4.4984,-4.5064,-4.5064,-4.3455,-3.9844,-3.9628,-3.7951,-3.4165,-3.1201,-3.0983,-3.3818,-2.8786,-3.0078,-3.768,-3.6274,-3.8177,-4.2884,-4.3705,-4.4075,-4.4008,-4.4008,-4.4008,-4.4008,-4.4008,-4.4008,-4.4008,-4.4008,-4.3968,-4.3821,-4.3273,-4.0873,-3.7647,0.0,0.0,0.0,0.0,0.0,0.0,0.0,0.0,0.0,0.0,0.0,0.0,0.0,0.0,0.0,0.0,0.0,0.0,0.0,-1.2047,-1.252,-1.3139,-1.3792,-1.4075,-1.4082,-1.3933,-1.3817,-1.37,-1.3749,-1.3899,-1.419,-1.4713,-1.4984,-1.5052,-1.5065,-1.4658,-1.3926,-1.3471,-1.3159,-1.2969,-1.3077,-1.3024,-1.2935,-1.2705,-1.244,-1.2162,-1.202,0.0,0.0,0.0,0.0,0.0,0.0,0.0,-1.1959,-1.2461,-1.3964,-1.6058,-1.8815,-2.2654,-2.7281,-3.2762,-3.6404,-3.8824,-3.9438,-3.9677,-4.0416,-4.2619,-4.3233,-4.3273,-4.3127,-4.3354,-4.3527,-4.3354,-4.3567,-4.3821,-4.3968,-4.4182,-4.4436,-4.4449,-4.4583,-4.4663,-4.4663,-4.4663,-4.473,-4.4877,-4.3275,-4.0721,-3.6996,-3.5135,-3.247,-2.8664,-2.666,-2.6497,-2.8311,-2.6115,-2.8783,-3.6128,-3.5862,-3.7773,-4.143,-4.143,-4.0463,-3.8853,-3.8853,-3.8853,-3.8853,-3.8853,-3.9865,-4.1392,-4.1254,-4.223,-4.3714,-4.3273,-4.1883,-3.9934,0.0,0.0,0.0,0.0,0.0,0.0,0.0,0.0,0.0,0.0,0.0,0.0,0.0,0.0,0.0,0.0,0.0,0.0,0.0,-1.2033,-1.2535,-1.3329,-1.377,-1.3933,-1.3761,-1.3599,-1.3531,-1.3585,-1.3451,-1.3777,-1.4577,-1.4991,-1.533,-1.5539,-1.5309,-1.474,-1.396,-1.3458,-1.2983,-1.2551,-1.2786,-1.2732,-1.2483,-1.2366,-1.2081,-1.1705,-1.1619,-1.1653,-1.1705,-1.1681,0.0,0.0,0.0,0.0,-1.1376,-1.2237,-1.4197,-1.6667,-1.9347,-2.373,-2.892,-3.4536,-3.8633,-4.135,-4.1644,-4.1897,-4.2151,-4.2509,-4.2766,-4.2953,-4.2766,-4.2953,-4.31,-4.3167,-4.3314,-4.3461,-4.3462,-4.3862,-4.4076,-4.3928,-4.4076,-4.4222,-4.4222,-4.4222,-4.4369,-4.4623,-4.1887,-3.8597,-3.4804,-3.1171,-2.7469,-2.3612,-2.2861,-2.2806,-2.3213,-2.62,-2.9842,-3.4172,-3.7817,-3.923,-3.8563,-3.7962,-3.5998,-3.3171,-3.3171,-3.3171,-3.3171,-3.3188,-3.4937,-3.7603,-3.7261,-3.8973,-4.1686,-4.2,-4.1997,-4.1467,0.0,0.0,0.0,0.0,0.0,0.0,0.0,0.0,0.0,0.0,-0.4289,-0.6168,-0.7752,-0.9851,0.0,0.0,0.0,0.0,-1.164,0.0,0.0,-1.3227,-1.3512,-1.3639,-1.3612,-1.3376,-1.3363,-1.3585,-1.3342,-1.4084,-1.569,-1.533,-1.5276,-1.5432,-1.5262,-1.4624,-1.3599,-1.2922,-1.2359,-1.1895,-1.1714,-1.1687,-1.1712,-1.1599,-1.1504,-1.145,-1.143,-1.1436,-1.1484,-1.1685,-1.1698,0.0,0.0,0.0,-1.1247,-1.1491,-1.2211,-1.3991,-1.89,-2.6793,-3.4461,-3.774,-3.9806,-4.1056,-4.1274,-4.1416,-4.1523,-4.1857,-4.2338,-4.283,-4.2993,-4.306,-4.3167,-4.342,-4.3273,-4.3233,-4.3487,-4.338,-4.3354,-4.3567,-4.3569,-4.3634,-4.3634,-4.3634,-4.3674,-4.3714,-4.3229,-4.1518,-3.8165,-3.4547,-3.0877,-2.7106,-2.4,-2.3855,-2.6945,-2.7492,-3.1132,-3.7895,-4.1537,-4.1616,-3.8485,-3.5327,-3.3654,-3.3171,-3.3171,-3.3171,-3.3218,-3.3026,-3.3213,-3.366,-3.3477,-3.3725,-3.4495,-3.7228,-3.8224,-3.8551,0.0,0.0,0.0,0.0,0.0,0.0,0.0,0.0,0.0,0.0,0.0,-0.7529,-0.8323,-0.9985,0.0,0.0,0.0,0.0,-1.1563,-1.2162,0.0,-1.2915,-1.3139,-1.3214,-1.3085,-1.2996,-1.303,-1.3254,-1.303,-1.3973,-1.6024,-1.5778,-1.6083,-1.6748,-1.5976,-1.512,-1.4299,-1.3037,-1.2244,-1.178,-1.1606,-1.1864,-1.2291,-1.1581,-1.1572,-1.1925,-1.1253,-1.107,-1.1172,-1.1389,-1.147,-1.1491,-1.1491,0.0,0.0,0.0,-1.1572,-1.3498,-2.0802,-2.6323,-3.1441,-3.7225,-3.9412,-4.0294,-4.0762,-4.1061,-4.1314,-4.1461,-4.175,-4.2071,-4.2512,-4.2619,-4.2659,-4.2766,-4.2833,-4.2913,-4.302,-4.306,-4.3127,-4.3273,-4.3273,-4.3273,-4.3273,-4.3273,-4.3273,-4.3273,-4.1402,-3.961,-3.8194,-3.4663,-3.1116,-2.7604,-2.5928,-2.4965,-2.4706,-2.6679,-3.1393,-3.863,-4.2278,-4.2093,-3.8563,-3.6959,-3.3991,-2.9987,-2.797,-2.7082,-2.7082,-2.6892,-2.8018,-2.986,-2.9547,-3.0732,-3.2992,-3.626,-3.7465,-3.7865,0.0,0.0,0.0,0.0,0.0,0.0,0.0,0.0,0.0,0.0,0.0,-0.8671,-0.9171,0.0,0.0,0.0,0.0,0.0,-1.1477,0.0,0.0,0.0,-1.2745,-1.2786,-1.2632,-1.2637,-1.2712,-1.2901,-1.2786,-1.3919,-1.6191,-1.6191,-1.6931,-1.8199,-1.6901,-1.5826,-1.4875,-1.3451,-1.2603,-1.2179,-1.2033,-1.2366,-1.2935,-1.2295,-1.2406,-1.2813,-1.1694,-1.1279,-1.1293,-1.124,-1.1212,-1.128,-1.128,-1.1199,0.0,0.0,0.0,-1.36,-2.0729,-2.4311,-2.7613,-3.4439,-3.7469,-3.9025,-3.9853,-4.0468,-4.0914,-4.1128,-4.1168,-4.1376,-4.1897,-4.2004,-4.2031,-4.2178,-4.2338,-4.2472,-4.2552,-4.2726,-4.2873,-4.2873,-4.2953,-4.2993,-4.2993,-4.2993,-4.2993,-4.2993,-4.0473,-3.8979,-3.9052,-3.5657,-3.2508,-3.0006,-2.9075,-2.7368,-2.4981,-2.8617,-3.3691,-3.9974,-4.2701,-4.2582,-3.9931,-3.9042,-3.5663,-3.025,-2.5667,-2.3696,-2.362,-2.2517,-2.3694,-2.6036,-2.5738,-2.7261,-3.008,-3.351,-3.528,-3.6402,0.0,0.0,0.0,0.0,0.0,0.0,0.0,0.0,0.0,0.0,0.0,0.0,-1.1065,-1.1212,-1.1097,-1.0934,-1.0921,0.0,0.0,0.0,0.0,0.0,-1.2372,0.0,-1.2515,-1.2379,-1.2454,-1.2706,-1.2693,-1.3977,-1.6497,-1.6497,-1.7521,-1.9291,-1.7935,-1.6456,-1.4916,-1.4072,-1.3551,-1.3295,-1.3043,-1.2962,-1.3105,-1.3987,-1.4285,-1.4089,-1.3214,-1.2664,-1.2291,-1.1479,-1.1077,-1.0934,-1.0934,-1.0934,-1.0894,0.0,0.0,0.0,-1.6476,-2.112,-2.5984,-2.9322,-3.3432,-3.7048,-3.8477,-3.9265,-3.992,-4.0762,-4.0949,-4.1016,-4.1274,-4.1376,-4.1501,-4.2075,-4.2004,-4.1924,-4.2218,-4.2258,-4.2258,-4.2258,-4.2512,-4.2699,-4.2699,-4.2699,-4.2699,-4.2699,-4.2544,-4.2549,-4.2801,-3.9378,-3.733,-3.7145,-3.3836,-3.2094,-3.2159,-3.6067,-3.9931,-4.3744,-4.3929,-4.3929,-4.3599,-4.0197,-3.8375,-3.7628,-3.054,-2.7423,-2.7133,-2.3591,-2.2161,-2.2214,-2.2002,-2.1977,-2.2398,-2.6083,-2.9432,-3.2601,0.0,0.0,0.0,0.0,0.0,0.0,0.0,0.0,0.0,0.0,0.0,0.0,0.0,-1.1402,-1.1246,-1.1097,-1.0968,0.0,0.0,0.0,0.0,0.0,-1.22,-1.2264,-1.2366,-1.2261,-1.2244,-1.2447,-1.2352,-1.3356,-1.5337,-1.5676,-1.6388,-1.7412,-1.7121,-1.6666,-1.6051,-1.4285,-1.3553,-1.3532,-1.3322,-1.3817,-1.4645,-1.4346,-1.4855,-1.556,-1.4278,-1.3566,-1.318,-1.2854,-1.2264,-1.1633,-1.1401,-1.1144,-1.0867,-1.0649,-1.1275,-1.2777,-1.5951,-1.9412,-2.3221,-2.763,-3.1672,-3.4871,-3.6393,-3.8063,-3.9353,-3.9706,-4.0194,-4.0655,-4.0762,-4.1096,-4.1354,-4.1568,-4.1563,-4.1523,-4.163,-4.1608,-4.1608,-4.1608,-4.1924,-4.2111,-4.2111,-4.2258,-4.2365,-4.2365,-4.2365,-4.2432,-4.2512,-4.1286,-3.9693,-3.7776,-3.6308,-3.5712,-3.6167,-3.7541,-4.0212,-4.4008,-4.4008,-4.4008,-4.3929,-4.2688,-4.2093,-4.1762,-3.6814,-3.2002,-2.7612,-2.6128,-2.4089,-2.1862,-2.1726,-2.1638,-2.1977,-2.5465,-2.8927,-3.2505,0.0,0.0,0.0,0.0,0.0,0.0,0.0,0.0,-0.8836,-0.9479,0.0,0.0,0.0,0.0,-1.1457,-1.1295,-1.1151,-1.1124,-1.1307,-1.1362,0.0,0.0,-1.2118,-1.2247,-1.2359,-1.2254,-1.2227,-1.2291,-1.2227,-1.2956,-1.4523,-1.4923,-1.5567,-1.6368,-1.611,-1.6303,-1.6571,-1.4977,-1.4333,-1.438,-1.4428,-1.4957,-1.571,-1.5716,-1.6239,-1.6836,-1.5798,-1.5065,-1.4491,-1.4092,-1.337,-1.2501,-1.1999,-1.1327,-1.0725,-1.0555,-1.0812,-1.1699,-1.414,-1.6755,-1.9754,-2.3897,-2.7784,-3.1244,-3.3598,-3.5958,-3.7859,-3.8691,-3.9493,-4.0107,-4.0294,-4.0594,-4.0914,-4.1101,-4.1203,-4.1203,-4.1203,-4.1269,-4.1248,-4.1203,-4.1456,-4.1644,-4.1644,-4.1817,-4.1964,-4.2071,-4.2071,-4.2111,-4.2218,-4.2218,-4.1284,-3.929,-3.9152,-3.9287,-3.9643,-3.9741,-4.1135,-4.3714,-4.3781,-4.3861,-4.3861,-4.3968,-4.4008,-4.3863,-4.143,-3.6255,-2.9434,-2.808,-2.5339,-2.1882,-2.1828,-2.176,-2.2,-2.4183,-2.7265,-3.0859,0.0,0.0,0.0,0.0,0.0,0.0,0.0,0.0,-0.9327,-1.1348,0.0,0.0,0.0,0.0,0.0,-1.1457,-1.1416,-1.1341,-1.1234,-1.1349,0.0,0.0,-1.2128,-1.2359,-1.2508,-1.2372,-1.2291,-1.2291,-1.2284,-1.2881,-1.4078,-1.4326,-1.5174,-1.6388,-1.5086,-1.5228,-1.6435,-1.613,-1.5947,-1.5949,-1.6313,-1.6259,-1.6201,-1.8179,-1.8518,-1.7956,-1.7703,-1.7162,-1.6402,-1.5188,-1.4282,-1.3484,-1.2589,-1.1477,-1.0514,-1.05,-1.0616,-1.0745,0.0,0.0,0.0,-1.7813,-2.1703,-2.609,-3.0219,-3.29,-3.5245,-3.7692,-3.8624,-3.9167,-3.9853,-3.994,-4.0187,-4.0762,-4.0869,-4.0909,-4.0909,-4.1122,-4.1203,-4.0949,-4.1101,-4.1274,-4.1274,-4.1274,-4.1456,-4.175,-4.179,-4.1924,-4.2218,-4.2218,-4.2218,-4.2218,-4.2512,-4.2723,-4.2723,-4.2953,-4.31,-4.31,-4.338,-4.3462,-4.3527,-4.3861,-4.3968,-4.3968,-4.3995,-3.9907,-3.3026,-2.9502,-2.5653,-2.2106,-2.2181,-2.2004,-2.1692,-2.1828,-2.4045,-2.74,0.0,0.0,0.0,0.0,0.0,-0.9205,-1.1014,-1.1275,-1.1449,0.0,0.0,0.0,-1.2372,-1.2338,-1.2332,-1.2359,-1.1922,-1.1735,-1.1846,-1.1587,-1.1572,-1.2016,-1.2189,-1.2406,-1.2625,-1.2522,-1.2393,-1.2291,-1.222,-1.2445,-1.2942,-1.3288,-1.3817,-1.4532,-1.4428,-1.4563,-1.4875,-1.4245,-1.4835,-1.6137,-1.5608,-1.6361,-1.7806,-1.7913,-1.8498,-1.9135,-1.8864,-1.8423,-1.7894,-1.7344,-1.6239,-1.4708,-1.2881,-1.1762,-1.1077,-1.0751,-1.0995,-1.1272,-1.0995,0.0,0.0,0.0,0.0,0.0,-2.629,-2.9297,-3.2305,-3.4883,-3.6046,-3.6992,-3.8477,-3.9092,-3.946,-3.9893,-4.0334,-4.0588,-4.0588,-4.0655,-4.0695,-4.0615,-4.0842,-4.1016,-4.1016,-4.1168,-4.1456,-4.175,-4.179,-4.1924,-4.2218,-4.2432,-4.2445,-4.2218,-4.2512,-4.2723,-4.2723,-4.2803,-4.2886,-4.31,-4.3167,-4.3207,-4.3233,-4.3527,-4.3527,-4.3354,-4.3567,-4.0911,-3.6375,-3.5845,-3.1769,-2.5932,-2.5972,-2.433,-2.1828,-2.1862,-2.4045,-2.74,0.0,0.0,-0.8504,-0.9702,-1.0667,-1.161,-1.2534,-1.2712,-1.2732,0.0,0.0,0.0,-1.2956,-1.3139,-1.3186,-1.3024,-1.2476,-1.2189,-1.2193,-1.1789,-1.1721,-1.2084,-1.2264,-1.2549,-1.2908,-1.2773,-1.2651,-1.2569,-1.2329,-1.221,-1.2325,-1.2669,-1.2922,-1.32,-1.3315,-1.3505,-1.3695,-1.2935,-1.3858,-1.5866,-1.6157,-1.6992,-1.8111,-1.8511,-1.9006,-1.9488,-1.9624,-1.9379,-1.8972,-1.8728,-1.7392,-1.5499,-1.362,-1.2662,-1.1999,-1.1301,-1.1529,-1.1949,-1.1538,-1.2612,-1.4036,-1.4555,0.0,0.0,-2.2266,-2.5719,-2.9194,-3.1765,-3.3875,-3.5698,-3.7088,-3.7823,-3.8397,-3.8945,-3.9426,-3.992,-4.0401,-4.0481,-4.0481,-4.0481,-4.0615,-4.0735,-4.0735,-4.0869,-4.1096,-4.139,-4.1523,-4.1777,-4.2178,-4.2365,-4.2405,-4.2218,-4.2405,-4.2472,-4.2472,-4.2472,-4.2619,-4.2913,-4.2913,-4.298,-4.31,-4.3273,-4.3247,-4.31,-4.3273,-4.2065,-3.9988,-4.0324,-3.6134,-2.9576,-2.9817,-2.8491,-2.63,-2.4704,-2.5425,-2.7561,0.0,0.0,-1.0535,-1.067,-1.2366,-1.362,-1.3383,-1.3437,-1.3478,0.0,-1.3452,-1.3546,-1.3865,-1.4197,-1.419,-1.3668,-1.3139,-1.2672,-1.2433,-1.2067,-1.1925,-1.2118,-1.2372,-1.2725,-1.318,-1.3111,-1.3043,-1.2975,-1.2535,-1.225,-1.2132,-1.2318,-1.2372,-1.2257,-1.2139,-1.2383,-1.2867,-1.2318,-1.3308,-1.5357,-1.7093,-1.7738,-1.7826,-1.9434,-1.9766,-1.9468,-2.0139,-2.0119,-1.9752,-1.9522,-1.8057,-1.609,-1.4772,-1.3935,-1.3214,-1.2155,-1.2321,0.0,-1.2359,-1.2474,0.0,-1.3531,-1.4587,0.0,-1.8506,-2.2159,-2.5713,-2.8126,-3.1328,-3.4027,-3.5059,-3.5923,-3.6754,-3.7595,-3.8143,-3.8905,-4.0247,-4.0435,-4.0435,-4.0435,-4.0401,-4.0441,-4.0441,-4.0502,-4.0588,-4.0869,-4.1163,-4.1528,-4.2138,-4.2178,-4.2178,-4.2218,-4.2218,-4.2218,-4.2218,-4.2218,-4.2365,-4.2723,-4.2723,-4.2806,-4.306,-4.31,-4.306,-4.2993,-4.302,-4.306,-4.306,-4.31,-3.9117,-3.314,-3.3573,-3.3392,-3.2366,-2.8682,-2.755,-2.8189,-1.2257,-1.2801,-1.3024,-1.3326,-1.38,-1.4231,-1.4363,-1.4258,-1.4285,-1.4733,-1.4896,-1.5133,-1.556,-1.5248,-1.5011,-1.5018,-1.4061,-1.3376,-1.3193,-1.2454,-1.2125,-1.2237,-1.2528,-1.2786,-1.3037,-1.3329,-1.322,-1.2773,-1.2691,-1.2508,-1.2244,-1.2054,-1.2013,-1.2139,-1.1945,-1.2013,-1.2343,-1.337,-1.4421,-1.5398,-1.5778,-1.7182,-1.9094,-1.9569,-2.0051,-2.0492,-2.0627,-2.0627,-2.0438,-1.9678,-1.8742,-1.7629,-1.6151,-1.5357,-1.4746,-1.358,-1.3675,-1.4041,-1.3478,-1.3715,-1.396,-1.3336,-1.4881,0.0,-1.6336,-1.8378,-2.0868,-2.2739,-2.5215,-2.7578,-2.9517,-3.2014,-3.3881,-3.4295,-3.5805,-3.7595,-3.9493,-3.9786,-3.9786,-3.9786,-3.996,-4.0107,-4.0107,-4.0334,-4.0588,-4.0869,-4.1163,-4.1483,-4.1857,-4.1857,-4.1964,-4.2218,-4.2218,-4.2218,-4.2218,-4.2218,-4.2365,-4.2723,-4.2723,-4.2763,-4.2766,-4.2993,-4.2846,-4.2405,-4.2659,-4.2803,-4.2766,-4.2993,-4.0573,-3.6709,-3.7049,-3.5228,-3.2034,-2.8704,-2.9029,-3.1236,-1.3256,-1.3695,-1.3966,-1.434,-1.459,-1.4814,-1.5038,-1.5072,-1.5262,-1.5784,-1.6307,-1.6524,-1.6225,-1.6056,-1.5867,-1.5445,-1.4523,-1.3838,-1.3532,-1.2813,-1.2393,-1.2393,-1.2571,-1.2874,-1.3173,-1.3403,-1.337,-1.3064,-1.2801,-1.2542,-1.2213,-1.2094,-1.2182,-1.2386,-1.223,-1.242,-1.2881,-1.341,-1.4238,-1.5303,-1.6571,-1.8077,-1.961,-2.0139,-2.056,-2.0878,-2.0878,-2.0845,-2.0627,-1.9644,-1.8918,-1.8199,-1.6931,-1.6422,-1.6062,-1.4869,-1.4889,-1.5133,-1.4342,-1.4356,-1.4536,-1.4163,-1.4814,0.0,0.0,-1.6667,-1.856,-2.0047,-2.2075,-2.4093,-2.5606,-2.8162,-3.0309,-3.1103,-3.3494,-3.5618,-3.6794,-3.8103,-3.8985,-3.9159,-3.9159,-3.9265,-3.9559,-3.9687,-4.0067,-4.0655,-4.0949,-4.1208,-4.1501,-4.171,-4.1857,-4.2004,-4.2151,-4.2218,-4.2218,-4.2218,-4.2365,-4.2723,-4.2512,-4.2512,-4.2723,-4.2659,-4.2512,-4.2218,-4.2365,-4.2576,-4.2723,-4.287,-4.1895,-4.0391,-4.0667,-3.963,-3.7415,-3.3801,-3.346,-3.4804,-1.3592,-1.3865,-1.417,-1.4572,-1.4964,-1.5242,-1.5425,-1.5683,-1.6105,-1.6619,-1.7399,-1.7636,-1.6944,-1.6978,-1.6809,-1.6191,-1.5276,-1.457,-1.4167,-1.3423,-1.2976,-1.2854,-1.2854,-1.3057,-1.3478,-1.3458,-1.339,-1.3275,-1.2908,-1.2515,-1.2145,-1.2203,-1.242,-1.2686,-1.2657,-1.3051,-1.3743,-1.3464,-1.4255,-1.5806,-1.786,-1.8918,-1.9345,-2.0417,-2.0804,-2.0804,-2.0946,-2.0892,-2.0678,-1.9624,-1.9027,-1.8511,-1.7446,-1.7249,-1.7175,-1.5974,-1.5967,-1.6157,-1.5262,-1.512,-1.5195,-1.5194,-1.4969,-1.4638,0.0,0.0,0.0,-1.7788,-1.9642,-2.1322,-2.2071,-2.4227,-2.6271,-2.7369,-2.9957,-3.2077,-3.2775,-3.4898,-3.6772,-3.7819,-3.7929,-3.8143,-3.87,-3.866,-3.9033,-4.0147,-4.0214,-4.0508,-4.1122,-4.1456,-4.167,-4.179,-4.2004,-4.2151,-4.2218,-4.2218,-4.2365,-4.2723,-4.2405,-4.2445,-4.2659,-4.2405,-4.2298,-4.2298,-4.2298,-4.2512,-4.2846,-4.2846,-4.2993,-4.3273,-4.338,-4.342,-4.2911,-3.8988,-3.75,-3.7359,-1.372,-1.3802,-1.3964,-1.4462,-1.4896,-1.5282,-1.5519,-1.575,-1.6255,-1.7188,-1.7758,-1.8267,-1.8816,-1.8443,-1.8321,-1.8728,-1.7236,-1.6246,-1.6148,-1.4889,-1.4116,-1.4095,-1.36,-1.3471,-1.3741,-1.3626,-1.3301,-1.2767,-1.2713,-1.253,-1.2264,-1.2179,-1.2318,-1.2699,-1.299,-1.3519,-1.4245,-1.4642,-1.59,-1.7792,-1.8335,-1.8199,-1.786,-1.9556,-2.0119,-2.0085,-2.0756,-2.0892,-2.0648,-1.9875,-1.9481,-1.9069,-1.7893,-1.7805,-1.7948,-1.6748,-1.6809,-1.7127,-1.649,-1.6707,-1.6809,-1.5506,-1.6015,-1.6259,-1.4055,0.0,-1.4773,-1.4021,0.0,-1.7566,-1.793,0.0,0.0,-2.1901,-2.3432,-2.5279,-2.7275,-2.8813,-3.1038,-3.4741,-3.6086,-3.6941,-3.7529,-3.7128,-3.7489,-3.9127,-3.8357,-3.8642,-4.0481,-4.0842,-4.1243,-4.1777,-4.1817,-4.1964,-4.2218,-4.2218,-4.2365,-4.2723,-4.2683,-4.2683,-4.2723,-4.2683,-4.2619,-4.2619,-4.2619,-4.2913,-4.342,-4.342,-4.3607,-4.3861,-4.3354,-4.2993,-4.2408,-3.9061,-3.7653,-3.6917,-1.3619,-1.3858,-1.4089,-1.4448,-1.474,-1.5147,-1.5798,-1.7053,-1.7968,-1.8057,-1.8993,-1.9624,-1.959,-1.9291,-1.9128,-1.9203,-1.8267,-1.7392,-1.67,-1.5825,-1.514,-1.4706,-1.4197,-1.398,-1.4102,-1.3709,-1.3329,-1.299,-1.2725,-1.2447,-1.22,-1.2309,-1.2745,-1.3532,-1.405,-1.4874,-1.5852,-1.5778,-1.6252,-1.71,-1.7568,-1.7521,-1.7439,-1.9922,-2.0845,-2.0824,-2.1143,-2.1157,-2.0892,-2.0064,-1.9522,-1.9094,-1.863,-1.8267,-1.7825,-1.7629,-1.7433,-1.7175,-1.6659,-1.6836,-1.6931,-1.5947,-1.613,-1.6157,-1.4652,-1.4265,-1.4126,-1.3987,0.0,0.0,0.0,0.0,0.0,0.0,-2.1042,-2.2744,-2.3401,-2.5635,-2.879,-3.2991,-3.3761,-3.4389,-3.5498,-3.5685,-3.6259,-3.7529,-3.7301,-3.7809,-3.9386,-4.0214,-4.0842,-4.1269,-4.1456,-4.167,-4.1964,-4.1964,-4.2111,-4.2405,-4.2405,-4.2405,-4.2405,-4.2405,-4.2405,-4.2405,-4.2592,-4.295,-4.313,-4.1076,-4.1749,-4.3744,-4.1139,-4.1339,-4.2946,-4.1455,-3.9459,-3.7356,-1.3531,0.0,-1.4089,-1.4346,-1.4618,-1.5147,-1.6171,-1.7806,-1.8846,-1.8738,-1.9766,-2.0417,-2.0315,-2.0173,-2.0105,-2.0119,-1.959,-1.883,-1.7847,-1.7039,-1.6395,-1.5852,-1.5038,-1.4645,-1.4726,-1.4021,-1.3492,-1.3214,-1.2807,-1.2554,-1.2349,-1.2481,-1.3057,-1.398,-1.4753,-1.5798,-1.6971,-1.6809,-1.7019,-1.7494,-1.7758,-1.8002,-1.8409,-2.0349,-2.1165,-2.1375,-2.1387,-2.1299,-2.1068,-2.0173,-1.959,-1.9217,-1.9115,-1.8586,-1.8057,-1.8267,-1.7989,-1.75,-1.6924,-1.7053,-1.7114,-1.6144,-1.5988,-1.5832,-1.4882,-1.4428,-1.42,-1.4367,-1.4102,0.0,0.0,0.0,-1.6119,-1.6571,0.0,-1.9713,-1.9985,-2.2577,-2.6024,-3.0178,-3.1471,-3.2412,-3.3494,-3.3761,-3.4429,-3.5805,-3.5792,-3.6525,-3.8504,-3.9493,-4.0294,-4.0869,-4.1061,-4.1314,-4.167,-4.175,-4.1897,-4.2111,-4.2178,-4.2218,-4.2218,-4.2218,-4.2258,-4.2301,-4.1608,-4.1495,-4.1558,-3.9091,-3.983,-4.2319,-4.0361,-4.1241,-4.3569,-4.3314,-4.0895,-3.7744,-1.3558,-1.3707,-1.3856,-1.4098,-1.4615,-1.5459,-1.6748,-1.7378,-1.8055,-1.9191,-1.9569,-2.0139,-2.1199,-2.1245,-2.1509,-2.2378,-2.1638,-2.0858,-2.0261,-1.885,-1.8023,-1.7989,-1.6313,-1.5513,-1.5847,-1.4794,-1.3912,-1.3214,-1.3064,-1.2982,-1.2969,-1.2786,-1.301,-1.3653,-1.4875,-1.5988,-1.7019,-1.7629,-1.8816,-2.03,-1.98,-2.0275,-2.1211,-2.0438,-2.0682,-2.1355,-2.1265,-2.1211,-2.1068,-2.0173,-1.9916,-1.9773,-1.9065,-1.8909,-1.8864,-1.8443,-1.8511,-1.8575,-1.7629,-1.7826,-1.7826,-1.5906,-1.5757,-1.5696,-1.4173,-1.4529,-1.4936,-1.4275,-1.4869,-1.5296,-1.4631,-1.4411,0.0,0.0,-1.3899,0.0,0.0,-1.8818,-2.1521,-2.5389,-2.9304,-3.1751,-3.1791,-3.1055,-3.1644,-3.4189,-3.327,-3.4309,-3.8133,-3.8584,-3.9393,-4.0869,-4.0909,-4.1056,-4.1274,-4.1644,-4.179,-4.1853,-4.2071,-4.2218,-4.2218,-4.2218,-4.2365,-4.248,-3.9243,-3.8006,-3.8253,-3.8512,-3.8673,-3.912,-4.2477,-4.3863,-4.3968,-4.3634,-4.1173,-3.7658,-1.4061,-1.4228,-1.4315,-1.4116,-1.4489,-1.5337,-1.6883,-1.8267,-1.9447,-2.0349,-2.1034,-2.1774,-2.2606,-2.2572,-2.271,-2.3117,-2.269,-2.2025,-2.1057,-2.0158,-1.9569,-1.9291,-1.7935,-1.7093,-1.6897,-1.5915,-1.4909,-1.4061,-1.3715,-1.3498,-1.3403,-1.3247,-1.3498,-1.4122,-1.5215,-1.6456,-1.7758,-1.8355,-1.9135,-1.9942,-1.9902,-2.0526,-2.155,-2.1143,-2.1111,-2.1375,-2.1321,-2.1301,-2.1279,-2.079,-2.0349,-2.001,-1.9963,-1.9434,-1.8884,-1.9135,-1.8993,-1.8752,-1.8389,-1.8674,-1.864,-1.689,-1.6564,-1.6259,-1.4652,-1.4746,-1.497,-1.4268,-1.4909,-1.5364,-1.4652,0.0,0.0,0.0,0.0,0.0,0.0,-1.7205,-1.9956,-2.1335,-2.632,-2.9646,-2.9646,-2.9726,-3.06,-3.2425,-3.2732,-3.3988,-3.6715,-3.821,-3.829,-3.6806,-3.7102,-3.6374,-3.442,-3.695,-3.831,-3.8507,-4.1035,-4.2218,-4.2218,-4.2218,-4.2258,-4.2188,-3.8946,-3.7682,-3.7678,-3.5549,-3.6256,-3.8673,-3.9584,-4.1501,-4.3714,-4.3821,-4.1543,-3.758,-1.4455,-1.4566,-1.4606,-1.436,-1.4897,-1.5891,-1.7372,-1.9081,-2.0501,-2.1143,-2.2025,-2.2818,-2.347,-2.3483,-2.3537,-2.3674,-2.3537,-2.294,-2.1761,-2.1299,-2.079,-2.0295,-1.9271,-1.8531,0.0,-1.7209,-1.6157,-1.4991,-1.4599,-1.4255,-1.3939,-1.3736,-1.3878,-1.4346,-1.5438,-1.665,-1.7914,-1.883,-1.9644,-2.0315,-2.0458,-2.0987,-2.1652,-2.1496,-2.1375,-2.1375,-2.1375,-2.1375,-2.1387,-2.1109,-2.0736,-2.0438,-2.0462,-1.9976,-1.9379,-1.9712,-1.9596,-1.9242,-1.8972,-1.9169,-1.9081,-1.765,-1.7297,-1.6876,-1.5276,-1.5384,-1.5594,-1.4794,-1.5255,-1.5716,-1.5438,-1.4923,0.0,0.0,0.0,0.0,0.0,-1.6182,-1.865,-2.0234,-2.4913,-2.7788,-2.7311,-2.7964,-2.9205,-3.1256,-3.1597,-3.2959,-3.5765,-3.6324,-3.6,-3.4615,-3.4045,-3.2745,-3.0797,-3.4397,-3.6363,-3.6685,-4.0298,-4.2111,-4.2218,-4.2218,-4.2218,-4.1965,-3.7571,-3.5731,-3.5548,-3.2267,-3.3166,-3.678,-3.7608,-4.0224,-4.3502,-4.3754,-4.08,-3.5998,-1.4741,-1.4782,-1.4823,-1.4856,-1.5884,-1.7074,-1.8213,-1.9732,-2.1001,-2.1652,-2.252,-2.3259,-2.3714,-2.3877,-2.4066,-2.4276,-2.4243,-2.366,-2.25,-2.2127,-2.1706,-2.1143,-2.0383,-1.9834,-1.9522,0.0,0.0,-1.6003,-1.5744,-1.5222,-1.455,-1.4231,-1.4163,-1.4353,-1.5425,-1.6422,-1.7521,-1.9006,-2.0349,-2.1409,-2.1618,-2.1686,-2.1672,-2.1496,-2.1375,-2.1375,-2.1375,-2.1375,-2.1387,-2.1109,-2.1001,-2.0946,-2.0648,-2.0388,-2.0246,-2.0173,-2.0119,-1.9997,-1.9434,-1.9379,-1.9237,-1.8213,-1.799,-1.7528,-1.6019,-1.6415,-1.6795,-1.5844,-1.5967,-1.6347,-1.6842,-1.5928,-1.5044,0.0,0.0,0.0,0.0,-1.5643,-1.7477,-2.1398,-2.4655,-2.6146,-2.5053,-2.5755,-2.7533,-3.0474,-2.9967,-3.1289,-3.5271,-3.3396,-3.2882,-3.4461,-3.2031,-3.0626,-3.0522,-3.411,-3.6041,-3.6402,-4.0091,-4.1924,-4.2178,-4.2218,-4.2218,-4.1865,-3.5174,-3.2265,-3.2031,-2.9102,-3.0009,-3.3525,-3.6964,-4.0467,-4.3487,-4.3527,-3.9147,-3.3171,-1.5384,-1.6029,-1.67,-1.7154,-1.706,-1.7467,-1.9081,-2.0051,-2.1102,-2.2479,-2.3449,-2.4263,-2.4935,-2.4935,-2.488,-2.4847,-2.4704,-2.4351,-2.37,-2.3273,-2.292,-2.2656,-2.1937,-2.1285,-2.077,-1.959,0.0,-1.7398,-1.6198,-1.5431,-1.5167,-1.4536,-1.4319,-1.4489,-1.5208,-1.6232,-1.75,-1.8776,-2.0261,-2.1774,-2.1815,-2.1828,-2.1794,-2.1477,-2.1375,-2.1375,-2.1375,-2.1375,-2.1341,-2.1231,-2.1089,-2.0967,-2.077,-2.0614,-2.0471,-2.0438,-2.0374,-2.0334,-2.0178,-2.0158,-2.0085,-1.9379,-1.8929,-1.8287,-1.7291,-1.7514,-1.7717,-1.6822,-1.7229,-1.7453,-1.649,-1.599,-1.5459,0.0,0.0,0.0,0.0,-1.5027,-1.5903,-1.5691,-2.0455,-2.4165,-2.5256,-2.4969,-2.5999,-2.8928,-2.9766,-3.1417,-3.4189,-3.4818,-3.4476,-3.3292,-3.3657,-3.2753,-3.0522,-3.411,-3.5947,-3.608,-3.9912,-4.1817,-4.1897,-4.2111,-4.2218,-4.1825,-3.4929,-3.2024,-3.2074,-3.1393,-3.1729,-3.3253,-3.9227,-4.2219,-4.3233,-4.3461,-3.9147,-3.3171,-1.6293,-1.7317,-1.8355,-1.8972,-1.8884,-1.9094,-2.0173,-2.079,-2.1584,-2.2852,-2.3788,-2.4418,-2.4847,-2.5213,-2.5376,-2.5233,-2.5023,-2.467,-2.4155,-2.3816,-2.3519,-2.3239,-2.2818,-2.2344,-2.1815,-2.0668,0.0,-1.831,-1.6951,-1.6008,-1.5398,-1.4713,-1.4434,-1.4543,-1.5208,-1.611,-1.7189,-1.9027,-2.0526,-2.1706,-2.1828,-2.1882,0.0,-2.1638,-2.1496,-2.1375,-2.1375,-2.1375,-2.1341,-2.1197,-2.1068,-2.0967,-2.0736,-2.0614,-2.0476,-2.0476,-2.0476,-2.0476,-2.0476,-2.0476,-2.0451,-2.0139,-1.9786,-1.9305,-1.8443,-1.8423,-1.8409,-1.7704,-1.7704,-1.7704,-1.7324,-1.6435,-1.5425,0.0,0.0,0.0,0.0,0.0,-1.633,-1.5908,-1.9374,-2.2653,-2.4895,-2.4804,-2.5541,-2.7852,-2.8915,-3.0413,-3.2599,-3.3328,-3.3396,-3.2641,-3.2615,-3.1978,-3.0522,-3.3987,-3.5756,-3.5923,-3.9771,-4.167,-4.179,-4.2071,-4.2218,-4.1825,-3.4929,-3.1974,-3.1853,-2.8984,-2.8752,-3.0761,-3.6124,-3.8393,-3.8555,-3.871,-3.639,-3.2979,-1.7338,-1.8599,-1.9766,-2.0295,-2.0858,-2.1319,-2.1564,-2.1903,-2.2411,-2.3151,-2.3958,-2.4452,-2.4365,-2.5179,-2.5654,-2.5577,-2.5233,-2.4847,-2.4277,-2.4229,-2.3944,-2.3361,-2.3347,-2.3117,-2.2656,-2.1706,-2.0438,0.0,-1.7704,-1.6524,-1.5343,-1.4774,-1.4489,-1.4489,-1.5215,-1.6074,-1.7081,-1.9421,-2.0794,-2.1455,-2.176,-2.1903,-2.1903,-2.1794,-2.1584,-2.1409,-2.1441,-2.1375,-2.1341,-2.1123,-2.1021,-2.0946,-2.0661,-2.0496,-2.0476,-2.0476,-2.0476,-2.0476,-2.0476,-2.0476,-2.0476,-2.0476,-2.0476,-2.0232,-1.9345,-1.9128,-1.9006,-1.8586,-1.7935,-1.7704,-1.8575,-1.7046,-1.5276,-1.4133,-1.3842,0.0,0.0,0.0,0.0,0.0,-1.9927,0.0,-2.4017,-2.4663,-2.5541,-2.7054,-2.7697,-2.8968,-3.1116,-3.0931,-3.1266,-3.2294,-3.0918,-3.0475,-3.1133,-3.3606,-3.5395,-3.6569,-3.933,-4.1035,-4.175,-4.2071,-4.2218,-4.1825,-3.4986,-3.2054,-3.1551,-2.5153,-2.4604,-2.8189,-3.1253,-3.2508,-3.2654,-3.2139,-3.2509,-3.2688,-1.8586,-1.9678,-2.058,-2.0682,-2.1672,-2.273,-2.3483,-2.3571,-2.3768,-2.4406,-2.5267,-2.5762,-2.5599,-2.5762,-2.5817,-2.5654,-2.5477,-2.5233,-2.488,-2.4738,-2.446,-2.3978,-2.3965,-2.37,-2.3117,-2.1862,-2.0594,0.0,-1.765,-1.6269,-1.5038,-1.4679,-1.438,-1.4227,-1.5059,-1.6483,-1.8244,-1.9624,-2.0668,-2.1455,-2.176,-2.195,-2.2038,-2.1774,-2.1652,-2.1618,-2.1496,-2.1375,-2.1408,-2.1231,-2.1089,-2.0967,-2.079,-2.0648,-2.0476,-2.0476,-2.0476,-2.0476,-2.0476,-2.0476,-2.0476,-2.0476,-2.0476,-2.0374,-1.9997,-1.9908,-1.982,-1.9548,-1.9115,-1.8728,-1.8287,-1.6998,-1.5737,-1.4909,-1.4753,-1.4746,0.0,0.0,0.0,0.0,-1.9795,-2.1535,-2.2222,-2.3332,-2.4726,-2.6414,-2.6867,-2.827,-3.1029,-3.1404,-3.1653,-3.2069,-3.2688,-3.3506,-3.4591,-3.2455,-3.4206,-3.9696,-3.8039,-3.8699,-4.1394,-4.1964,-4.2218,-4.1825,-3.4841,-3.1822,-3.1563,-2.7448,-2.7842,-3.1112,-3.1898,-3.2297,-3.2187,-2.9295,-3.0363,-3.2688,-2.0295,-2.0899,-2.1496,-2.195,-2.2832,-2.3748,-2.4582,-2.5036,-2.5199,-2.4948,-2.5213,-2.541,-2.5335,-2.5674,-2.5864,-2.5817,-2.5674,-2.5477,-2.5267,-2.5036,-2.4772,-2.4473,-2.4243,-2.391,-2.347,-2.2289,-2.1021,-1.9657,-1.8023,-1.6564,-1.5303,-1.476,-1.4434,-1.4353,-1.5567,-1.6959,-1.8542,-1.9732,-2.0648,-2.1367,-2.1815,-2.2038,-2.2093,-2.1862,-2.174,-2.1652,-2.1496,-2.1375,-2.1341,-2.1177,-2.1055,-2.0967,-2.0716,-2.0594,-2.0476,-2.0476,-2.0476,-2.0476,-2.0476,-2.0476,-2.0476,-2.0476,-2.0476,-2.0408,-2.0173,-2.0098,-2.001,-1.9773,-1.9413,-1.8918,-1.8023,-1.6951,-1.6083,-1.5723,-1.5276,-1.5126,-1.5377,0.0,-1.8768,0.0,0.0,0.0,-2.3694,-2.4725,-2.5381,-2.5468,-2.6172,-2.7615,-2.9922,-3.1089,-3.2437,-3.4085,-3.5239,-3.6488,-3.7817,-3.4668,-3.4725,-3.7909,-3.6873,-3.72,-3.8861,-4.1182,-4.2218,-4.1825,-3.4818,-3.1827,-3.1373,-2.6116,-2.5002,-2.6655,-2.668,-2.6897,-2.7232,-2.7351,-2.8672,-3.0055,-2.1781,-2.2161,-2.2534,-2.3239,-2.3965,-2.465,-2.5233,-2.6061,-2.6312,-2.5464,-2.5247,-2.5165,-2.5125,-2.562,-2.5952,-2.5952,-2.5796,-2.562,-2.5477,-2.5213,-2.4982,-2.4792,-2.4419,-2.4066,-2.3788,-2.2798,-2.1564,-2.0064,-1.8599,-1.7108,-1.5715,-1.5025,-1.4835,-1.5045,-1.627,-1.7534,-1.883,-1.9888,-2.0716,-2.1408,-2.1903,-2.2127,-2.2147,-2.1991,-2.1848,-2.1692,-2.155,-2.1409,-2.1341,-2.1143,-2.1021,-2.0946,-2.0627,-2.0476,-2.0476,-2.0476,-2.0476,-2.0476,-2.0476,-2.0476,-2.0476,-2.0476,-2.0476,-2.0408,-2.0173,-2.0098,-2.001,-1.9773,-1.9413,-1.8864,-1.7737,-1.71,-1.6592,-1.6307,-1.5723,-1.5411,-1.5688,-1.7633,0.0,0.0,0.0,0.0,-2.4227,-2.477,-2.4853,-2.4183,-2.5435,-2.7081,-2.9068,-3.0541,-3.2153,-3.3911,-3.5699,-3.7006,-3.7771,-3.4847,-3.411,-3.5474,-3.5418,-3.5735,-3.6512,-4.0413,-4.1825,-4.0721,-3.4496,-3.0984,-2.9172,-2.37,-2.1638,-2.1828,-2.1774,-2.1991,-2.2627,-2.5359,-2.6958,-2.7688,-2.2501,-2.3137,-2.3734,-2.3822,-2.4772,-2.5566,-2.564,-2.6291,-2.6698,-2.6468,-2.6413,-2.6359,-2.6224,-2.6149,-2.6115,-2.6115,-2.585,-2.562,-2.5477,-2.5301,-2.5091,-2.4806,-2.4616,-2.4385,-2.4087,-2.3327,-2.2201,-2.0746,-1.9325,-1.7826,-1.6239,-1.5708,-1.5893,-1.6616,-1.7114,-1.8179,-1.959,-2.0098,-2.0912,-2.1828,-2.2038,-2.2201,-2.2303,-2.2147,-2.1991,-2.1848,-2.1706,-2.1564,-2.1355,-2.1245,-2.1109,-2.0946,-2.0627,-2.0476,-2.0476,-2.0476,-2.0476,-2.0476,-2.0476,-2.0476,-2.0476,-2.0476,-2.0476,-2.0408,-2.0173,-2.0098,-2.001,-1.9773,-1.9413,-1.885,-1.767,-1.7704,-1.7528,-1.63,-1.6259,-1.6347,-1.6259,-1.8102,-1.9195,-1.8542,0.0,0.0,-2.0159,-1.9818,-2.0404,-2.2533,-2.4495,-2.6827,-2.9642,-2.9993,-2.9135,-2.7091,-3.0845,-3.216,-3.0588,-2.7825,-2.9508,-3.5474,-3.3042,-3.3447,-3.6512,-4.0413,-4.0467,-3.7269,-3.3464,-2.8211,-2.2362,-2.1858,-2.1672,-2.1726,-2.1971,-2.2093,-2.2147,-2.2606,-2.4897,-2.7688,-2.3877,-2.3965,-2.4229,-2.486,-2.5213,-2.5599,-2.6135,-2.6556,-2.6787,-2.6712,-2.6624,-2.6556,-2.6502,-2.6359,-2.6271,-2.6271,-2.6081,-2.5884,-2.5742,-2.5498,-2.5267,-2.507,-2.4826,-2.4562,-2.4263,-2.3612,-2.2676,-2.1441,-2.0147,-1.8816,-1.7629,-1.7005,-1.706,-1.7724,-1.8443,-1.9257,-2.0098,-2.0824,-2.1421,-2.1903,-2.2147,-2.222,-2.2323,-2.216,-2.2025,-2.1862,-2.1726,-2.1564,-2.1355,-2.1265,-2.1123,-2.098,-2.0858,-2.0682,-2.0496,-2.0648,-2.0614,-2.0476,-2.0476,-2.0476,-2.0476,-2.0476,-2.0476,-2.0408,-2.0173,-2.0098,-2.001,-1.9773,-1.9413,-1.9006,-1.8342,-1.7935,-1.7629,-1.7453,-1.6917,-1.6625,-1.6931,-1.7335,0.0,-1.8858,0.0,-1.8876,-2.0249,-1.9824,-2.0588,-2.3336,-2.4595,-2.6306,-2.8767,-2.7826,-2.7451,-2.8013,-2.9084,-2.9574,-2.935,-2.6819,-2.6833,-2.9508,-2.8702,-2.9007,-3.0427,-3.4192,-3.5204,-3.3787,-3.2399,-2.9032,-2.4388,-2.2458,-2.1726,-2.1815,-2.1937,-2.2093,-2.2448,-2.4639,-2.6377,-2.7996,-2.4935,-2.4806,-2.4914,-2.5796,-2.5817,-2.5905,-2.6536,-2.6732,-2.68,-2.68,-2.6712,-2.6644,-2.6644,-2.6502,-2.6434,-2.6434,-2.6237,-2.6061,-2.5918,-2.5674,-2.5443,-2.5233,-2.4982,-2.4718,-2.4419,-2.391,-2.3171,-2.2215,-2.1034,-1.9997,-1.9056,-1.8443,-1.8464,-1.9081,-1.98,-2.0383,-2.0892,-2.153,-2.1903,-2.2093,-2.2269,-2.2268,-2.2323,-2.2215,-2.2079,-2.1937,-2.1781,-2.1638,-2.1475,-2.1333,-2.1177,-2.1055,-2.1021,-2.0824,-2.0627,-2.0736,-2.0668,-2.0476,-2.0476,-2.0476,-2.0476,-2.0476,-2.0476,-2.0471,-2.0227,-2.0139,-1.9997,-1.961,-1.9359,-1.9094,-1.8762,-1.8179,-1.7806,-1.8023,-1.7325,-1.6885,-1.7135,-1.6693,0.0,-1.8281,-1.7687,-1.7681,-1.883,-1.8932,-1.9888,-2.2065,-2.3346,-2.5523,-2.8908,-2.6994,-2.6551,-2.8293,-2.8147,-2.7945,-2.7824,-2.6265,-2.5479,-2.5542,-2.5986,-2.6228,-2.6365,-3.0096,-3.1827,-3.1762,-3.0734,-2.8855,-2.633,-2.3058,-2.176,-2.1882,-2.1937,-2.2113,-2.2593,-2.5049,-2.602,-2.6458,-2.5376,-2.5694,-2.6027,-2.6488,-2.6678,-2.6787,-2.68,-2.68,-2.68,-2.68,-2.68,-2.68,-2.68,-2.6664,-2.6576,-2.6576,-2.6305,-2.6061,-2.5918,-2.5762,-2.5552,-2.5247,-2.5091,-2.488,-2.4562,-2.4263,-2.3748,-2.2995,-2.2235,-2.1408,-2.0442,-2.0051,-2.0173,-2.0756,-2.1055,-2.153,-2.2093,-2.2093,-2.2269,-2.2534,-2.2391,-2.2268,-2.2268,-2.2268,-2.2235,-2.2093,-2.1937,-2.1794,-2.1652,-2.1496,-2.1333,-2.1177,-2.1055,-2.0892,-2.077,-2.077,-2.0668,-2.0476,-2.0476,-2.0476,-2.0476,-2.0476,-2.0476,-2.0442,-2.03,-2.0207,-1.9922,-1.9325,-1.9203,-1.9061,-1.8562,-1.8474,-1.8231,-1.7548,-1.7494,-1.7379,-1.679,-1.6446,0.0,-1.5991,-1.4983,-1.4404,-1.454,-1.5875,-1.6976,-1.7532,-2.0061,-2.4372,-3.0802,-2.8314,-2.653,-2.6179,-2.754,-2.7141,-2.47,-2.5223,-2.5479,-2.5542,-2.5986,-2.6228,-2.6365,-3.0096,-3.1827,-3.1587,-2.8137,-2.6649,-2.633,-2.3058,-2.176,-2.1903,-2.2038,-2.2201,-2.2337,-2.2344,-2.2344,-2.2344,-2.6169,-2.6291,-2.6434,-2.6678,-2.6766,-2.68,-2.68,-2.68,-2.68,-2.68,-2.68,-2.68,-2.68,-2.6664,-2.6576,-2.6576,-2.6305,-2.6115,-2.6061,-2.583,-2.5599,-2.5389,-2.5247,-2.4969,-2.4638,-2.4365,-2.4053,-2.3612,-2.2764,-2.1991,-2.1319,-2.1265,-2.1408,-2.1706,-2.1991,-2.2235,-2.2481,-2.252,-2.2622,-2.271,-2.2656,-2.2567,-2.2479,-2.2479,-2.2323,-2.2113,-2.2059,-2.1882,-2.1672,-2.1618,-2.1496,-2.1353,-2.1319,-2.1123,-2.0933,-2.0933,-2.0824,-2.0682,-2.051,-2.0476,-2.0476,-2.0476,-2.0476,-2.0442,-2.03,-2.0139,-1.9834,-1.9434,-1.9271,-1.9128,-1.8884,-1.8674,-1.8366,-1.8091,-1.7771,-1.7494,-1.7196,-1.6686,-1.6307,-1.6307,-1.5662,-1.5181,-1.5228,-1.5508,-1.6469,-1.8455,-1.8988,-2.1686,-2.7213,-2.4261,-2.324,-2.5147,-2.3274,-2.1945,-2.126,-2.1782,-2.2162,-2.2279,-2.2555,-2.2717,-2.3046,-2.6647,-2.9563,-3.1762,-3.0659,-3.1513,-3.3464,-3.0107,-2.7426,-2.5337,-2.5563,-2.423,-2.2201,-2.2303,-2.2268,-2.2268,-2.6556,-2.6624,-2.6698,-2.6787,-2.68,-2.68,-2.68,-2.68,-2.68,-2.68,-2.68,-2.68,-2.68,-2.6624,-2.6536,-2.6644,-2.6393,-2.6217,-2.6217,-2.5939,-2.5674,-2.5477,-2.5376,-2.5077,-2.4582,-2.4473,-2.4243,-2.389,-2.3171,-2.2642,-2.2344,-2.2323,-2.2391,-2.2534,-2.273,-2.2798,-2.2798,-2.2852,-2.2873,-2.2873,-2.2798,-2.273,-2.2642,-2.2644,-2.2445,-2.2269,-2.2147,-2.1991,-2.1815,-2.1706,-2.1597,-2.1509,-2.1389,-2.1319,-2.1157,-2.1089,-2.0933,-2.0756,-2.0648,-2.058,-2.0476,-2.0476,-2.0476,-2.0442,-2.03,-2.0139,-1.9875,-1.9569,-1.9345,-1.9169,-1.9006,-1.8782,-1.8552,-1.8355,-1.7982,-1.7629,-1.7372,-1.6836,-1.6418,-1.6442,-1.6067,-1.5796,-1.573,-1.575,-1.6418,-1.7982,-1.8213,-2.0038,-2.414,-2.1945,-2.1661,-2.4183,-2.1282,-1.9786,-1.9997,-2.03,-2.0614,-2.077,-2.098,-2.1211,-2.1508,-2.5016,-2.8529,-3.1827,-3.1827,-3.3787,-3.6628,-3.1988,-2.8819,-2.6855,-2.563,-2.399,-2.2201,-2.2235,-2.2289,-2.2268,-2.659,-2.6698,-2.68,-2.68,-2.68,-2.68,-2.68,-2.68,-2.68,-2.68,-2.68,-2.68,-2.68,-2.6556,-2.6488,-2.6766,-2.6502,-2.6407,-2.6407,-2.6061,-2.5776,-2.5477,-2.5464,-2.5257,-2.4596,-2.4562,-2.4351,-2.389,-2.347,-2.3347,-2.3397,-2.3171,-2.3117,-2.3239,-2.3219,-2.3219,-2.3219,-2.3083,-2.3029,-2.3008,-2.2873,-2.2798,-2.2784,-2.2712,-2.2644,-2.259,-2.2235,-2.2127,-2.2072,-2.1794,-2.1692,-2.1652,-2.1509,-2.1389,-2.1341,-2.1265,-2.1021,-2.0811,-2.079,-2.0682,-2.0496,-2.0496,-2.0539,-2.0442,-2.03,-2.0227,-2.0031,-1.9793,-1.9434,-1.9183,-1.9027,-1.8929,-1.8711,-1.8355,-1.8057,-1.7738,-1.7256,-1.6944,-1.6615,-1.6402,-1.6381,-1.6273,-1.6037,-1.6476,-1.6696,-1.6578,-1.7616,-1.9245,-2.1595,-2.0983,-2.1439,-2.3263,-2.1246,-2.0261,-2.0476,-2.0496,-2.0648,-2.0811,-2.1089,-2.1299,-2.1508,-2.476,-2.8137,-3.1438,-3.1438,-3.3389,-3.6168,-2.9628,-2.6984,-2.6755,-2.3382,-2.2147,-2.2289,-2.216,-2.2215,-2.2268,-2.6746,-2.6787,-2.68,-2.68,-2.68,-2.68,-2.68,-2.68,-2.68,-2.68,-2.68,-2.68,-2.68,-2.6644,-2.6556,-2.6624,-2.6257,-2.6006,-2.6006,-2.5939,-2.5776,-2.5477,-2.5464,-2.5233,-2.4758,-2.4616,-2.4351,-2.389,-2.3788,-2.37,-2.3626,-2.3436,-2.3289,-2.3323,-2.3273,-2.3219,-2.3219,-2.3185,-2.3171,-2.3171,-2.313,-2.3049,-2.2961,-2.292,-2.2764,-2.2603,-2.2479,-2.2303,-2.2093,-2.2025,-2.1862,-2.1686,-2.176,-2.1618,-2.1341,-2.1265,-2.1157,-2.1089,-2.098,-2.0845,-2.0716,-2.0716,-2.0627,-2.0442,-2.03,-2.0295,-2.0187,-1.9888,-1.9739,-1.9468,-1.9203,-1.8938,-1.8677,-1.8213,-1.7894,-1.7582,-1.7243,-1.7039,-1.6937,-1.6978,-1.7087,-1.7127,-1.7053,-1.723,-1.727,-1.7053,-1.7405,-1.8019,-1.8963,-1.9277,-2.0646,-2.3351,-2.1352,-2.03,-2.0476,-2.0668,-2.0845,-2.1109,-2.1299,-2.1341,-2.1441,-2.223,-2.4512,-2.7819,-2.7819,-2.9814,-3.2927,-3.1233,-2.9041,-2.6661,-2.6047,-2.4232,-2.2025,-2.2215,-2.2303,-2.2268,-2.68,-2.68,-2.68,-2.68,-2.68,-2.68,-2.68,-2.68,-2.68,-2.68,-2.68,-2.68,-2.68,-2.661,-2.6488,-2.6488,-2.6183,-2.6006,-2.6006,-2.5884,-2.5708,-2.5477,-2.5389,-2.5179,-2.4792,-2.4704,-2.4473,-2.41,-2.4033,-2.3924,-2.3768,-2.3558,-2.3377,-2.3377,-2.3293,-2.3219,-2.3219,-2.3219,-2.3219,-2.3219,-2.3219,-2.3171,-2.3097,-2.3029,-2.2873,-2.2712,-2.2644,-2.2411,-2.2201,-2.2127,-2.2004,-2.1862,-2.1882,-2.1774,-2.1618,-2.1462,-2.1319,-2.1197,-2.1123,-2.098,-2.0858,-2.079,-2.0648,-2.0462,-2.0438,-2.032,-2.0275,-2.0119,-1.9854,-1.9671,-1.9447,-1.9061,-1.8698,-1.8253,-1.7839,-1.7467,-1.7148,-1.7087,-1.7161,-1.7372,-1.7595,-1.7772,-1.7914,-1.8124,-1.8145,-1.7826,-1.8145,-1.8443,-1.8687,-1.9203,-2.0246,-2.1828,-2.0893,-2.0492,-2.0648,-2.0858,-2.1055,-2.1211,-2.1367,-2.1375,-2.1375,-2.1375,-2.3332,-2.6583,-2.6583,-2.8649,-3.1783,-3.0236,-2.851,-2.6772,-2.5306,-2.3631,-2.2113,-2.2201,-2.222,-2.2268,-2.68,-2.68,-2.68,-2.68,-2.68,-2.68,-2.68,-2.68,-2.68,-2.68,-2.68,-2.6787,-2.6766,-2.6522,-2.6427,-2.6325,-2.6183,-2.6095,-2.6095,-2.5864,-2.564,-2.5543,-2.5335,-2.5125,-2.4826,-2.4806,-2.465,-2.4276,-2.4229,-2.4087,-2.3924,-2.3646,-2.3431,-2.3411,-2.3255,-2.3239,-2.3219,-2.3219,-2.3219,-2.3219,-2.3219,-2.3219,-2.3205,-2.3083,-2.294,-2.2798,-2.2712,-2.25,-2.2337,-2.2201,-2.2127,-2.2093,-2.1991,-2.1916,-2.1862,-2.176,-2.153,-2.1285,-2.1245,-2.1123,-2.0967,-2.0811,-2.0648,-2.0476,-2.0476,-2.0388,-2.0349,-2.0329,-2.0031,-1.9752,-1.9739,-1.9262,-1.8708,-1.8321,-1.7935,-1.746,-1.7046,-1.7182,-1.7433,-1.7663,-1.8036,-1.8335,-1.864,-1.8884,-1.8938,-1.8742,-1.9183,-1.9481,-1.9475,-1.9908,-2.0085,-1.9976,-2.0363,-2.0668,-2.0845,-2.1089,-2.1231,-2.1245,-2.1367,-2.1389,-2.1475,-2.1475,-2.3046,-2.5886,-2.5886,-2.7684,-3.0324,-2.7377,-2.6287,-2.6143,-2.3089,-2.2079,-2.2289,-2.2181,-2.2235,-2.2268,-2.68,-2.68,-2.68,-2.68,-2.68,-2.68,-2.68,-2.68,-2.68,-2.68,-2.68,-2.6746,-2.6624,-2.6468,-2.6312,-2.6183,-2.6027,-2.5939,-2.5939,-2.5905,-2.5742,-2.5477,-2.5443,-2.5287,-2.4982,-2.486,-2.465,-2.4276,-2.4256,-2.4168,-2.4087,-2.391,-2.3754,-2.3646,-2.3483,-2.3347,-2.3219,-2.3219,-2.3219,-2.3219,-2.3219,-2.3219,-2.3219,-2.3205,-2.3097,-2.2961,-2.2798,-2.2712,-2.25,-2.2357,-2.2215,-2.2127,-2.2235,-2.2093,-2.1903,-2.2004,-2.1828,-2.1564,-2.1441,-2.1211,-2.0967,-2.0811,-2.0648,-2.0476,-2.0476,-2.0462,-2.0471,-2.0349,-2.0275,-2.0119,-1.9732,-1.9379,-1.8871,-1.8113,-1.788,-1.7629,-1.706,-1.7541,-1.8023,-1.8199,-1.8586,-1.8972,-1.9257,-1.9217,-1.9305,-1.9644,-1.9644,-1.9732,-1.9976,-2.0187,-2.0329,-2.0374,-2.0627,-2.0858,-2.1143,-2.1197,-2.1279,-2.1341,-2.1421,-2.1509,-2.1638,-2.1638,-2.2035,-2.261,-2.261,-2.2961,-2.3447,-2.2908,-2.2666,-2.2669,-2.2236,-2.2113,-2.216,-2.22,-2.2254,-2.2268,-2.68,-2.68,-2.68,-2.68,-2.68,-2.68,-2.68,-2.68,-2.68,-2.68,-2.6732,-2.6644,-2.6576,-2.638,-2.6203,-2.6129,-2.5993,-2.5905,-2.5905,-2.583,-2.5694,-2.5477,-2.5389,-2.5233,-2.5023,-2.4948,-2.4806,-2.4582,-2.4507,-2.4385,-2.4168,-2.3999,-2.3822,-2.368,-2.3524,-2.3361,-2.3219,-2.3219,-2.3219,-2.3219,-2.3219,-2.3219,-2.3219,-2.3219,-2.313,-2.2995,-2.292,-2.2798,-2.2656,-2.25,-2.2411,-2.2344,-2.2337,-2.2235,-2.2127,-2.2113,-2.1903,-2.1638,-2.1475,-2.1279,-2.1089,-2.1021,-2.0845,-2.0668,-2.0668,-2.0594,-2.0462,-2.0388,-2.032,-2.0261,-2.0064,-1.9644,-1.9183,-1.8776,-1.8301,-1.7914,-1.7724,-1.8002,-1.8335,-1.864,-1.9081,-1.9468,-1.9766,-1.9732,-1.9766,-1.9976,-1.9942,-1.9997,-2.0207,-2.0295,-2.0438,-2.0668,-2.0892,-2.1068,-2.1211,-2.1374,-2.1496,-2.1564,-2.1638,-2.1726,-2.1781,-2.1781,-2.1815,-2.1882,-2.1882,-2.1937,-2.2004,-2.2004,-2.2059,-2.2127,-2.2201,-2.2235,-2.2235,-2.2254,-2.2268,-2.2268,-2.68,-2.68,-2.68,-2.68,-2.68,-2.68,-2.68,-2.68,-2.68,-2.68,-2.6698,-2.661,-2.6576,-2.6346,-2.6169,-2.6129,-2.5993,-2.5905,-2.5905,-2.5796,-2.5654,-2.5543,-2.5287,-2.5125,-2.5023,-2.5023,-2.4948,-2.4792,-2.467,-2.4528,-2.4276,-2.41,-2.389,-2.368,-2.3558,-2.3395,-2.3219,-2.3219,-2.3219,-2.3219,-2.3219,-2.3219,-2.3219,-2.3219,-2.3151,-2.3063,-2.3029,-2.294,-2.2818,-2.2656,-2.2678,-2.2588,-2.2432,-2.2391,-2.2357,-2.2215,-2.1971,-2.174,-2.155,-2.1353,-2.1211,-2.1211,-2.1021,-2.0824,-2.0824,-2.0736,-2.0627,-2.0594,-2.0505,-2.0417,-2.0286,-1.9922,-1.9535,-1.9359,-1.8776,-1.8355,-1.8375,-1.8498,-1.8728,-1.9094,-1.9522,-1.9875,-2.0139,-2.0153,-2.0173,-2.0207,-2.0207,-2.0275,-2.0417,-2.0438,-2.056,-2.0858,-2.1089,-2.1245,-2.1319,-2.155,-2.1692,-2.1726,-2.1828,-2.1903,-2.1937,-2.1937,-2.195,-2.1991,-2.1991,-2.2059,-2.216,-2.216,-2.2235,-2.2268,-2.2268,-2.2268,-2.2268,-2.2268,-2.2268,-2.2268,-2.68,-2.68,-2.68,-2.68,-2.68,-2.68,-2.68,-2.68,-2.68,-2.68,-2.6787,-2.6732,-2.659,-2.6434,-2.6291,-2.6149,-2.5993,-2.5905,-2.5905,-2.5884,-2.5762,-2.5477,-2.5199,-2.5036,-2.5023,-2.5023,-2.4948,-2.4792,-2.4772,-2.4629,-2.4276,-2.4256,-2.4087,-2.368,-2.3666,-2.3503,-2.3219,-2.3219,-2.3219,-2.3219,-2.3219,-2.3219,-2.3219,-2.3219,-2.3219,-2.3185,-2.3063,-2.3008,-2.2974,-2.2818,-2.2764,-2.2744,-2.2588,-2.2603,-2.252,-2.2357,-2.2201,-2.2025,-2.1726,-2.1441,-2.1211,-2.1211,-2.1089,-2.098,-2.098,-2.098,-2.0933,-2.079,-2.0756,-2.0648,-2.0383,-2.0173,-1.982,-1.9128,-1.9081,-1.8972,-1.8565,-1.8993,-1.9413,-1.959,-1.9888,-2.0139,-2.0295,-2.0315,-2.0363,-2.0442,-2.0442,-2.058,-2.0736,-2.0736,-2.0878,-2.1177,-2.1197,-2.1353,-2.1638,-2.1719,-2.174,-2.1862,-2.1882,-2.195,-2.2093,-2.2093,-2.216,-2.2303,-2.2303,-2.2303,-2.2323,-2.2323,-2.2323,-2.2268,-2.2268,-2.2268,-2.2268,-2.2268,-2.2268,-2.2268,-2.68,-2.68,-2.68,-2.68,-2.68,-2.68,-2.68,-2.68,-2.68,-2.68,-2.6712,-2.6644,-2.6576,-2.6359,-2.6203,-2.6129,-2.5993,-2.5905,-2.5905,-2.5905,-2.5776,-2.5477,-2.5179,-2.5023,-2.5023,-2.5023,-2.4982,-2.4935,-2.4738,-2.4596,-2.4473,-2.4297,-2.4066,-2.3802,-2.3714,-2.3558,-2.3289,-2.3259,-2.3219,-2.3219,-2.3219,-2.3219,-2.3219,-2.3219,-2.3219,-2.3219,-2.3171,-2.313,-2.3117,-2.2974,-2.292,-2.2907,-2.2744,-2.2696,-2.2656,-2.252,-2.2303,-2.2093,-2.1971,-2.1726,-2.1475,-2.1374,-2.1245,-2.1123,-2.1123,-2.1068,-2.098,-2.0933,-2.0912,-2.0878,-2.077,-2.0539,-2.0315,-2.0119,-1.9752,-1.9488,-1.9501,-1.9624,-1.9766,-1.9908,-2.0187,-2.0397,-2.0388,-2.0388,-2.0526,-2.0668,-2.0682,-2.0756,-2.0912,-2.1001,-2.1143,-2.1353,-2.1441,-2.155,-2.1672,-2.1848,-2.1971,-2.2025,-2.2127,-2.2201,-2.2249,-2.2249,-2.222,-2.2268,-2.2268,-2.2268,-2.2268,-2.2268,-2.2268,-2.2268,-2.2268,-2.2268,-2.2268,-2.2268,-2.2268,-2.2268,-2.68,-2.68,-2.68,-2.68,-2.68,-2.68,-2.68,-2.68,-2.68,-2.68,-2.6712,-2.6624,-2.6576,-2.6346,-2.6183,-2.6129,-2.5993,-2.5905,-2.5905,-2.5864,-2.5728,-2.5477,-2.5213,-2.507,-2.5023,-2.5023,-2.5023,-2.5023,-2.4758,-2.4616,-2.4562,-2.4317,-2.4087,-2.389,-2.3788,-2.3646,-2.3377,-2.3275,-2.3273,-2.3219,-2.3219,-2.3219,-2.3219,-2.3219,-2.3219,-2.3219,-2.3219,-2.3219,-2.3205,-2.3117,-2.3083,-2.3049,-2.2907,-2.2818,-2.2744,-2.2608,-2.2411,-2.2235,-2.2201,-2.2004,-2.1774,-2.1618,-2.1496,-2.1408,-2.1374,-2.1285,-2.1177,-2.1089,-2.1068,-2.1055,-2.1001,-2.0824,-2.0702,-2.0756,-2.0349,-2.0085,-2.0275,-2.0227,-2.0207,-2.0363,-2.056,-2.0682,-2.0682,-2.0682,-2.0736,-2.0845,-2.0845,-2.0933,-2.1123,-2.1285,-2.1421,-2.1584,-2.1726,-2.1815,-2.1815,-2.2004,-2.2127,-2.2181,-2.2289,-2.2357,-2.2411,-2.2411,-2.2411,-2.2411,-2.2466,-2.2445,-2.2411,-2.2466,-2.2479,-2.2479,-2.2425,-2.2411,-2.2391,-2.2288,-2.2268,-2.2268,-2.68,-2.68,-2.68,-2.68,-2.68,-2.68,-2.68,-2.68,-2.68,-2.68,-2.68,-2.6746,-2.659,-2.6447,-2.6291,-2.6149,-2.5993,-2.5905,-2.5905,-2.5776,-2.562,-2.5543,-2.5321,-2.5159,-2.5023,-2.5023,-2.5023,-2.5023,-2.486,-2.4704,-2.4562,-2.4419,-2.4189,-2.389,-2.389,-2.3734,-2.3377,-2.3377,-2.3289,-2.3219,-2.3219,-2.3219,-2.3219,-2.3219,-2.3219,-2.3219,-2.3219,-2.3219,-2.3219,-2.3219,-2.3219,-2.3205,-2.3063,-2.2907,-2.2744,-2.2608,-2.2624,-2.259,-2.2378,-2.2235,-2.2079,-2.1916,-2.1882,-2.1848,-2.1706,-2.1672,-2.1584,-2.1285,-2.1211,-2.1177,-2.1034,-2.1001,-2.0946,-2.0804,-2.077,-2.077,-2.077,-2.077,-2.0824,-2.098,-2.1001,-2.1001,-2.1001,-2.1001,-2.1001,-2.1001,-2.1001,-2.1143,-2.1421,-2.1584,-2.174,-2.1882,-2.2038,-2.2113,-2.2113,-2.2113,-2.2181,-2.2268,-2.2268,-2.2411,-2.2624,-2.2624,-2.2624,-2.2624,-2.271,-2.2696,-2.2644,-2.271,-2.2784,-2.2764,-2.2678,-2.2624,-2.2534,-2.2391,-2.2268,-2.2268,-2.68,-2.68,-2.68,-2.68,-2.68,-2.68,-2.68,-2.68,-2.68,-2.68,-2.6712,-2.6624,-2.6576,-2.6346,-2.6183,-2.6129,-2.5993,-2.5905,-2.5905,-2.5864,-2.5728,-2.5477,-2.5321,-2.5213,-2.5159,-2.507,-2.5023,-2.5023,-2.4758,-2.4616,-2.4562,-2.4317,-2.4141,-2.4053,-2.3944,-2.3788,-2.3612,-2.3431,-2.3289,-2.3219,-2.3219,-2.3219,-2.3219,-2.3219,-2.3219,-2.3219,-2.3219,-2.3219,-2.3219,-2.3219,-2.3219,-2.3219,-2.3171,-2.3063,-2.294,-2.2886,-2.2798,-2.271,-2.2656,-2.2622,-2.25,-2.2127,-2.1971,-2.1862,-2.1828,-2.1815,-2.176,-2.1564,-2.153,-2.1496,-2.1333,-2.1231,-2.1143,-2.1089,-2.1001,-2.0933,-2.0933,-2.0933,-2.0946,-2.1001,-2.1001,-2.1001,-2.1001,-2.1001,-2.1034,-2.1143,-2.1353,-2.1509,-2.1597,-2.174,-2.1882,-2.2038,-2.2201,-2.2323,-2.2481,-2.2323,-2.2289,-2.2268,-2.2445,-2.2466,-2.2411,-2.2622,-2.2656,-2.2624,-2.2608,-2.2656,-2.271,-2.2712,-2.2692,-2.2692,-2.2644,-2.25,-2.2391,-2.2288,-2.2268,-2.2268,-2.68,-2.68,-2.68,-2.68,-2.68,-2.68,-2.68,-2.68,-2.6787,-2.6712,-2.6624,-2.6522,-2.6413,-2.6237,-2.6115,-2.604,-2.5952,-2.5905,-2.5905,-2.5905,-2.5796,-2.5566,-2.541,-2.5267,-2.5145,-2.5057,-2.5023,-2.5023,-2.4772,-2.4616,-2.4562,-2.4317,-2.4175,-2.4121,-2.4019,-2.3877,-2.368,-2.3571,-2.3415,-2.3219,-2.3219,-2.3219,-2.3219,-2.3219,-2.3219,-2.3219,-2.3219,-2.3219,-2.3219,-2.3219,-2.3219,-2.3219,-2.3219,-2.3171,-2.3083,-2.3029,-2.294,-2.2873,-2.2873,-2.2832,-2.273,-2.252,-2.2303,-2.2133,-2.2079,-2.2025,-2.1937,-2.1781,-2.176,-2.1726,-2.1638,-2.155,-2.1462,-2.1408,-2.1374,-2.1333,-2.1265,-2.1265,-2.1285,-2.1333,-2.1299,-2.1265,-2.1265,-2.1319,-2.1387,-2.1475,-2.1652,-2.1774,-2.1848,-2.1916,-2.2079,-2.2289,-2.2378,-2.25,-2.2712,-2.2554,-2.2479,-2.2432,-2.252,-2.2534,-2.252,-2.2764,-2.2818,-2.273,-2.2798,-2.2832,-2.2873,-2.2832,-2.2818,-2.2818,-2.2764,-2.2676,-2.2601,-2.2534,-2.2479,-2.2432,-2.68,-2.68,-2.68,-2.68,-2.6787,-2.6787,-2.68,-2.6787,-2.6712,-2.659,-2.6556,-2.6434,-2.6162,-2.6115,-2.6061,-2.5918,-2.5905,-2.5905,-2.5905,-2.5905,-2.583,-2.5694,-2.5552,-2.5321,-2.5036,-2.5023,-2.5023,-2.5023,-2.486,-2.4724,-2.4562,-2.4419,-2.4263,-2.4121,-2.4121,-2.3965,-2.37,-2.37,-2.3524,-2.3239,-2.3239,-2.3239,-2.3219,-2.3219,-2.3219,-2.3219,-2.3219,-2.3219,-2.3219,-2.3219,-2.3219,-2.3219,-2.3219,-2.3219,-2.3205,-2.3063,-2.3029,-2.3029,-2.3029,-2.292,-2.2852,-2.2995,-2.2818,-2.2554,-2.2411,-2.2255,-2.2113,-2.195,-2.1916,-2.1903,-2.1882,-2.1882,-2.1848,-2.1706,-2.1794,-2.1828,-2.1706,-2.1692,-2.174,-2.1862,-2.1774,-2.1692,-2.1692,-2.1815,-2.1882,-2.1882,-2.1903,-2.1971,-2.2113,-2.2127,-2.2269,-2.2624,-2.2588,-2.2656,-2.2798,-2.2798,-2.273,-2.2644,-2.2658,-2.2656,-2.2784,-2.2961,-2.3029,-2.3008,-2.3151,-2.313,-2.3042,-2.3151,-2.3205,-2.3185,-2.3063,-2.3008,-2.2974,-2.2832,-2.2696,-2.2644,-2.68,-2.68,-2.68,-2.68,-2.6698,-2.6664,-2.6787,-2.661,-2.6488,-2.6556,-2.638,-2.6203,-2.6129,-2.6027,-2.5939,-2.5905,-2.5905,-2.5905,-2.5905,-2.5905,-2.583,-2.5694,-2.5552,-2.5376,-2.5199,-2.507,-2.5023,-2.5023,-2.486,-2.4724,-2.4562,-2.4419,-2.4263,-2.4121,-2.4121,-2.4012,-2.3843,-2.3843,-2.368,-2.3323,-2.3323,-2.3255,-2.3219,-2.3219,-2.3219,-2.3219,-2.3219,-2.3219,-2.3219,-2.3219,-2.3219,-2.3219,-2.3219,-2.3219,-2.3219,-2.3185,-2.3171,-2.3171,-2.3171,-2.3151,-2.313,-2.3171,-2.3042,-2.2873,-2.273,-2.2567,-2.2411,-2.2269,-2.2147,-2.2025,-2.1903,-2.1882,-2.1862,-2.1848,-2.1862,-2.1862,-2.1848,-2.1828,-2.1848,-2.1882,-2.1848,-2.1828,-2.1828,-2.1862,-2.1882,-2.1882,-2.1991,-2.2079,-2.2113,-2.2323,-2.2556,-2.2624,-2.2784,-2.292,-2.2961,-2.2961,-2.2886,-2.273,-2.2852,-2.2873,-2.2798,-2.3063,-2.3117,-2.3008,-2.3042,-2.3097,-2.3171,-2.3083,-2.3063,-2.3049,-2.3029,-2.294,-2.2832,-2.2798,-2.2764,-2.271,-2.68,-2.6746,-2.6712,-2.6787,-2.6624,-2.6522,-2.6678,-2.6502,-2.6359,-2.6359,-2.6217,-2.6095,-2.6027,-2.5952,-2.5905,-2.5905,-2.5905,-2.5905,-2.5905,-2.5905,-2.5817,-2.5586,-2.5577,-2.5355,-2.5145,-2.5057,-2.5023,-2.5023,-2.4935,-2.4792,-2.4562,-2.4494,-2.4331,-2.4121,-2.4121,-2.4033,-2.389,-2.389,-2.3768,-2.3558,-2.3558,-2.347,-2.3347,-2.3415,-2.3395,-2.3327,-2.3327,-2.3221,-2.3219,-2.3219,-2.3219,-2.3219,-2.3219,-2.3219,-2.3219,-2.3219,-2.3219,-2.3219,-2.3219,-2.3219,-2.3219,-2.3219,-2.3171,-2.3083,-2.292,-2.2764,-2.2642,-2.2567,-2.2479,-2.2411,-2.2323,-2.2255,-2.2181,-2.2113,-2.2093,-2.2079,-2.2004,-2.1991,-2.2025,-2.2093,-2.2038,-2.2025,-2.2093,-2.2038,-2.2025,-2.2093,-2.2235,-2.2323,-2.2323,-2.2534,-2.2696,-2.2764,-2.292,-2.3042,-2.3117,-2.3117,-2.3063,-2.2995,-2.3008,-2.2974,-2.2907,-2.3117,-2.3185,-2.3117,-2.3117,-2.3151,-2.3219,-2.313,-2.3117,-2.3117,-2.3117,-2.3063,-2.2995,-2.2995,-2.294,-2.2873,-2.68,-2.6678,-2.661,-2.6746,-2.6522,-2.638,-2.6522,-2.64,-2.6237,-2.6149,-2.6115,-2.604,-2.5918,-2.5905,-2.5905,-2.5905,-2.5905,-2.5905,-2.5905,-2.5905,-2.5783,-2.5518,-2.5477,-2.5342,-2.5057,-2.5036,-2.5023,-2.5023,-2.5023,-2.488,-2.4596,-2.4582,-2.4419,-2.4155,-2.4141,-2.4053,-2.3931,-2.3931,-2.3856,-2.3714,-2.3714,-2.3626,-2.3503,-2.3626,-2.3612,-2.3483,-2.3483,-2.3323,-2.3259,-2.3259,-2.3239,-2.3219,-2.3219,-2.3219,-2.3219,-2.3219,-2.3219,-2.3219,-2.3219,-2.3219,-2.3219,-2.3219,-2.3219,-2.3185,-2.3083,-2.292,-2.2818,-2.2818,-2.2798,-2.2784,-2.2784,-2.2676,-2.2554,-2.2425,-2.2411,-2.2357,-2.2201,-2.2215,-2.2269,-2.2357,-2.2289,-2.2269,-2.2342,-2.2303,-2.2269,-2.2411,-2.252,-2.2658,-2.2658,-2.273,-2.2886,-2.3008,-2.3029,-2.3097,-2.3219,-2.3219,-2.3219,-2.3219,-2.3097,-2.3042,-2.3049,-2.3171,-2.3219,-2.3219,-2.3219,-2.3219,-2.3219,-2.3219,-2.3219,-2.3219,-2.3219,-2.3219,-2.3219,-2.3219,-2.313,-2.2995,-2.68,-2.6678,-2.6576,-2.661,-2.6359,-2.6217,-2.6359,-2.6149,-2.6006,-2.6115,-2.6006,-2.5918,-2.5905,-2.5905,-2.5905,-2.5905,-2.5905,-2.5905,-2.5905,-2.5905,-2.583,-2.5674,-2.5532,-2.5376,-2.5213,-2.5091,-2.5023,-2.5023,-2.5023,-2.4935,-2.4758,-2.4636,-2.4473,-2.4235,-2.4175,-2.41,-2.4087,-2.4087,-2.3999,-2.3856,-2.3856,-2.3788,-2.3646,-2.368,-2.3666,-2.3646,-2.3646,-2.3558,-2.3343,-2.3343,-2.3327,-2.3219,-2.3219,-2.3219,-2.3219,-2.3219,-2.3219,-2.3219,-2.3219,-2.3219,-2.3219,-2.3219,-2.3219,-2.3219,-2.3205,-2.3083,-2.2974,-2.2974,-2.2873,-2.2784,-2.2784,-2.2764,-2.2744,-2.273,-2.273,-2.2676,-2.252,-2.2608,-2.2656,-2.2534,-2.2622,-2.2696,-2.273,-2.271,-2.2696,-2.273,-2.2744,-2.2744,-2.2744,-2.2907,-2.2995,-2.3008,-2.313,-2.3205,-2.3219,-2.3219,-2.3219,-2.3219,-2.3205,-2.3185,-2.3185,-2.3219,-2.3219,-2.3219,-2.3219,-2.3219,-2.3219,-2.3219,-2.3219,-2.3219,-2.3219,-2.3219,-2.3219,-2.3219,-2.313,-2.3008,-2.6698,-2.6556,-2.6447,-2.6447,-2.6203,-2.6061,-2.6203,-2.604,-2.5918,-2.5993,-2.5939,-2.5905,-2.5905,-2.5905,-2.5905,-2.5905,-2.5905,-2.5905,-2.5905,-2.5905,-2.5796,-2.5566,-2.5498,-2.5355,-2.5125,-2.5057,-2.5023,-2.5023,-2.5023,-2.4948,-2.4792,-2.4724,-2.4562,-2.4276,-2.4202,-2.4134,-2.4121,-2.4121,-2.4087,-2.4012,-2.4012,-2.3931,-2.3802,-2.389,-2.3877,-2.3802,-2.3802,-2.37,-2.3571,-2.3571,-2.3537,-2.3483,-2.3483,-2.3483,-2.347,-2.3309,-2.3347,-2.3327,-2.3239,-2.3219,-2.3219,-2.3219,-2.3219,-2.3219,-2.3219,-2.3171,-2.313,-2.313,-2.3083,-2.3029,-2.3029,-2.2961,-2.2907,-2.2907,-2.2832,-2.2764,-2.2696,-2.2744,-2.2764,-2.2696,-2.2744,-2.2784,-2.2784,-2.2784,-2.2784,-2.2784,-2.2873,-2.2907,-2.2907,-2.3049,-2.313,-2.313,-2.3185,-2.3219,-2.3219,-2.3219,-2.3219,-2.3219,-2.3219,-2.3219,-2.3219,-2.3219,-2.3219,-2.3219,-2.3219,-2.3219,-2.3219,-2.3219,-2.3219,-2.3219,-2.3219,-2.3219,-2.3219,-2.3219,-2.3185,-2.313]},{"header":{"parameterUnit":"m.s-1","parameterCategory":1,"la1":30.6,"la2":28.766,"lo1":-90.7593,"lo2":-88.6598,"dy":0.0162,"dx":0.0183,"nx":116,"ny":114,"refTime":"2024-06-18T12:00:00:Z","depth":0,"parameterNumber":3,"parameterNumberName":"V-component_of_WINDS"},"data":[0.0,0.0,0.0,0.0,0.0,0.0,0.0,0.0,0.0,0.0,0.0,0.0,0.0,0.0,0.0,0.0,0.0,0.0,0.0,0.0,0.0,0.0,0.0,0.0,0.0,0.0,0.0,0.0,0.0,0.0,0.0,0.0,0.0,0.0,0.0,0.0,0.0,0.0,0.0,0.0,0.0,0.0,0.0,0.0,0.0,0.0,0.0,0.0,0.0,0.0,0.0,0.0,0.0,0.0,0.0,0.0,0.0,0.0,0.0,0.0,0.0,0.0,0.0,0.0,0.0,0.0,0.0,0.0,0.0,0.0,0.0,0.0,0.0,0.0,0.0,0.0,0.0,0.0,0.0,0.0,0.0,0.0,0.0,0.0,0.0,0.0,0.0,0.0,0.0,0.0,0.0,0.0,0.0,0.0,0.0,0.0,0.0,0.0,0.0,0.0,0.0,0.0,0.0,0.0,0.0,0.0,0.0,0.0,0.0,0.0,0.0,0.0,0.0,0.0,0.0,0.0,0.0,0.0,0.0,0.0,0.0,0.0,0.0,0.0,0.0,0.0,0.0,0.0,0.0,0.0,0.0,0.0,0.0,0.0,0.0,0.0,0.0,0.0,0.0,0.0,0.0,0.0,0.0,0.0,0.0,0.0,0.0,0.0,0.0,0.0,0.0,0.0,0.0,0.0,0.0,0.0,0.0,0.0,0.0,0.0,0.0,0.0,0.0,0.0,0.0,0.0,0.0,0.0,0.0,0.0,0.0,0.0,0.0,0.0,0.0,0.0,0.0,0.0,0.0,0.0,0.0,0.0,0.0,0.0,0.0,0.0,0.0,0.0,0.0,0.0,0.0,0.0,0.0,0.0,0.0,0.0,0.0,0.0,0.0,0.0,0.0,0.0,0.0,0.0,0.0,0.0,0.0,0.0,0.0,0.0,0.0,0.0,0.0,0.0,0.0,0.0,0.0,0.0,0.0,0.0,0.0,0.0,0.0,0.0,0.0,0.0,0.0,0.0,0.0,0.0,0.0,0.0,0.0,0.0,0.0,0.0,0.0,0.0,0.0,0.0,0.0,0.0,0.0,0.0,0.0,0.0,0.0,0.0,0.0,0.0,0.0,0.0,0.0,0.0,0.0,0.0,0.0,0.0,0.0,0.0,0.0,0.0,0.0,0.0,0.0,0.0,0.0,0.0,0.0,0.0,0.0,0.0,0.0,0.0,0.0,0.0,0.0,0.0,0.0,0.0,0.0,0.0,0.0,0.0,0.0,0.0,0.0,0.0,0.0,0.0,0.0,0.0,0.0,0.0,0.0,0.0,0.0,0.0,0.0,0.0,0.0,0.0,0.0,0.0,0.0,0.0,0.0,0.0,0.0,0.0,0.0,0.0,0.0,0.0,0.0,0.0,0.0,0.0,0.0,0.0,0.0,0.0,0.0,0.0,0.0,0.0,0.0,0.0,0.0,0.0,0.0,0.0,0.0,0.0,0.0,0.0,0.0,0.0,0.0,0.0,0.0,0.0,0.0,0.0,0.0,0.0,0.0,0.0,0.0,0.0,0.0,0.0,0.0,0.0,0.0,0.0,0.0,0.0,0.0,0.0,0.0,0.0,0.0,0.0,0.0,0.0,0.0,0.0,0.0,0.0,0.0,0.0,0.0,0.0,0.0,0.0,0.0,0.0,0.0,0.0,0.0,0.0,0.0,0.0,0.0,0.0,0.0,0.0,0.0,0.0,0.0,0.0,0.0,0.0,0.0,0.0,0.0,0.0,0.0,0.0,0.0,0.0,0.0,0.0,0.0,0.0,0.0,0.0,0.0,0.0,0.0,0.0,0.0,0.0,0.0,0.0,0.0,0.0,0.0,0.0,0.0,0.0,0.0,0.0,0.0,0.0,0.0,0.0,0.0,0.0,0.0,0.0,0.0,0.0,0.0,0.0,0.0,0.0,0.0,0.0,0.0,0.0,0.0,0.0,0.0,0.0,0.0,0.0,0.0,0.0,0.0,0.0,0.0,0.0,0.0,0.0,0.0,0.0,0.0,0.0,0.0,0.0,0.0,0.0,0.0,0.0,0.0,0.0,0.0,0.0,0.0,0.0,0.0,0.0,0.0,0.0,0.0,0.0,0.0,0.0,0.0,0.0,0.0,0.0,0.0,0.0,0.0,0.0,0.0,0.0,0.0,0.0,0.0,0.0,0.0,0.0,0.0,0.0,0.0,0.0,0.0,0.0,0.0,0.0,0.0,0.0,0.0,0.0,0.0,0.0,0.0,0.0,0.0,0.0,0.0,0.0,0.0,0.0,0.0,0.0,0.0,0.0,0.0,0.0,0.0,0.0,0.0,0.0,0.0,0.0,0.0,0.0,0.0,0.0,0.0,0.0,0.0,0.0,0.0,0.0,0.0,0.0,0.0,0.0,0.0,0.0,0.0,0.0,0.0,0.0,0.0,0.0,0.0,0.0,0.0,0.0,0.0,0.0,0.0,0.0,0.0,0.0,0.0,0.0,0.0,0.0,0.0,0.0,0.0,0.0,0.0,0.0,0.0,0.0,0.0,0.0,0.0,0.0,0.0,0.0,0.0,0.0,0.0,0.0,0.0,0.0,0.0,0.0,0.0,0.0,0.0,0.0,0.0,0.0,0.0,0.0,0.0,0.0,0.0,0.0,0.0,0.0,0.0,0.0,0.0,0.0,0.0,0.0,0.0,0.0,0.0,0.0,0.0,0.0,0.0,0.0,0.0,0.0,0.0,0.0,0.0,0.0,0.0,0.0,0.0,0.0,0.0,0.0,0.0,0.0,0.0,0.0,0.0,0.0,0.0,0.0,0.0,0.0,0.0,0.0,0.0,0.0,0.0,0.0,0.0,0.0,0.0,0.0,0.0,0.0,0.0,0.0,0.0,0.0,0.0,0.0,0.0,0.0,0.0,0.0,0.0,0.0,0.0,0.0,0.0,0.0,0.0,0.0,0.0,0.0,0.0,0.0,0.0,0.0,0.0,0.0,0.0,0.0,0.0,0.0,0.0,0.0,0.0,0.0,0.0,0.0,0.0,0.0,0.0,0.0,0.0,0.0,0.0,0.0,0.0,0.0,0.0,0.0,0.0,0.0,0.0,0.0,0.0,0.0,0.0,0.0,0.0,0.0,0.0,0.0,0.0,0.0,0.0,0.0,0.0,0.0,0.0,0.0,0.0,0.0,0.0,0.0,0.0,0.0,0.0,0.0,0.0,0.0,0.0,0.0,0.0,0.0,0.0,0.0,0.0,0.0,0.0,0.0,0.0,0.0,0.0,0.0,0.0,0.0,0.0,0.0,0.0,0.0,0.0,0.0,0.0,0.0,0.0,0.0,0.0,0.0,0.0,0.0,0.0,0.0,0.0,0.0,0.0,0.0,0.0,0.0,0.0,0.0,0.0,0.0,0.0,0.0,0.0,0.0,0.0,0.0,0.0,0.0,0.0,0.0,0.0,0.0,0.0,0.0,0.0,0.0,0.0,0.0,0.0,0.0,0.0,0.0,0.0,0.0,0.0,0.0,0.0,0.0,0.0,0.0,0.0,0.0,0.0,0.0,0.0,0.0,0.0,0.0,0.0,0.0,0.0,0.0,0.0,0.0,0.0,0.0,0.0,0.0,0.0,0.0,0.0,0.0,0.0,0.0,0.0,0.0,0.0,0.0,0.0,0.0,0.0,0.0,0.0,0.0,0.0,0.0,0.0,0.0,0.0,0.0,0.0,0.0,0.0,0.0,0.0,0.0,0.0,0.0,0.0,0.0,0.0,0.0,0.0,0.0,0.0,0.0,0.0,0.0,0.0,0.0,0.0,0.0,0.0,0.0,0.0,0.0,0.0,0.0,0.0,0.0,0.0,0.0,0.0,0.0,0.0,0.0,0.0,0.0,0.0,0.0,0.0,0.0,0.0,0.0,0.0,0.0,0.0,0.0,0.0,0.0,0.0,0.0,0.0,0.0,0.0,0.0,0.0,0.0,0.0,0.0,0.0,0.0,0.0,0.0,0.0,0.0,0.0,0.0,0.0,0.0,0.0,0.0,0.0,0.0,0.0,0.0,0.0,0.0,0.0,0.0,0.0,0.0,0.0,0.0,0.0,0.0,0.0,0.0,0.0,0.0,0.0,0.0,0.0,0.0,0.0,0.0,0.0,0.0,0.0,0.0,0.0,0.0,0.0,0.0,0.0,0.0,0.0,0.0,0.0,0.0,0.0,0.0,0.0,0.0,0.0,0.0,0.0,0.0,0.0,0.0,0.0,0.0,0.0,0.0,0.0,0.0,0.0,0.0,0.0,0.0,0.0,0.0,0.0,0.0,0.0,0.0,0.0,0.0,0.0,0.0,0.0,0.0,0.0,0.0,0.0,0.0,0.0,0.0,0.0,0.0,0.0,0.0,0.0,0.0,0.0,0.0,0.0,0.0,0.0,0.0,0.0,0.0,0.0,0.0,0.0,0.0,0.0,0.0,0.0,0.0,0.0,0.0,0.0,0.0,0.0,0.0,0.0,0.0,0.0,0.0,0.0,0.0,0.0,0.0,0.0,0.0,0.0,0.0,0.0,0.0,0.0,0.0,0.0,0.0,0.0,0.0,0.0,0.0,0.0,0.0,0.0,0.0,0.0,0.0,0.0,0.0,0.0,0.0,0.0,0.0,0.0,0.0,0.0,0.0,0.0,0.0,0.0,0.0,0.0,0.0,0.0,0.0,0.0,0.0,0.0,0.0,0.0,0.0,0.0,0.0,0.0,0.0,0.0,0.0,0.0,0.0,0.0,0.0,0.0,0.0,0.0,0.0,0.0,0.0,0.0,0.0,0.0,0.0,0.0,0.0,0.0,0.0,0.0,0.0,0.0,0.0,0.0,0.0,0.0,0.0,0.0,0.0,0.0,0.0,0.0,0.0,0.0,0.0,0.0,0.0,0.0,0.0,0.0,0.0,0.0,0.0,0.0,0.0,0.0,0.0,0.0,0.0,0.0,0.0,0.0,0.0,0.0,0.0,0.0,0.0,0.0,0.0,0.0,0.0,0.0,0.0,0.0,0.0,0.0,0.0,0.0,0.0,0.0,0.0,0.0,0.0,0.0,0.0,0.0,0.0,0.0,0.0,0.0,0.0,0.0,0.0,0.0,0.0,0.0,0.0,0.0,0.0,0.0,0.0,0.0,0.0,0.0,0.0,0.0,0.0,0.0,0.0,0.0,0.0,0.0,0.0,0.0,0.0,0.0,0.0,0.0,0.0,0.0,0.0,0.0,0.0,0.0,0.0,0.0,0.0,0.0,0.0,0.0,0.0,0.0,0.0,0.0,0.0,0.0,0.0,0.0,0.0,0.0,0.0,0.0,0.0,0.0,0.0,0.0,0.0,0.0,0.0,0.0,0.0,0.0,0.0,0.0,0.0,0.0,0.0,0.0,0.0,0.0,0.0,0.0,0.0,0.0,0.0,0.0,0.0,0.0,0.0,0.0,0.0,0.0,0.0,0.0,0.0,0.0,0.0,0.0,0.0,0.0,0.0,0.0,0.0,0.0,0.0,0.0,0.0,0.0,0.0,0.0,0.0,0.0,0.0,0.0,0.0,0.0,0.0,0.0,0.0,0.0,0.0,0.0,0.0,0.0,0.0,0.0,0.0,0.0,0.0,0.0,0.0,0.0,0.0,0.0,0.0,0.0,0.0,0.0,0.0,0.0,0.0,0.0,0.0,0.0,0.0,0.0,0.0,0.0,0.0,0.0,0.0,0.0,0.0,0.0,0.0,0.0,0.0,0.0,0.0,0.0,0.0,0.0,0.0,0.0,0.0,0.0,0.0,0.0,0.0,0.0,0.0,0.0,0.0,0.0,0.0,0.0,0.0,0.0,0.0,0.0,0.0,0.0,0.0,0.0,0.0,0.0,0.0,0.0,0.0,0.0,0.0,0.0,0.0,0.0,0.0,0.0,0.0,0.0,0.0,0.0,0.0,0.0,0.0,0.0,0.0,0.0,0.0,0.0,0.0,0.0,0.0,0.0,0.0,0.0,0.0,0.0,0.0,0.0,0.0,0.0,0.0,0.0,0.0,0.0,0.0,0.0,0.0,0.0,0.0,0.0,0.0,0.0,0.0,0.0,0.0,0.0,0.0,6.4561,6.0349,0.0,0.0,0.0,0.0,0.0,0.0,0.0,0.0,0.0,0.0,0.0,0.0,0.0,0.0,0.0,0.0,0.0,0.0,0.0,0.0,0.0,0.0,0.0,4.5432,4.6394,4.6778,4.724,4.7328,4.6905,0.0,0.0,0.0,0.0,0.0,4.5719,4.568,4.631,4.7569,4.7992,4.9216,5.112,4.9704,4.686,4.2901,0.0,0.0,0.0,0.0,0.0,0.0,0.0,0.0,0.0,0.0,0.0,0.0,0.0,0.0,0.0,0.0,0.0,0.0,0.0,0.0,0.0,0.0,0.0,0.0,0.0,0.0,0.0,0.0,0.0,0.0,0.0,0.0,0.0,0.0,0.0,0.0,0.0,0.0,0.0,0.0,0.0,0.0,0.0,0.0,0.0,0.0,0.0,0.0,0.0,0.0,0.0,0.0,0.0,0.0,0.0,0.0,0.0,0.0,0.0,0.0,0.0,0.0,0.0,0.0,0.0,0.0,0.0,0.0,0.0,0.0,7.4478,7.0227,0.0,0.0,0.0,0.0,0.0,0.0,0.0,0.0,0.0,0.0,0.0,0.0,0.0,0.0,0.0,0.0,0.0,0.0,0.0,0.0,0.0,4.3204,4.5642,4.6676,4.7619,4.8698,4.8814,4.8863,4.8956,4.8839,4.8768,4.8738,4.8585,4.8585,4.8704,4.8898,5.0231,5.2855,5.387,5.5989,5.9071,5.9828,5.6329,4.9404,4.7846,0.0,0.0,0.0,0.0,0.0,0.0,0.0,0.0,0.0,0.0,0.0,0.0,0.0,0.0,0.0,0.0,0.0,0.0,0.0,0.0,0.0,0.0,0.0,0.0,0.0,0.0,0.0,0.0,0.0,0.0,0.0,0.0,0.0,0.0,0.0,0.0,0.0,0.0,0.0,0.0,0.0,0.0,0.0,0.0,0.0,0.0,0.0,0.0,0.0,0.0,0.0,0.0,0.0,0.0,0.0,0.0,0.0,0.0,0.0,0.0,0.0,0.0,0.0,8.7772,8.8909,9.2265,9.0822,9.1338,9.2992,8.6087,8.2688,8.1535,7.5262,0.0,0.0,0.0,0.0,0.0,0.0,0.0,0.0,0.0,0.0,0.0,0.0,0.0,0.0,0.0,0.0,0.0,0.0,0.0,4.5031,4.6868,4.7799,4.9179,5.1389,5.1728,5.1761,5.1615,5.1056,5.04,4.9642,4.8898,4.8859,4.9603,5.0389,5.1994,5.458,5.9808,6.3777,6.6413,6.7202,6.6615,6.4552,5.6768,5.351,5.3477,0.0,0.0,0.0,0.0,0.0,0.0,0.0,0.0,0.0,0.0,0.0,0.0,0.0,0.0,0.0,0.0,0.0,0.0,0.0,0.0,0.0,0.0,0.0,0.0,0.0,0.0,0.0,0.0,0.0,0.0,0.0,0.0,0.0,0.0,0.0,0.0,0.0,0.0,0.0,0.0,0.0,6.403,6.6692,0.0,0.0,0.0,0.0,0.0,0.0,0.0,0.0,0.0,0.0,0.0,0.0,0.0,8.9882,9.2301,9.6997,9.9562,9.9991,10.2584,10.4194,10.47,10.4505,10.4583,10.4905,10.3686,0.0,8.7752,8.389,0.0,0.0,0.0,0.0,0.0,0.0,0.0,0.0,0.0,0.0,0.0,0.0,0.0,0.0,0.0,0.0,0.0,0.0,0.0,0.0,0.0,5.1479,5.3641,5.5677,5.7261,5.7298,5.5389,5.5438,5.4484,5.2147,5.1678,5.1836,5.2645,5.4531,5.8198,6.3765,6.8759,7.2051,7.3651,7.3888,7.3538,7.2525,6.7662,6.2999,5.8397,5.3379,0.0,0.0,0.0,0.0,0.0,0.0,0.0,0.0,0.0,0.0,0.0,0.0,0.0,0.0,0.0,0.0,0.0,0.0,0.0,0.0,0.0,0.0,0.0,0.0,0.0,0.0,0.0,0.0,0.0,0.0,0.0,0.0,0.0,0.0,0.0,0.0,0.0,0.0,0.0,6.5425,7.0969,7.1587,7.1968,7.0957,0.0,0.0,0.0,0.0,0.0,0.0,0.0,0.0,0.0,9.5073,9.7759,10.0292,10.2716,10.5884,10.8005,10.8814,10.9815,11.0799,11.168,11.0683,11.0219,11.0219,10.9794,10.628,10.0503,9.4494,8.9765,8.587,0.0,0.0,0.0,0.0,8.2338,8.3237,0.0,0.0,0.0,0.0,0.0,0.0,0.0,0.0,0.0,0.0,0.0,0.0,5.2799,5.581,5.8654,6.1238,6.2826,6.2816,6.0773,5.9657,5.7967,5.5536,5.459,5.466,5.5853,6.0165,6.5865,7.2864,7.6875,7.9403,8.0497,8.0386,7.9905,7.8974,7.7459,7.2309,6.4477,6.0016,5.5814,5.1798,0.0,0.0,0.0,0.0,0.0,0.0,0.0,0.0,0.0,0.0,0.0,0.0,0.0,0.0,0.0,0.0,0.0,0.0,0.0,0.0,0.0,0.0,0.0,0.0,0.0,0.0,0.0,0.0,0.0,0.0,0.0,0.0,0.0,0.0,0.0,0.0,0.0,7.2185,7.693,7.6477,7.9284,7.9358,0.0,0.0,0.0,0.0,0.0,0.0,9.3078,9.6527,10.05,10.531,10.7883,11.0097,11.2103,11.358,11.4887,11.5907,11.5291,11.5715,11.6918,11.5291,11.4599,11.4599,11.3791,11.2791,11.119,10.3716,9.8841,9.5642,9.1271,8.9432,8.941,9.0706,9.132,9.2257,0.0,0.0,0.0,0.0,0.0,0.0,0.0,0.0,0.0,0.0,0.0,5.2304,5.8164,6.0351,6.3392,6.8269,6.745,6.7259,6.8545,6.2686,5.941,5.9873,5.6775,5.6135,5.845,6.7391,7.4203,7.8692,8.232,8.4999,8.6644,8.6909,8.6562,8.5663,8.4572,8.0583,7.4249,6.7567,6.4101,6.2455,5.4988,0.0,0.0,0.0,0.0,0.0,0.0,0.0,0.0,0.0,0.0,0.0,0.0,0.0,0.0,0.0,0.0,0.0,0.0,0.0,0.0,0.0,0.0,0.0,0.0,0.0,0.0,0.0,0.0,0.0,0.0,0.0,0.0,0.0,0.0,0.0,0.0,0.0,0.0,8.3209,8.7584,0.0,0.0,0.0,0.0,9.0253,9.5141,9.9884,10.4118,10.7505,11.1008,11.4511,11.7089,11.8887,11.9711,12.0685,12.1097,12.1189,12.1189,12.1189,12.1304,12.0292,11.9908,11.9908,11.91,11.7792,11.5687,10.9689,10.6081,10.4321,10.1801,10.0395,9.9672,9.9934,10.0579,10.1484,0.0,0.0,0.0,0.0,0.0,4.217,4.3413,4.4599,4.5972,4.7768,5.2187,5.6406,5.9609,6.4961,6.9492,7.2416,7.3202,7.3046,7.1908,6.695,6.4559,6.5733,6.1914,6.2964,6.988,7.4926,7.9898,8.4816,8.7234,8.876,8.9355,8.8875,8.8203,8.7312,8.6414,8.4806,8.2262,7.49,6.9688,6.5915,6.0972,5.6262,0.0,0.0,0.0,0.0,0.0,0.0,0.0,0.0,0.0,0.0,0.0,0.0,0.0,0.0,0.0,0.0,0.0,0.0,0.0,0.0,0.0,0.0,0.0,0.0,0.0,0.0,0.0,0.0,0.0,0.0,0.0,0.0,0.0,0.0,0.0,0.0,0.0,9.0772,9.5439,0.0,9.2482,9.5942,9.9173,10.0904,10.5713,10.9983,11.3099,11.5984,11.8419,12.01,12.21,12.2985,12.2716,12.3601,12.3793,12.3216,12.3216,12.3216,12.3216,12.2408,12.1985,12.1908,12.0485,11.9485,11.8715,11.5484,11.2522,10.9801,10.7885,10.6979,10.669,10.6807,10.7014,10.7294,0.0,0.0,0.0,0.0,4.1732,4.2646,4.3554,4.5154,4.7063,4.9404,5.4954,5.999,6.3325,6.9669,7.4437,7.637,7.7345,7.7112,7.5354,7.0897,6.8577,6.9228,6.6956,6.9341,7.7324,8.0808,8.4695,8.9096,9.0874,9.1783,9.1755,9.1257,9.056,8.9705,8.9155,8.8455,8.7318,8.225,7.6823,7.1304,6.7594,6.3444,5.9087,0.0,0.0,0.0,0.0,0.0,0.0,0.0,0.0,0.0,0.0,0.0,0.0,0.0,0.0,0.0,0.0,0.0,0.0,0.0,0.0,0.0,0.0,0.0,0.0,0.0,0.0,0.0,0.0,0.0,0.0,0.0,0.0,0.0,0.0,8.8705,9.4301,9.645,10.1611,10.3795,10.0786,10.508,10.8706,11.0115,11.4714,11.81,11.9792,12.2293,12.3985,12.4601,12.5909,12.6409,12.5794,12.6409,12.6409,12.5794,12.5794,12.5794,12.5794,12.4716,12.4216,12.4101,12.2293,12.1293,12.0677,11.9485,11.71,11.379,11.2091,11.14,11.1415,11.0803,11.0601,11.0512,0.0,0.0,0.0,4.0745,4.1829,4.2734,4.3594,4.5139,4.8028,5.3088,5.7678,6.2957,6.949,7.4257,7.7948,8.0252,7.9606,7.91,7.9151,7.4246,7.1003,7.021,7.1749,7.4976,8.0046,8.5016,8.8786,9.1325,9.3245,9.4153,9.4128,9.4319,9.3969,9.3104,9.3104,9.1738,8.9435,8.9396,8.5661,7.9378,7.501,7.1325,6.789,0.0,0.0,0.0,0.0,0.0,0.0,0.0,0.0,0.0,0.0,0.0,0.0,0.0,0.0,0.0,0.0,0.0,0.0,0.0,0.0,0.0,0.0,0.0,0.0,0.0,0.0,0.0,0.0,0.0,0.0,0.0,0.0,0.0,8.8426,9.4079,9.87,10.0182,10.6196,10.9306,10.6892,11.2697,11.6998,11.7904,12.1796,12.4192,12.4293,12.6589,12.8012,12.8012,12.8794,12.9294,12.9217,12.9217,12.9217,12.9217,12.9192,12.9192,12.9102,12.75,12.6705,12.6601,12.4909,12.3204,12.1692,12.1615,11.961,11.6421,11.4704,11.4004,11.3702,11.2096,11.1399,11.1286,0.0,0.0,4.0036,4.1716,4.2734,4.3633,4.4492,4.6546,4.9162,5.2423,5.9239,6.5414,6.9749,7.5715,7.9941,8.1217,7.9968,7.9384,8.0014,7.3963,7.1559,7.4224,7.946,8.4093,8.7979,9.0056,9.2018,9.395,9.5105,9.5358,9.475,9.4789,9.4381,9.3524,9.3524,9.313,9.2466,9.1887,8.9911,8.6749,8.1402,7.7212,7.3781,0.0,0.0,0.0,0.0,0.0,0.0,0.0,0.0,0.0,0.0,0.0,0.0,0.0,0.0,0.0,0.0,0.0,0.0,0.0,0.0,0.0,0.0,0.0,0.0,0.0,0.0,0.0,0.0,0.0,0.0,0.0,9.081,9.6539,9.6171,10.0686,10.5211,10.8582,11.2793,11.5215,11.4401,11.8298,12.1318,12.221,12.4389,12.6402,12.7692,12.9102,12.9794,12.9794,13.0602,13.0718,13.0102,13.0102,12.9794,12.9205,12.8498,12.8487,12.9205,12.7986,12.7505,12.7486,12.6409,12.4981,12.3103,12.1282,12.001,11.9015,11.7413,11.6021,11.4909,11.5,11.4694,11.4183,0.0,3.9751,4.0859,4.2187,4.3437,4.4414,4.4837,4.7292,5.0412,5.3999,6.122,6.7595,7.1649,7.7302,8.083,8.0916,8.0318,7.9387,7.8091,7.4912,7.5047,7.9523,8.4516,8.8632,9.1672,9.2941,9.421,9.5518,9.6403,9.6557,9.6066,9.6412,9.6336,9.5826,9.5441,9.5095,9.4711,9.3903,9.2811,9.133,8.7649,8.4028,8.0409,7.6574,7.388,7.1692,6.7985,6.6532,6.6054,6.3841,0.0,0.0,0.0,0.0,0.0,0.0,0.0,0.0,0.0,0.0,0.0,0.0,0.0,0.0,0.0,0.0,0.0,0.0,0.0,0.0,0.0,0.0,0.0,0.0,9.8631,10.4284,10.5495,10.7514,11.012,11.3497,11.5983,11.8008,11.9403,12.1691,12.3813,12.5486,12.7213,12.8595,12.9692,13.0487,13.082,13.0397,13.1179,13.1098,12.9788,13.0189,12.9921,12.9009,12.8795,12.9108,12.9602,12.8604,12.8191,12.8313,12.7086,12.5501,12.3711,12.2789,12.1299,11.9403,0.0,0.0,0.0,0.0,11.5587,11.5214,0.0,4.0598,4.1601,4.2539,4.3984,4.4998,4.4964,4.7642,5.1465,5.6394,6.2997,6.9032,7.3742,7.8323,8.0693,7.9738,8.0439,7.9438,7.5777,7.7207,8.0323,8.5239,8.7902,9.0449,9.3018,9.4527,9.5711,9.6596,9.7288,9.7634,9.7673,9.8442,9.8788,9.875,9.7904,9.7096,9.6365,9.5518,9.4643,9.3787,9.3056,9.0586,8.6851,8.2781,8.1179,8.0475,7.5584,7.2961,7.1477,6.9635,0.0,0.0,0.0,0.0,0.0,0.0,0.0,0.0,0.0,0.0,0.0,0.0,0.0,0.0,0.0,0.0,0.0,0.0,0.0,0.0,0.0,0.0,0.0,0.0,10.5789,11.0817,11.4502,11.4084,11.4194,11.6287,11.7284,11.9009,12.2299,12.3501,12.509,12.7692,12.941,13.0397,13.059,13.1192,0.0,0.0,0.0,13.0498,12.8721,12.9619,12.9594,12.8907,12.9509,13.0006,13.0182,12.919,12.8788,12.8825,12.7307,12.5697,12.4122,12.5003,12.2894,11.8895,11.7195,11.7,11.7479,11.599,11.54,11.5186,0.0,4.1512,4.2656,4.4219,4.4766,4.5193,4.5746,4.8033,5.1235,5.5581,6.2027,6.7563,7.1251,7.6087,7.8989,7.8761,7.9554,8.0285,8.0785,8.2477,8.5085,8.8778,9.1364,9.3941,9.648,9.6865,9.7442,9.8327,9.8481,9.8557,9.8557,9.8711,9.8788,9.875,9.7904,9.7403,9.7211,9.6403,9.5557,9.472,9.4566,9.2845,9.0087,8.792,8.6647,8.5637,8.2584,8.1721,8.1668,7.9278,7.6773,7.4383,7.2604,6.8487,0.0,0.0,0.0,0.0,0.0,0.0,0.0,0.0,0.0,0.0,0.0,0.0,0.0,0.0,0.0,0.0,0.0,0.0,0.0,10.4394,10.99,11.4415,11.641,11.8195,11.9407,11.9884,12.0799,12.1806,12.2991,12.4601,12.6101,12.7491,12.8508,12.9794,13.1398,13.0821,13.0392,13.0198,12.9598,12.9088,12.8702,12.8888,12.9322,12.9887,12.8492,0.0,13.0112,12.8286,12.8023,12.8901,12.8581,12.7511,12.59,12.5489,12.3613,12.0707,11.84,11.7483,11.7694,11.7387,11.6798,11.6181,4.2028,4.2726,4.3476,4.4766,4.5351,4.5737,4.5976,4.8117,5.1169,5.5257,6.0927,6.5897,6.9283,7.3053,7.5022,7.4168,7.5245,7.7784,8.2016,8.4324,8.7594,9.2249,9.448,9.6403,9.8096,9.8134,9.8365,9.8788,9.9259,9.9452,9.9452,9.9865,10.0096,10.0019,9.9173,9.8788,9.8711,9.7442,9.6634,9.6211,9.5826,9.4903,9.3518,9.1402,9.0056,8.9094,8.7363,8.6478,8.5978,8.467,8.2862,8.0785,7.9054,7.5322,7.0944,0.0,0.0,0.0,0.0,0.0,0.0,0.0,0.0,0.0,0.0,0.0,0.0,0.0,0.0,9.2831,9.6061,0.0,10.6302,11.001,11.4011,11.7021,11.8195,12.0214,12.1389,12.0912,12.2007,12.33,12.4506,12.542,12.65,12.8004,12.8895,12.9704,13.022,13.0198,12.9716,12.8683,12.8702,12.82,12.7187,12.7726,12.7919,12.7898,12.7393,12.771,12.8702,12.7722,12.7812,12.8816,12.8306,12.7509,12.6308,12.5087,12.3806,12.2494,12.0411,11.9416,11.8907,11.8486,11.7796,11.7106,4.3295,4.3784,4.4219,4.5117,4.582,4.6204,4.598,4.8095,5.1037,5.4786,5.954,6.3737,6.6853,6.9436,7.0706,6.9975,7.2052,7.6176,8.2631,8.5747,8.9787,9.5258,9.6942,9.8173,9.9019,9.9058,9.9135,9.9288,9.9981,10.0414,10.0606,10.1212,10.1587,10.1789,10.0789,10.0289,10.0212,9.8481,9.7634,9.7442,9.6788,9.6442,9.6095,9.4018,9.2595,9.1556,9.0509,8.8863,8.7171,8.7325,8.6286,8.4662,8.3439,8.1093,7.7923,7.3675,7.1713,0.0,0.0,0.0,0.0,0.0,0.0,0.0,0.0,8.6196,8.8954,9.3437,9.8007,10.2081,10.5201,10.8982,11.2506,11.5296,11.7608,11.9297,11.9994,12.1389,12.2013,12.1205,12.26,12.4187,12.5799,12.6087,12.6874,12.8589,12.9805,13.0006,12.8978,12.9678,12.9297,12.7513,12.7996,12.76,12.5892,12.6722,12.6879,12.6315,12.6717,12.7077,12.7511,12.7092,12.7617,12.8683,12.7973,12.7392,12.6589,12.491,12.4096,12.3723,12.2106,12.0907,12.0083,11.918,11.8311,11.7487,0.0,4.4336,4.5117,4.6016,4.625,4.6247,4.609,4.8144,5.065,5.3316,5.7325,6.0666,6.2595,6.5096,6.7744,7.0514,7.5099,8.0062,8.5324,8.9517,9.3403,9.7057,9.8134,9.9058,9.9952,9.9952,10.0289,10.101,10.1087,10.1597,10.2289,10.2404,10.2904,10.3482,10.1904,10.1212,10.1096,9.9365,9.8211,9.748,9.7403,9.6942,9.6288,9.598,9.4864,9.321,9.1633,8.8979,8.6363,8.7132,8.6286,8.497,8.5517,8.4939,8.3242,7.9111,7.6684,7.4942,7.3312,7.4873,7.8341,8.387,8.4948,8.7948,0.0,10.1888,10.2015,10.6801,11.0487,11.28,11.2602,11.5185,11.7792,11.8893,12.0508,12.1683,12.1793,12.26,12.2894,12.2111,12.3408,12.4705,12.5612,12.6485,12.7509,12.8589,13.0316,13.1005,13.0093,13.0004,12.9486,12.8326,12.7516,12.7011,12.6785,12.6898,12.7398,12.83,12.6708,12.6793,12.8511,12.6694,12.6906,12.8682,12.89,12.8911,12.8717,12.6118,12.4592,12.3716,12.1923,12.0721,11.9892,11.9208,11.7885,11.6599,0.0,4.4805,4.5859,4.625,4.6289,4.6248,4.6137,4.7765,4.969,5.1614,5.4612,5.7049,5.8248,5.9787,6.2095,6.548,7.1328,7.7215,8.2824,8.8556,9.348,9.7326,9.8327,9.9221,10.0106,10.0606,10.1019,10.1279,10.1279,10.1702,10.2597,10.2097,10.2597,10.3789,10.2097,10.1597,10.1904,10.0289,9.9058,9.8211,9.7711,9.7019,9.6249,9.5749,9.4172,9.2133,9.1441,8.9017,0.0,8.6517,8.5863,8.497,8.5277,8.3905,8.1751,7.9495,7.9065,7.9984,8.3297,8.5295,8.7472,9.1986,9.5018,9.8665,10.5484,10.7,10.8175,11.2579,11.4892,11.6397,11.6984,11.8599,12.0104,12.0875,12.2013,12.26,12.2221,12.238,12.2086,12.0826,12.2086,12.3591,12.4901,12.5425,12.6206,12.7693,12.8595,12.8793,12.8492,12.8808,12.8613,12.7606,12.7599,12.7592,12.7592,12.7707,12.7709,12.762,12.6916,12.6717,12.6892,12.6089,12.6513,12.7783,12.7613,12.7515,12.7293,12.5186,12.3799,12.2807,12.1595,12.0303,11.9012,11.8787,11.8006,11.7186,0.0,4.5117,4.6289,4.6289,4.6289,4.6288,4.6153,4.7471,4.8971,5.0332,5.2416,5.4203,5.5247,5.6362,5.8171,6.1133,6.7789,7.4168,7.9669,8.7055,9.2864,9.6634,9.8327,9.9452,10.0106,10.0904,10.1279,10.1279,10.1279,10.1702,10.2597,10.202,10.252,10.3789,10.2289,10.202,10.252,10.0981,9.9788,9.875,9.8096,9.7096,9.5826,9.472,9.2441,8.9787,8.9787,8.7286,8.3939,8.3478,8.3093,8.28,8.2885,8.1999,8.0869,8.0786,8.2007,8.4484,8.9275,9.1981,9.4381,9.8253,10.2889,10.7,10.9092,11.1001,11.3203,11.6287,11.7498,11.8195,11.9407,12.0288,12.1205,12.2,12.3004,12.3408,12.249,12.2013,12.1095,11.948,11.9884,12.1095,12.3004,12.4226,12.5519,12.6786,12.7601,12.7719,12.7209,12.8193,12.8297,12.7312,12.7996,12.84,12.84,12.8577,12.8212,12.7293,12.7199,12.6805,12.6076,12.6076,12.6523,12.7215,12.6698,12.64,12.608,12.4406,12.3208,12.219,12.1408,11.9993,11.8409,11.8813,11.8389,11.771,0.0,0.0,4.6289,4.6289,4.6289,4.6289,4.6289,4.7546,4.881,4.9617,5.1033,5.262,5.4357,5.6016,5.7709,5.9435,6.6551,7.2783,7.7138,8.6055,9.2364,9.4951,9.8298,10.0106,10.0106,10.0904,10.1279,10.1279,10.1279,10.1702,10.2597,10.2597,10.302,10.3915,10.2981,10.2597,10.252,10.1587,10.0289,9.8788,9.875,9.7259,9.4874,9.321,8.994,8.6247,8.6247,8.3016,7.8484,7.6861,7.6861,7.757,7.7838,8.0068,8.2984,8.485,8.6614,8.8007,8.799,9.1648,9.6558,10.1384,10.6192,11.0707,11.3901,11.6397,11.8416,11.9297,11.948,11.948,11.959,12.0288,12.1205,12.2,12.3408,12.4179,12.3408,12.1903,12.0288,11.8599,11.7094,11.7094,11.948,12.3504,12.601,12.5995,12.8421,12.9104,12.729,12.8811,12.9174,12.8084,12.8804,12.9318,12.9318,12.9306,12.9,12.8305,12.739,12.7019,12.7217,12.7217,12.7202,12.7215,12.7317,12.691,12.61,12.4297,12.2998,12.218,12.1307,11.9871,11.8483,11.9407,11.8823,11.7481,0.0,0.0,0.0,4.6289,4.6289,4.6484,4.707,4.7939,4.8774,4.9583,5.1501,0.0,0.0,0.0,0.0,0.0,6.4436,6.986,7.5207,8.167,8.7209,9.1441,9.4912,9.699,9.7557,9.8942,9.9635,9.9635,9.9635,10.0096,10.0904,10.0289,10.0789,10.2097,10.0712,10.0404,10.0914,9.9981,9.8981,9.7904,9.7365,9.6288,9.4874,9.3719,8.9594,8.4209,0.0,7.9015,7.5091,7.4546,7.4168,7.4149,7.5582,7.6132,7.7273,8.2543,8.5657,8.8802,9.5149,9.9705,10.3696,10.8101,11.1992,11.5296,11.7498,11.8195,11.8489,11.8709,11.7975,11.7204,11.7204,11.7902,11.9113,12.0985,12.271,12.3591,12.3298,12.282,12.1095,11.7278,11.7682,11.8085,11.7278,11.9989,12.291,12.5802,12.6223,12.6601,12.7202,12.8088,12.8509,12.8095,12.9391,13.0088,13.0088,13.0205,12.9905,12.9013,12.761,12.6704,12.6196,12.6196,12.6196,12.6183,12.5718,12.5715,12.5889,12.4206,12.3387,12.3115,12.2886,12.1015,11.8599,12.0215,11.9814,11.8408,0.0,0.0,0.0,0.0,0.0,0.0,0.0,0.0,0.0,0.0,0.0,0.0,0.0,0.0,0.0,0.0,0.0,6.6974,7.1668,7.6746,8.1593,8.6085,8.8979,9.1133,9.2633,9.3441,9.4403,9.5634,9.5942,9.6826,9.8259,9.8019,9.8481,9.9471,9.8404,9.8211,9.8673,9.7788,9.6942,9.6019,9.4595,9.3326,9.2065,8.9979,8.5747,0.0,7.7323,7.4046,7.1129,7.0507,7.0794,7.1635,7.3011,7.5332,7.8559,8.3611,8.763,9.2388,10.1198,10.5381,10.8321,11.2983,11.6103,11.8306,11.9003,11.8783,11.8085,11.6911,11.5185,11.3681,11.3116,11.291,11.4305,11.8489,11.9994,12.1389,12.3408,12.3004,12.1316,11.8085,11.8306,11.8489,11.7792,11.9187,12.1415,12.4786,12.4996,12.5575,12.7009,12.7674,12.818,12.851,12.9795,13.0492,13.0492,13.0587,13.0107,12.8914,12.7519,12.6491,12.5709,12.5709,12.5709,12.5697,12.5475,12.5713,12.5889,12.5208,12.4419,12.3609,12.4105,12.2187,11.9594,12.1222,12.0879,11.9689,0.0,0.0,0.0,0.0,0.0,0.0,0.0,0.0,0.0,0.0,0.0,0.0,0.0,0.0,0.0,0.0,0.0,0.0,6.6827,7.1591,7.5853,7.9315,8.117,8.3285,8.5786,8.517,8.6393,8.9624,9.047,9.2133,9.4566,9.5403,9.5788,9.5788,9.5788,9.5788,9.5788,9.4903,9.4066,9.3095,9.0586,8.8594,8.6709,8.2708,7.8977,7.5361,7.1321,6.8706,6.6904,6.5513,6.7583,7.0771,7.1013,7.7932,8.6314,8.8234,9.2717,9.8662,10.601,10.8604,11.0597,11.5993,11.8489,11.9407,11.8599,11.8316,11.7201,11.3887,11.1324,10.901,10.7205,10.5899,10.7404,11.4488,11.5883,11.8085,12.3701,12.26,12.1095,12.0912,11.8893,11.8416,12.0691,12.0985,12.1683,12.3298,12.4803,12.6101,12.6922,12.7716,12.8623,12.9386,13.0129,13.0481,13.0595,13.0481,12.9685,12.8106,12.7299,12.6491,12.5709,12.5709,12.5697,12.5784,12.6808,12.6805,12.6311,12.7211,12.6116,12.3908,12.4801,12.3483,12.1297,12.2393,12.2295,12.1289,0.0,0.0,0.0,0.0,0.0,0.0,0.0,0.0,0.0,0.0,0.0,0.0,0.0,0.0,0.0,0.0,0.0,0.0,6.5051,6.7628,7.086,7.493,7.79,8.0369,8.2324,8.3401,8.467,8.6162,8.6393,8.7171,8.8363,8.8594,8.8709,8.8709,8.8709,8.9056,8.9594,8.8748,8.8248,8.7863,8.5978,8.4555,8.3478,8.2401,7.8707,7.4007,7.293,7.0206,6.752,7.0321,7.5354,8.0632,8.1313,8.4314,8.8635,9.3855,9.8558,10.3406,10.9514,11.3489,11.6397,11.8489,11.9297,11.9407,11.8599,11.6484,11.3578,10.9096,10.5794,10.2407,9.8419,10.1274,10.5605,10.99,11.5185,11.9994,12.3995,12.4472,12.3591,12.1205,12.1389,12.1499,12.0985,12.2013,12.3408,12.5011,12.5488,12.6409,12.7981,12.8693,12.9797,13.1606,13.0917,13.0904,13.1693,13.0892,12.9685,12.8106,12.7886,12.7104,12.5709,12.5709,12.6076,12.6779,12.7092,12.7907,12.9082,12.8711,12.782,12.6678,12.7012,12.5092,12.2406,12.4097,12.3297,12.1514,0.0,0.0,0.0,0.0,0.0,0.0,0.0,0.0,0.0,0.0,0.0,0.0,0.0,0.0,0.0,0.0,0.0,0.0,0.0,6.4172,6.6327,6.9468,7.1014,7.2822,7.4899,7.5522,7.6784,7.8746,7.9508,8.0708,8.2247,8.2593,8.2747,8.2747,8.2747,8.3054,8.3439,8.2593,8.2247,0.0,0.0,7.94,7.8861,7.813,7.5553,7.2322,7.1968,7.2899,7.4985,7.9327,8.3215,8.6645,8.9087,9.152,9.4724,10.0901,10.4791,10.8277,11.4005,11.7184,11.9003,11.948,11.9297,11.8085,11.4488,11.2211,10.8698,10.1384,9.8423,9.5771,9.1279,9.5221,10.0686,10.5385,11.2212,11.8709,12.3812,12.4876,12.4876,12.4105,12.4215,12.4289,12.4105,12.4913,12.5794,12.67,12.6911,12.7699,12.9519,13.0315,13.1181,13.2203,13.1597,13.1301,13.1372,13.0803,12.9685,12.8095,12.8497,12.7722,12.5672,12.6185,12.6708,12.7209,12.7684,12.8702,13.0175,13.0082,12.9197,12.7788,12.8295,12.652,12.3809,12.4992,12.4494,12.3211,0.0,0.0,0.0,0.0,0.0,0.0,0.0,0.0,0.0,0.0,0.0,0.0,0.0,0.0,0.0,0.0,0.0,0.0,0.0,0.0,6.2633,6.4205,6.366,6.4397,6.6712,6.6211,6.7359,7.0398,7.1892,7.386,7.6137,7.683,7.7176,7.7176,7.7292,7.7407,7.7445,7.6753,7.6522,7.6484,7.4976,7.4322,7.4046,0.0,7.1591,7.0667,7.0206,7.5515,8.3558,8.8679,9.0573,9.1456,9.5767,9.9189,10.2687,10.8085,11.0906,11.3316,11.841,11.9897,11.9908,11.948,11.8599,11.5883,10.8894,10.6618,10.309,9.2946,9.0715,8.9377,8.5379,8.9062,9.4908,10.1596,10.8819,11.6195,12.3785,12.4791,12.5698,12.7801,12.692,12.6626,12.7996,12.8106,12.8182,12.8494,12.8792,12.9596,13.0993,13.1979,13.2412,13.209,13.2082,13.1612,13.0492,13.0382,12.9714,12.831,12.9123,12.8315,12.61,12.7003,12.7511,12.7589,12.8512,12.9517,13.0491,13.1316,13.0186,12.8014,12.8911,12.7588,12.5416,12.5506,12.5486,12.5178,0.0,0.0,0.0,0.0,0.0,0.0,0.0,0.0,0.0,0.0,5.8369,5.7587,0.0,0.0,0.0,0.0,0.0,0.0,0.0,0.0,0.0,6.248,6.3012,6.3852,6.5013,6.559,6.6513,6.775,6.8058,6.8783,6.993,7.0084,7.0161,7.0161,7.0898,7.1591,7.2206,7.2052,7.2444,7.306,7.2745,7.2206,7.1629,7.2059,7.1245,0.0,7.1321,7.4637,7.9822,8.8988,9.5715,10.0878,10.4512,10.6803,10.8989,11.2713,11.5418,11.7508,11.9187,12.0601,12.1193,11.9113,11.6507,11.2895,10.689,10.2202,9.6993,8.9163,8.6311,8.4215,8.0828,8.5899,9.3282,10.1399,10.8896,11.6686,12.5419,12.6609,12.7023,12.7976,12.7911,12.7776,12.8106,12.8106,12.8693,13.0324,13.1194,13.1806,13.2107,13.3001,13.3089,13.209,13.2082,13.1612,13.0492,12.9795,12.9504,12.9307,12.8804,12.8487,12.8218,12.8395,12.8888,12.9704,12.9908,13.0483,13.1511,13.159,13.0616,12.9014,12.909,12.8116,12.6414,12.6488,12.5986,12.5293,0.0,0.0,0.0,0.0,0.0,0.0,0.0,5.7187,5.9726,6.4453,6.4723,6.3868,6.2232,6.0836,0.0,0.0,0.0,0.0,0.0,0.0,0.0,6.1402,6.1781,6.2397,6.3288,6.4128,6.4974,6.5782,0.0,6.6474,6.6429,6.6429,6.6429,6.6429,6.6859,6.7513,6.8282,6.8282,6.8783,6.9636,7.0514,7.0898,7.1052,7.236,7.2399,0.0,7.3053,7.6245,8.0861,8.7063,9.3953,10.1112,10.7486,11.1019,11.3215,11.601,11.7611,11.8921,12.0497,12.0892,12.0288,11.8306,11.4708,10.9604,10.1693,9.663,9.1263,8.3,8.0927,8.0037,7.8052,8.3421,9.009,9.5942,10.2981,11.1078,12.0584,12.2296,12.4105,12.8196,12.8694,12.8914,12.9281,12.9318,13.0008,13.138,13.2515,13.329,13.3805,13.3801,13.3181,13.209,13.1625,13.1103,13.0683,13.0277,12.9984,12.9794,12.9905,12.9513,12.8721,12.9176,12.9678,13.0198,13.0198,13.0806,13.1679,13.1679,13.0718,12.9217,12.9217,12.7887,12.5917,12.5917,12.5687,12.502,0.0,0.0,0.0,0.0,0.0,0.0,0.0,6.0543,6.3392,6.8268,6.9712,6.9,6.5568,6.3026,6.1506,0.0,0.0,0.0,0.0,0.0,0.0,0.0,6.0979,6.1402,6.2095,0.0,0.0,6.4589,6.5474,0.0,0.0,0.0,0.0,0.0,6.4512,6.4974,6.5628,6.6013,6.6628,0.0,0.0,7.0591,7.136,0.0,0.0,0.0,0.0,7.7169,8.1016,8.4824,9.0072,9.6574,10.53,11.09,11.4705,11.6986,11.8293,11.9504,12.1482,12.1015,11.9407,11.7425,11.3213,10.6907,9.7069,9.1762,8.6543,7.8054,7.6671,7.6905,7.6626,8.1202,8.6527,9.1193,9.737,10.5198,11.5682,11.8322,12.1607,12.8306,12.9292,12.9795,13.0419,13.0712,13.1288,13.2396,13.3387,13.4398,13.5199,13.399,13.3028,13.209,13.1103,13.0586,13.0793,13.0703,13.051,13.0208,13.0793,13.0496,12.9392,13.0204,13.0498,13.0498,13.0498,13.1002,13.1679,13.1679,13.0603,12.8885,12.8885,12.7184,12.4901,12.4901,12.4803,12.429,0.0,0.0,0.0,0.0,0.0,0.0,0.0,6.0357,6.3795,7.0359,6.9938,6.8972,6.8741,6.7084,6.4753,0.0,0.0,0.0,0.0,0.0,0.0,0.0,0.0,0.0,0.0,0.0,0.0,6.4589,6.5474,0.0,0.0,0.0,0.0,0.0,0.0,6.4628,6.482,6.632,0.0,0.0,0.0,0.0,0.0,0.0,0.0,0.0,0.0,7.4546,7.5507,8.3439,8.6552,8.8391,9.5391,10.4006,11.188,11.3603,11.7286,12.0803,12.1105,12.1007,11.9994,11.6911,11.1906,10.5284,9.6112,8.9581,8.3703,7.758,7.5595,7.5417,7.6924,7.8953,8.3291,9.2074,9.6652,10.3408,11.5598,11.9993,12.3483,12.7707,12.9501,13.0419,13.0492,13.1409,13.2381,13.3503,13.4506,13.5095,13.5177,13.3287,13.2217,13.2104,13.1223,13.0791,13.0793,13.0313,13.0396,13.1312,13.0592,13.0703,13.1421,13.1487,13.159,13.159,13.159,13.159,13.1679,13.1679,13.0197,12.7818,12.7818,12.6197,12.3885,12.3885,12.3411,12.258,0.0,0.0,0.0,0.0,0.0,0.0,5.8974,6.1209,6.4679,7.1502,7.2208,7.1855,7.1357,6.9848,6.6894,6.1953,0.0,0.0,0.0,0.0,0.0,0.0,0.0,0.0,0.0,0.0,6.5897,6.6891,6.7744,0.0,0.0,0.0,0.0,0.0,0.0,6.5667,6.6167,6.6827,0.0,0.0,0.0,0.0,0.0,0.0,0.0,0.0,0.0,0.0,7.613,7.8477,8.0939,8.3476,8.5644,9.224,10.0593,10.7896,11.2407,11.5713,11.8787,11.9195,11.8122,11.581,11.0175,10.3182,9.5481,8.8015,8.1468,7.702,7.4965,7.4661,7.6899,7.7861,8.039,8.6767,8.8499,9.2897,10.4001,10.8391,11.3403,12.1288,12.4986,12.7813,13.0309,13.0904,13.1612,13.2725,13.3099,13.3307,13.3307,13.2093,13.109,13.0378,13.0204,13.0082,13.0292,13.0603,13.1094,13.1585,13.1292,13.129,13.1679,13.1679,13.1679,13.1679,13.1679,13.1407,13.0797,13.0797,12.9511,12.7485,12.701,12.5476,12.3578,12.3091,12.2399,12.1516,0.0,0.0,0.0,0.0,0.0,5.4335,5.9213,6.1763,6.5221,7.0962,7.239,7.2617,7.1951,6.998,6.722,6.3405,6.2158,0.0,0.0,0.0,0.0,0.0,0.0,0.0,0.0,0.0,6.759,6.8776,7.0398,7.0629,0.0,0.0,6.8891,6.7013,0.0,0.0,0.0,0.0,0.0,0.0,0.0,0.0,0.0,0.0,0.0,0.0,0.0,0.0,0.0,0.0,0.0,7.9131,7.8784,8.2893,9.0006,10.1009,10.7006,11.1107,11.5891,11.7081,11.6491,11.49,10.9304,10.2209,9.49,8.738,8.0798,7.6824,7.4861,7.4469,7.6553,7.7138,7.8491,8.2186,8.3295,8.7084,9.6758,10.1405,10.7289,11.6919,12.0992,12.4803,12.9117,13.0717,13.1787,13.2476,13.2307,13.2082,13.2082,13.1099,13.0301,12.9812,12.9994,13.0183,13.0317,13.111,13.1591,13.1679,13.1679,13.1679,13.1679,13.1679,13.1679,13.1679,13.1679,13.109,13.0198,13.0198,12.8896,12.6904,12.6096,12.4708,12.3015,12.2199,12.1405,12.0486,0.0,0.0,0.0,0.0,0.0,0.0,5.8294,6.179,6.5094,6.822,6.9409,6.9957,6.9936,6.6893,6.5213,6.6178,6.3469,0.0,0.0,0.0,0.0,0.0,0.0,0.0,0.0,0.0,6.9667,6.9706,7.3007,7.3783,7.2175,7.3046,7.2084,6.9667,0.0,0.0,0.0,0.0,0.0,0.0,0.0,0.0,0.0,0.0,0.0,0.0,0.0,0.0,0.0,0.0,0.0,0.0,0.0,7.7823,8.2085,9.3163,10.1705,10.8491,11.2684,11.4995,11.5812,11.4116,10.9288,10.2778,9.4318,8.7819,8.2131,7.7053,7.5284,7.4969,7.5861,7.6707,7.7915,7.982,8.366,8.9311,9.7705,10.321,10.9113,11.6417,11.8713,12.1681,12.6795,13.119,13.37,13.372,13.2693,13.2082,13.2082,13.0517,13.0011,13.0807,13.1189,13.1393,13.1409,13.1616,13.1718,13.1679,13.1679,13.1679,13.1679,13.1679,13.1679,13.1679,13.1679,13.109,13.0198,13.0198,12.8486,12.5905,12.5106,12.3697,12.2,12.1193,12.0385,11.9595,0.0,0.0,0.0,0.0,0.0,0.0,0.0,5.8243,6.1034,6.4922,6.6146,6.7217,6.8829,6.7101,6.5922,6.6157,6.3882,0.0,0.0,0.0,0.0,0.0,0.0,0.0,0.0,6.8552,7.0545,7.2315,7.4514,7.563,7.5676,7.5361,7.4161,7.2276,7.1668,7.1245,0.0,0.0,0.0,0.0,0.0,0.0,0.0,0.0,0.0,0.0,0.0,0.0,0.0,0.0,0.0,0.0,0.0,0.0,0.0,8.2439,9.1148,9.9429,10.1903,10.4594,10.5988,10.321,9.9376,9.4877,8.9364,8.4433,8.0054,7.6707,7.5322,7.4976,7.5822,7.6245,7.8175,8.3523,8.6008,8.9654,9.6495,10.3091,10.9391,11.5195,12.3108,12.8818,13.0399,13.1094,13.182,13.2595,13.1598,13.0796,13.0206,13.0492,13.0402,12.9996,13.0393,13.0602,13.0602,13.1285,13.1679,13.1679,13.1679,13.1679,13.1679,13.1679,13.1303,13.0685,13.1395,13.0284,12.818,12.8888,12.7509,12.4918,12.4106,12.3072,12.1976,12.1205,12.0814,12.0477,0.0,0.0,0.0,0.0,0.0,0.0,0.0,5.6671,5.8988,6.2584,6.3421,6.4697,6.7377,6.59,6.5335,6.6836,6.5176,0.0,0.0,0.0,0.0,0.0,0.0,0.0,6.7058,6.8821,7.1091,7.3969,7.5976,7.74,7.8246,7.8015,7.6669,7.443,7.386,7.3283,0.0,0.0,0.0,0.0,0.0,0.0,7.7854,0.0,0.0,0.0,0.0,0.0,0.0,0.0,0.0,0.0,0.0,0.0,0.0,0.0,8.2338,8.9721,9.431,9.7955,9.993,9.7513,9.4389,9.0812,8.6589,8.2615,7.9085,7.6515,7.5553,7.5361,7.5899,7.6087,7.7679,8.231,8.4925,8.8692,9.5278,10.1984,10.88,11.56,12.4392,12.9777,12.9683,13.0524,13.119,13.1506,13.0904,13.0503,13.0415,13.1083,13.1282,13.0781,13.0816,13.0806,13.0806,13.1395,13.1679,13.1718,13.1303,13.109,13.1114,13.0715,13.0175,12.9687,13.0314,12.9322,0.0,12.75,12.6606,12.4803,12.3408,12.289,12.2875,12.141,12.1222,12.1498,0.0,0.0,0.0,0.0,0.0,0.0,0.0,5.664,5.859,6.1005,6.1266,6.24,6.544,6.3648,6.3812,6.7782,0.0,0.0,0.0,0.0,0.0,0.0,0.0,0.0,6.7135,6.9013,7.1552,7.4776,7.74,7.9169,8.0085,8.0823,7.9477,7.6361,7.6245,7.5245,0.0,0.0,0.0,0.0,0.0,0.0,0.0,0.0,0.0,0.0,0.0,0.0,0.0,0.0,0.0,0.0,0.0,0.0,0.0,0.0,0.0,0.0,0.0,9.3672,9.6019,9.5095,9.2518,8.9171,8.517,8.1816,0.0,7.6399,7.5899,7.6015,7.6322,7.6437,7.7007,7.8561,8.2282,8.7575,9.496,10.12,10.8606,11.801,12.3514,12.6413,12.6089,12.9589,13.1524,13.0613,13.0507,13.0905,13.1787,13.219,13.24,13.2296,13.1888,13.1718,13.1679,13.1679,13.1692,13.1603,13.0685,13.0214,13.0109,12.9178,12.8683,12.8588,12.8589,12.7988,12.7001,12.6181,12.5804,12.5404,12.3125,12.3203,12.4291,12.1888,12.1701,12.2603,0.0,0.0,0.0,0.0,0.0,0.0,0.0,0.0,0.0,0.0,6.0154,6.0958,6.229,6.29,6.3829,0.0,0.0,0.0,0.0,0.0,0.0,0.0,0.0,0.0,6.8045,7.1045,7.3623,7.5707,7.89,8.1246,8.2708,8.2247,8.1246,7.9823,7.8523,7.6976,0.0,0.0,0.0,0.0,0.0,0.0,0.0,0.0,0.0,0.0,7.3776,7.4007,0.0,0.0,0.0,0.0,0.0,0.0,0.0,0.0,7.3553,7.5277,7.813,0.0,8.3439,8.1285,8.0669,8.0131,0.0,7.7476,7.6515,7.5284,7.5007,7.6015,7.9285,7.8449,8.0239,8.9437,9.1917,9.5033,10.1799,11.1193,11.9519,12.5397,12.8423,12.9999,12.9917,12.9911,13.0181,13.0825,13.0598,13.0096,12.9074,13.119,13.1183,12.8611,13.0506,13.1587,13.1718,13.1679,13.129,13.0605,13.1101,13.0513,12.9108,12.9598,12.8998,12.76,12.7699,12.7219,12.61,12.542,12.5087,12.4989,12.3674,12.351,12.3898,12.2597,12.3189,12.4315,0.0,0.0,0.0,0.0,0.0,0.0,0.0,0.0,0.0,0.0,0.0,0.0,0.0,0.0,0.0,0.0,0.0,0.0,0.0,0.0,0.0,0.0,0.0,6.7436,6.9513,7.1745,7.4476,7.7746,8.0015,8.217,8.417,8.3285,8.2054,8.04,7.8284,7.7053,0.0,0.0,0.0,0.0,7.9208,0.0,0.0,0.0,0.0,0.0,7.2629,7.286,0.0,7.4392,7.4661,7.4623,0.0,0.0,0.0,0.0,7.1937,7.2392,7.286,7.6861,8.0631,7.9246,7.9246,7.9485,7.9015,7.7092,7.5284,7.4822,7.47,7.5668,7.8784,7.9347,8.1881,8.9706,9.3069,9.8045,10.7596,11.5993,12.2896,12.7195,12.8595,12.939,12.9689,12.9207,12.8997,12.9585,12.9491,12.9193,12.8886,13.0284,13.0302,12.8515,12.9982,13.0915,13.0992,13.0992,13.0715,13.0198,13.0314,12.9475,12.798,12.8118,12.75,12.6495,12.672,12.6396,12.5787,12.5198,12.5211,12.5402,12.4118,12.4198,12.4774,12.36,12.3803,12.4418,0.0,0.0,0.0,0.0,0.0,0.0,0.0,0.0,0.0,0.0,0.0,0.0,0.0,0.0,0.0,0.0,0.0,0.0,0.0,0.0,0.0,0.0,6.809,6.8635,7.1052,7.2213,7.5014,7.9592,8.1131,8.2978,8.5085,8.4593,8.2824,7.9892,7.7476,7.6707,7.7369,0.0,0.0,0.0,7.8138,0.0,0.0,0.0,0.0,0.0,0.0,0.0,0.0,7.4553,7.5091,7.4938,7.5168,0.0,0.0,0.0,0.0,0.0,7.1668,7.7169,8.2401,8.1246,8.1554,8.2016,8.1631,7.8207,7.5091,7.5091,7.5091,7.5861,7.8361,8.0817,8.3808,8.8036,9.3214,10.0794,11.2596,11.8284,12.2599,12.6507,12.69,12.7194,12.7894,12.7902,12.7886,12.7886,12.7996,12.8386,12.9181,12.9504,12.9592,12.9405,12.9582,12.9813,12.9716,12.9887,13.0006,12.999,12.9088,12.8098,12.6899,12.6207,12.5894,12.5698,12.5694,12.5788,12.5905,12.5102,12.5413,12.6099,12.4593,12.5013,12.6308,12.4605,12.4187,12.4286,0.0,0.0,0.0,0.0,0.0,0.0,0.0,0.0,0.0,0.0,0.0,0.0,0.0,0.0,0.0,0.0,0.0,0.0,0.0,0.0,0.0,7.2699,7.0514,7.0167,7.1944,7.4245,7.6476,7.8715,8.3131,8.5517,8.594,8.7286,8.5401,8.0823,7.8938,7.783,7.7369,7.8176,0.0,0.0,7.9515,0.0,0.0,0.0,0.0,0.0,0.0,0.0,0.0,7.1783,7.3514,7.5322,7.2552,0.0,0.0,0.0,0.0,0.0,7.513,8.0323,8.2931,7.6469,7.8092,8.0708,7.8561,7.7445,7.6899,7.6899,7.6899,7.8715,8.4747,8.6301,8.9601,9.8626,10.4904,11.0692,11.6787,12.0286,12.3419,12.6795,12.7219,12.7219,12.7293,12.7205,12.7115,12.7115,12.7702,12.7914,12.7415,12.8803,12.869,12.6417,12.7918,12.8396,12.7722,12.8493,12.8887,12.8887,12.8814,12.771,12.5992,12.6685,12.6602,12.5799,12.5194,12.5396,12.6213,12.4613,12.5008,12.6501,12.5407,12.5703,12.6517,12.548,12.5582,12.6089,0.0,0.0,0.0,0.0,0.0,0.0,0.0,0.0,0.0,0.0,0.0,0.0,0.0,0.0,0.0,0.0,0.0,0.0,0.0,0.0,7.3206,7.5476,7.3514,7.2976,7.4245,7.7207,7.9823,8.1977,8.567,8.7979,8.8825,8.6871,8.3947,8.0285,7.813,7.7445,7.7984,7.833,7.9285,0.0,0.0,0.0,0.0,0.0,0.0,0.0,0.0,0.0,0.0,0.0,7.3937,7.5553,7.3091,0.0,0.0,0.0,0.0,0.0,7.2668,7.7553,8.1392,7.8361,8.2785,8.7255,8.4823,8.2816,8.1346,8.0956,8.0514,8.159,8.6035,8.9503,9.5084,10.5483,11.0919,11.5192,11.9195,12.1582,12.3794,12.6101,12.6396,12.6396,12.6396,12.6311,12.6296,12.6296,12.6601,12.6601,12.6308,12.7083,12.7008,12.5709,12.648,12.7079,12.7187,12.7099,12.7398,12.7895,12.7895,12.7099,12.5697,12.6725,12.7001,12.6597,12.638,12.6593,12.7017,12.5796,12.5914,12.6692,12.6195,12.6299,12.6486,12.5216,12.4986,12.5101,0.0,0.0,0.0,0.0,0.0,0.0,0.0,0.0,0.0,0.0,0.0,0.0,0.0,0.0,0.0,0.0,0.0,0.0,0.0,7.2668,7.3868,7.6868,7.6284,7.6399,7.7438,8.0054,8.2747,8.5478,8.8248,9.0133,9.1095,8.6401,8.2747,8.0008,7.763,7.7284,7.8484,7.8484,7.9523,0.0,0.0,0.0,0.0,0.0,0.0,0.0,0.0,0.0,0.0,0.0,0.0,0.0,0.0,0.0,0.0,7.2014,7.0898,7.0821,7.1783,7.5748,7.9972,8.1614,8.6855,9.1577,9.1373,8.8474,8.6061,8.6895,8.6417,8.6518,8.8595,9.4081,10.1298,11.0484,11.4887,11.8189,12.1107,12.271,12.4105,12.55,12.5709,12.5709,12.5709,12.5709,12.5709,12.5709,12.5709,12.5709,12.5709,12.5709,12.5709,12.5709,12.5709,12.6101,12.6802,12.6089,12.6196,12.7187,12.6996,12.6393,12.5697,12.65,12.6891,12.6986,12.7211,12.7397,12.7385,12.6888,12.669,12.669,12.669,12.669,12.6486,12.4986,12.4293,12.3909,0.0,0.0,0.0,0.0,0.0,0.0,0.0,0.0,0.0,0.0,0.0,0.0,0.0,0.0,0.0,0.0,0.0,0.0,0.0,7.2552,7.4199,7.6015,7.8246,8.0208,8.1823,8.2093,8.3862,8.7209,9.0594,9.1864,9.1133,8.7594,8.417,8.0939,7.9131,7.8407,7.8484,7.8484,7.9523,8.0939,7.9215,0.0,0.0,0.0,0.0,0.0,0.0,0.0,0.0,0.0,0.0,0.0,0.0,0.0,7.393,7.5168,7.2822,7.1168,7.7392,7.9025,7.9896,8.3766,8.511,8.7145,9.3282,9.1392,8.992,9.5371,9.5828,9.5528,9.6525,10.2802,10.928,11.3793,11.7987,12.1191,12.2893,12.3885,12.4693,12.5598,12.5709,12.5709,12.5709,12.5709,12.5709,12.5709,12.5709,12.5709,12.5709,12.5709,12.5709,12.5709,12.5709,12.5697,12.5796,12.5697,12.6196,12.7224,12.6304,12.5783,12.5709,12.5808,12.6014,12.6289,12.6287,12.649,12.6809,12.6705,12.669,12.669,12.669,12.669,12.6614,12.5678,12.4793,12.3985,0.0,0.0,0.0,0.0,0.0,0.0,0.0,0.0,0.0,0.0,0.0,0.0,0.0,0.0,0.0,0.0,0.0,0.0,0.0,7.1514,7.336,7.6669,7.7746,7.9515,8.2247,8.4901,8.7671,9.0556,9.2364,9.2287,9.0316,8.6931,8.3555,8.0208,7.8515,7.8023,7.8484,7.8484,7.9523,8.0939,7.9215,7.783,0.0,0.0,0.0,0.0,0.0,0.0,0.0,0.0,7.1245,7.2899,7.2283,7.3437,7.4745,7.3283,7.1706,7.1014,7.3553,7.7554,8.1653,8.4264,8.7332,9.0774,9.4975,9.6248,9.7672,10.1586,10.1697,10.1511,10.291,10.6586,11.0885,11.4881,11.8994,12.2205,12.3812,12.4693,12.5415,12.5709,12.5709,12.5709,12.5709,12.5709,12.5709,12.5709,12.5709,12.5709,12.5709,12.5709,12.5709,12.5709,12.5709,12.5709,12.5709,12.5709,12.5919,12.6328,12.5894,12.5709,12.5697,12.6312,12.6393,12.6087,12.6194,12.6291,12.6495,12.5998,12.6117,12.6603,12.5985,12.5811,12.5706,12.431,12.3586,12.3216,0.0,0.0,0.0,0.0,0.0,0.0,0.0,0.0,0.0,0.0,0.0,0.0,0.0,0.0,0.0,0.0,0.0,0.0,6.959,7.0437,7.2476,7.5938,7.6868,7.8984,8.2631,8.6371,8.9295,9.1287,9.2364,9.1595,8.9047,8.594,8.3247,8.09,7.8669,7.8446,7.9638,7.883,7.9361,8.0554,7.91,7.7869,0.0,0.0,0.0,0.0,0.0,0.0,0.0,0.0,7.0007,7.1514,7.1629,7.3129,7.4514,7.2976,7.2522,7.2625,7.2863,7.7037,8.1945,8.4638,8.8998,9.3807,9.824,10.03,10.269,10.742,10.7107,10.6492,10.8094,10.9502,11.1588,11.5406,11.9187,12.2404,12.4215,12.4986,12.539,12.5709,12.5709,12.5709,12.5709,12.5709,12.5709,12.5709,12.5709,12.5709,12.5709,12.5709,12.5709,12.5709,12.5709,12.5709,12.5709,12.5709,12.5907,12.6209,12.5612,12.528,12.5305,12.6013,12.5903,12.5218,12.5311,12.551,12.561,12.5002,12.5195,12.5698,12.4995,12.46,12.4321,12.2809,12.2306,12.2294,0.0,0.0,0.0,0.0,0.0,0.0,0.0,0.0,0.0,0.0,0.0,0.0,0.0,0.0,0.0,0.0,0.0,0.0,6.7096,6.9475,7.1668,7.3392,7.5938,7.9254,8.3447,8.6055,8.7786,8.8718,9.0364,8.9863,8.7325,8.4794,8.3601,8.3409,8.0023,7.9908,8.2093,7.9561,7.9015,7.97,7.8869,7.7522,7.5938,0.0,0.0,0.0,0.0,0.0,0.0,0.0,6.8552,6.8174,7.4091,7.4245,7.2752,7.5245,7.6084,7.6358,7.7085,7.8208,8.0316,8.5039,8.9565,9.4994,10.3299,10.32,10.3891,11.3007,11.2311,11.0576,11.218,11.1805,11.2322,11.5479,11.8783,12.1719,12.4179,12.4509,12.4803,12.5598,12.5709,12.5709,12.5709,12.5709,12.5709,12.5709,12.5709,12.5709,12.5709,12.5709,12.5709,12.5709,12.5709,12.5709,12.5709,12.5697,12.6183,12.7224,12.5397,12.4497,12.4497,12.4472,12.4079,12.3515,12.3515,12.3612,12.3816,12.3779,12.3797,12.3797,12.3816,12.3306,12.2381,12.1608,12.1395,12.1403,0.0,0.0,0.0,0.0,0.0,0.0,0.0,0.0,0.0,0.0,0.0,0.0,0.0,0.0,0.0,0.0,0.0,0.0,6.7058,6.8398,7.0167,7.2476,7.5014,7.7246,7.9138,8.2208,8.6017,9.0441,8.9171,8.7555,8.5593,8.4255,8.2631,8.0939,8.1093,8.0592,7.96,7.883,7.9015,7.97,7.8869,7.8215,7.7515,0.0,0.0,0.0,0.0,0.0,0.0,0.0,0.0,0.0,7.1014,7.3514,7.5599,7.4553,7.5526,7.6754,7.5747,7.972,8.4925,8.8033,9.5286,10.2906,10.7585,10.838,10.9895,11.6208,11.5802,11.4185,11.4207,11.4413,11.4892,11.581,11.8783,12.1499,12.3408,12.4105,12.4803,12.5598,12.5709,12.5709,12.5709,12.5709,12.5709,12.5709,12.5709,12.5709,12.5709,12.5709,12.5709,12.5709,12.6396,12.6822,12.6822,12.6812,12.6682,12.6293,12.5212,12.4996,12.5478,12.4187,12.3198,12.251,12.251,12.26,12.2804,12.3503,12.3797,12.3686,12.3004,12.2597,12.2311,12.0811,12.0703,12.1283,0.0,0.0,0.0,0.0,0.0,0.0,0.0,0.0,0.0,0.0,6.2346,6.2865,0.0,0.0,0.0,0.0,0.0,0.0,6.6596,6.7744,6.9552,7.2098,7.4322,7.6669,7.9208,8.1285,8.4055,8.7671,8.6478,8.5016,8.3401,8.3516,8.2978,8.1854,8.2901,8.2093,7.9985,7.9292,7.8938,7.8784,7.86,7.8292,7.783,0.0,0.0,0.0,0.0,0.0,0.0,0.0,0.0,0.0,6.9084,7.1052,7.3329,7.3815,7.5622,7.771,7.8947,8.3987,8.9737,9.311,9.9883,10.6908,11.1412,11.331,11.491,11.7895,11.739,11.6309,11.5888,11.6211,11.658,11.6911,11.9187,12.1389,12.26,12.3518,12.4215,12.4693,12.4986,12.5206,12.5206,12.5206,12.5415,12.5709,12.5709,12.5894,12.6291,12.6315,12.6305,12.6416,12.7004,12.7098,12.6778,12.6514,12.6214,12.6087,12.4394,12.4195,12.5005,12.3492,12.238,12.1609,12.1609,12.1706,12.1807,12.2407,12.2601,12.2614,12.2012,12.1584,12.1212,11.9778,11.9712,12.0203,0.0,0.0,0.0,0.0,0.0,0.0,0.0,0.0,0.0,0.0,6.2041,6.2655,0.0,0.0,0.0,0.0,0.0,0.0,0.0,6.759,6.9667,7.2213,7.4168,7.7361,8.2093,8.2093,8.2016,8.1939,8.2832,8.2477,8.1016,8.2793,8.3978,8.4662,8.4816,8.3785,8.1823,8.0092,7.8477,7.7138,7.7792,7.7638,7.6938,7.6015,0.0,0.0,0.0,0.0,0.0,0.0,0.0,0.0,6.8237,6.8013,6.8366,7.2976,7.6026,7.9029,8.4312,8.922,9.4048,9.8978,10.3592,10.8596,11.4809,11.7513,11.8622,11.8525,11.7902,11.7401,11.7401,11.7498,11.7792,11.8416,11.9884,12.1205,12.2,12.271,12.3224,12.3298,12.3922,12.4399,12.4399,12.4399,12.4693,12.539,12.5525,12.5903,12.6898,12.7001,12.7102,12.7306,12.7399,12.7022,12.6212,12.5386,12.5309,12.5912,12.3416,12.2603,12.3312,12.2413,12.1572,12.0912,12.0912,12.0912,12.0912,12.0912,12.0912,12.0912,12.0912,12.0398,11.959,11.8709,11.8507,11.8703,0.0,0.0,0.0,0.0,0.0,0.0,0.0,0.0,0.0,0.0,0.0,0.0,0.0,0.0,0.0,0.0,0.0,0.0,0.0,6.8475,7.0552,7.3122,7.6738,7.9554,8.1323,8.0708,8.0015,7.9331,8.0208,8.0439,8.0131,8.2516,8.3324,8.2901,8.4286,8.2824,7.9177,7.6784,7.5584,7.5207,7.4745,7.4853,7.5091,7.3591,7.2245,0.0,0.0,0.0,0.0,0.0,0.0,0.0,6.9167,6.9744,7.0283,7.1398,7.5326,7.9763,8.1692,8.7308,9.4021,9.9567,10.7107,11.4005,11.7309,11.8301,11.8712,11.9224,11.9187,11.9076,11.9076,11.959,11.9921,11.9407,12.0214,12.1205,12.2,12.2196,12.26,12.3224,12.3518,12.3591,12.3591,12.3591,12.3591,12.3812,12.3812,12.422,12.5179,12.5206,12.5602,12.6401,12.7206,12.7219,12.6212,12.6893,12.6191,12.4215,12.3697,12.2714,12.1522,12.1312,12.1095,12.0912,12.0912,12.0912,12.0912,12.0912,12.0912,12.0912,12.0912,12.0802,12.0398,11.8893,11.8914,11.9401,0.0,0.0,0.0,0.0,0.0,0.0,0.0,0.0,0.0,0.0,0.0,0.0,0.0,0.0,0.0,0.0,0.0,0.0,0.0,6.8321,7.0776,7.4514,7.7969,7.9823,7.9862,7.9015,7.8361,7.7946,7.7977,7.8823,8.0477,8.3439,8.4978,8.5363,8.544,8.3131,7.8977,7.6399,7.463,7.3553,7.393,7.386,7.336,7.2052,7.0552,6.8975,6.8167,0.0,0.0,0.0,0.0,0.0,0.0,0.0,6.7821,7.0667,7.3768,7.7414,8.2731,8.9199,9.6328,10.4107,11.0197,11.4783,11.639,11.7093,11.7584,11.8299,11.8783,11.8893,11.8489,11.9113,11.959,11.9113,11.97,12.0398,12.0802,12.1597,12.2086,12.2123,12.249,12.271,12.271,12.271,12.2894,12.3298,12.3703,12.4403,12.5398,12.5892,12.6404,12.7,12.7476,12.739,12.6399,12.6592,12.5611,12.3699,12.3288,12.2594,12.1613,12.1613,12.1815,12.2296,12.2296,12.2296,12.2296,12.2296,12.2012,12.1502,12.1095,12.0717,12.0104,11.8893,11.8479,11.849,0.0,0.0,0.0,0.0,0.0,0.0,0.0,0.0,0.0,0.0,0.0,0.0,0.0,0.0,0.0,0.0,0.0,0.0,0.0,6.8244,7.1091,7.5592,7.8092,7.9015,7.8292,7.7369,7.6984,7.7292,7.6284,7.813,8.267,8.5016,8.694,8.841,8.6824,8.3593,7.9169,7.6322,7.363,7.1405,7.2514,7.2206,7.1021,7.0129,6.8513,6.6596,6.5897,6.609,6.6596,6.6244,0.0,0.0,0.0,0.0,6.4314,6.9398,7.1375,7.3845,8.2568,9.0535,9.862,10.8298,11.2,11.3607,11.4415,11.5112,11.581,11.6594,11.7498,11.8012,11.7498,11.8012,11.8416,11.8599,11.9003,11.9407,11.9614,12.0715,12.1303,12.0691,12.1303,12.1707,12.1707,12.1707,12.1903,12.26,12.3397,12.4302,12.5498,12.6489,12.7184,12.74,12.7617,12.7309,12.6401,12.5617,12.4601,12.3484,12.2498,12.2094,12.2306,12.2494,12.3004,12.3797,12.3797,12.3797,12.3797,12.359,12.3107,12.2278,12.1402,12.0617,11.979,11.881,11.7982,11.7507,0.0,0.0,0.0,0.0,0.0,0.0,0.0,0.0,0.0,0.0,6.384,6.3333,6.2568,6.2865,0.0,0.0,0.0,0.0,6.6013,0.0,0.0,7.4776,7.663,7.7599,7.7445,7.5861,7.5784,7.7292,7.5668,7.9623,8.8701,8.694,8.6632,8.7517,8.6555,8.2939,7.7369,7.3283,7.009,6.7673,6.6436,6.6282,6.6635,6.5782,6.5243,6.4936,6.482,6.4859,6.5128,6.6481,6.6558,0.0,0.0,0.0,6.3583,6.5166,6.7736,7.0739,7.3911,8.4977,9.7652,10.6022,11.0302,11.28,11.3593,11.3791,11.4084,11.5002,11.6323,11.7475,11.8122,11.8306,11.8599,11.9297,11.8893,11.8783,11.948,11.9187,11.9113,11.97,11.9908,11.9884,11.9884,11.9884,11.9994,12.0104,12.0197,12.1005,12.2677,12.3785,12.4711,12.5504,12.6413,12.6401,12.5419,12.53,12.4285,12.2515,12.1494,12.1508,12.229,12.3199,12.3707,12.3797,12.3797,12.3797,12.3703,12.2986,12.2612,12.2409,12.1487,12.1094,12.0796,11.9205,11.852,11.8208,0.0,0.0,0.0,0.0,0.0,0.0,0.0,0.0,0.0,0.0,0.0,6.4208,6.3756,6.3042,0.0,0.0,0.0,0.0,6.5788,6.8975,0.0,7.3245,7.4514,7.4938,7.4445,7.3707,7.3899,7.5168,7.3899,7.9246,9.0586,8.9479,9.121,9.498,9.0316,8.5747,8.1093,7.3937,6.9436,6.7019,6.582,6.7282,6.9706,6.5468,6.5628,6.7628,6.382,6.2781,6.3358,6.4589,6.5051,6.5166,6.5166,0.0,0.0,0.0,6.5628,6.9442,7.7976,8.7289,9.6409,10.4215,10.8285,11.0707,11.1992,11.3006,11.3703,11.4107,11.4708,11.5589,11.6801,11.7094,11.7204,11.7498,11.7682,11.7902,11.8195,11.8306,11.8489,11.8893,11.8893,11.8893,11.8893,11.8893,11.8893,11.8893,11.9392,12.0122,12.0907,12.1886,12.3081,12.4516,12.4995,12.551,12.5999,12.5516,12.4179,12.2285,12.1279,12.1385,12.2306,12.2801,12.3615,12.4606,12.5195,12.539,12.539,12.4512,12.3822,12.319,12.19,12.1284,12.1013,11.9298,11.8598,11.8512,0.0,0.0,0.0,0.0,0.0,0.0,0.0,0.0,0.0,0.0,0.0,6.4774,6.4744,0.0,0.0,0.0,0.0,0.0,6.5089,0.0,0.0,0.0,7.2283,7.2514,7.1867,7.1668,7.2091,7.3168,7.2514,7.8938,9.1825,9.1825,9.6019,10.3212,9.5548,8.947,8.4362,7.6284,7.1475,6.9289,6.8244,7.0129,7.3122,6.9507,7.036,7.2668,6.632,6.4172,6.4249,6.3545,6.3589,6.3974,6.3974,6.3512,0.0,0.0,0.0,6.7033,7.9086,8.5842,9.1388,9.9315,10.4003,10.722,10.9496,11.1184,11.2602,11.3189,11.3299,11.3681,11.5112,11.5406,11.5479,11.5883,11.6323,11.669,11.6911,11.7388,11.7792,11.7792,11.8012,11.8122,11.8122,11.8122,11.8122,11.8122,11.8803,11.9301,11.9524,12.0377,12.1588,12.2914,12.3177,12.4088,12.5586,12.4888,12.3575,12.1894,12.1214,12.1297,12.199,12.2196,12.3102,12.4503,12.5807,12.6312,12.6286,12.5694,12.4802,12.3815,12.2401,12.1711,12.1206,11.9816,11.9103,11.8602,0.0,0.0,0.0,0.0,0.0,0.0,0.0,0.0,0.0,0.0,0.0,0.0,6.4606,6.3788,6.2935,6.221,6.2133,0.0,0.0,0.0,0.0,0.0,7.0167,0.0,7.0975,7.0206,7.0629,7.229,7.2213,7.9523,9.3557,9.3557,9.9365,10.9406,10.1712,9.3326,8.4593,8.0062,7.7099,7.5399,7.3738,7.3276,7.4084,7.9323,8.1016,7.99,7.47,7.1822,6.9706,6.4891,6.282,6.221,6.221,6.221,6.1979,0.0,0.0,0.0,6.98,7.4729,7.9822,8.8758,9.5902,10.1788,10.5715,10.7881,10.9679,11.1992,11.2506,11.2689,11.3593,11.3681,11.4217,11.5796,11.5406,11.5185,11.5993,11.6103,11.6103,11.6103,11.6801,11.7314,11.7314,11.7314,11.7314,11.7314,11.7288,11.7701,11.8399,11.9417,11.9991,12.0089,12.0982,12.19,12.2691,12.2496,12.199,12.1007,12.0899,12.0899,12.1018,12.1902,12.2407,12.2597,12.4512,12.5315,12.5299,12.5378,12.4885,12.4002,12.3207,12.2299,12.1587,12.1409,12.0279,11.8811,0.0,0.0,0.0,0.0,0.0,0.0,0.0,0.0,0.0,0.0,0.0,0.0,0.0,6.4666,6.3782,6.2935,6.2403,0.0,0.0,0.0,0.0,0.0,6.8968,6.9552,7.0129,6.9314,6.9436,7.0591,7.0052,7.5745,8.7256,8.8902,9.2941,9.875,9.7096,9.4518,9.074,8.1016,7.6861,7.6746,7.5553,7.8361,8.3054,8.1362,8.4247,8.8248,8.0977,7.6938,7.4745,7.2899,6.9552,6.5974,6.4865,6.3403,6.1826,6.0396,6.1395,6.405,6.892,7.2606,7.7004,8.5038,9.1014,9.597,9.9989,10.4577,10.8306,10.9092,11.0619,11.1698,11.1992,11.291,11.3813,11.4401,11.4194,11.4084,11.4378,11.4511,11.4511,11.4511,11.5185,11.5699,11.5699,11.6103,11.6397,11.6397,11.6397,11.658,11.6801,11.7198,11.8201,11.981,11.9692,12.032,12.1611,12.1603,12.128,12.0912,12.0912,12.0912,12.0899,12.1177,12.1385,12.1499,12.2804,12.4023,12.5194,12.4594,12.4288,12.3985,12.3216,12.2716,12.2299,12.1101,12.0201,11.9485,0.0,0.0,0.0,0.0,0.0,0.0,0.0,0.0,6.4397,6.4384,0.0,0.0,0.0,0.0,6.4974,6.3852,6.3243,6.3288,6.4128,6.4436,0.0,0.0,6.8507,6.9237,7.009,6.9276,6.9122,6.9706,6.9122,7.3476,8.2362,8.4632,8.8286,9.2826,9.1364,9.2163,9.398,8.4939,8.1285,8.1554,8.1823,8.4824,8.9094,8.9133,9.2095,9.548,8.9594,8.544,8.2447,8.0177,7.5822,7.0898,6.8052,6.4442,6.1018,5.9858,6.132,6.3899,6.6522,6.9292,7.3404,8.149,8.5193,8.8846,9.6547,10.1017,10.4194,10.6302,10.8505,11.0193,11.0707,11.1721,11.2602,11.3116,11.3203,11.3203,11.3203,11.3387,11.3519,11.3203,11.3901,11.4415,11.4415,11.4892,11.5296,11.5589,11.5589,11.5699,11.5993,11.5993,11.6785,11.85,11.8299,11.8706,11.9782,12.0079,12.0104,12.0104,12.0288,12.0508,12.0508,12.0802,12.0912,12.0923,12.1613,12.2888,12.4698,12.4409,12.4199,12.4101,12.3793,12.3408,12.281,12.1921,12.1109,12.0405,0.0,0.0,0.0,0.0,0.0,0.0,0.0,0.0,6.4327,6.5826,0.0,0.0,0.0,0.0,0.0,6.4974,6.4743,6.432,6.3506,6.416,0.0,0.0,6.8783,7.009,7.0937,7.0167,6.9706,6.9706,6.9667,7.3053,7.9585,8.1246,8.6055,9.2941,8.5555,8.6363,9.321,9.1479,9.0441,9.0163,9.2518,9.221,9.1586,10.3097,10.502,10.151,10.0721,9.7644,9.3018,8.641,8.1254,7.6714,7.1398,6.5089,5.9627,5.955,6.0204,6.1133,0.0,0.0,0.0,7.735,7.8095,8.0445,9.512,9.6746,9.6998,10.3382,10.6119,10.7792,10.9496,10.9922,11.0414,11.1992,11.2286,11.2396,11.2396,11.2983,11.3203,11.2506,11.3116,11.3593,11.3593,11.3593,11.3901,11.4708,11.4818,11.5185,11.5993,11.5993,11.5993,11.5993,11.6801,11.7181,11.7181,11.8012,11.8416,11.8416,11.9187,11.9614,11.959,12.0508,12.0802,12.0802,12.0875,12.1916,12.3795,12.4682,12.4693,12.418,12.5,12.4397,12.3024,12.3793,12.2984,12.1399,0.0,0.0,0.0,0.0,0.0,6.9628,6.8811,6.8294,6.8186,0.0,0.0,0.0,7.0167,6.9975,6.9937,7.009,6.7827,6.6551,6.6968,6.5506,6.5628,6.793,6.9129,7.036,7.1828,7.1014,7.0283,6.9706,6.9084,7.0353,7.3399,7.5123,7.8361,8.2678,8.1823,8.2593,8.4362,8.0785,8.4132,9.1518,8.8517,9.2787,10.0981,10.1914,10.4905,10.8521,10.6982,10.4482,10.1481,9.8365,9.2095,8.3678,7.3053,6.6705,6.282,6.0973,6.2358,6.4134,6.2557,0.0,0.0,0.0,0.0,0.0,8.1366,8.4933,8.8757,9.5841,9.9035,10.1808,10.5715,10.7404,10.86,10.9606,11.0817,11.1515,11.1515,11.1698,11.1808,11.1588,11.2212,11.2689,11.2689,11.3299,11.3901,11.4708,11.4818,11.5185,11.5993,11.658,11.6617,11.5993,11.6801,11.7181,11.7181,11.7401,11.7828,11.8416,11.8599,11.8709,11.8783,11.959,11.959,11.9113,11.97,12.0304,12.11,12.248,12.3398,12.3997,12.4188,12.4082,12.3793,12.3985,12.2984,12.1399,0.0,0.0,7.3572,7.3385,7.3566,7.3305,7.2003,7.2091,7.2206,0.0,0.0,0.0,7.3476,7.4514,7.4784,7.386,7.0982,6.9129,6.893,6.6859,6.6474,6.8314,6.9552,7.1168,7.3206,7.2437,7.1745,7.1283,6.9699,6.9244,6.9898,7.1622,7.3283,7.4861,7.5515,7.6592,7.7669,7.336,7.8592,8.9979,9.1633,9.6365,10.2712,10.4982,10.779,11.0521,11.1291,10.9906,10.7598,10.6213,9.8634,8.7902,7.7246,7.1584,6.8052,6.4089,6.5596,6.7981,6.5436,6.6828,6.9375,7.0944,0.0,0.0,7.9114,8.1261,8.3893,9.1602,9.5166,9.808,10.1898,10.3917,10.5495,10.7,10.8321,10.9679,11.1001,11.1221,11.1221,11.1221,11.1588,11.1919,11.1919,11.2286,11.291,11.3717,11.4084,11.4782,11.5883,11.6397,11.6507,11.5993,11.6507,11.669,11.669,11.669,11.7094,11.7902,11.7902,11.8085,11.8416,11.8893,11.8819,11.8416,11.8893,11.9201,11.9296,12.0296,12.1498,12.2897,12.3603,12.3715,12.34,12.349,12.2905,12.1803,0.0,0.0,7.5558,7.6525,7.7259,7.7246,7.5899,7.6207,7.6438,0.0,7.6046,7.6823,7.8631,8.0516,8.0477,7.7515,7.4514,7.2098,7.0514,6.8436,6.7628,6.8507,7.0167,7.2168,7.4507,7.4123,7.3738,7.3353,7.1091,6.9475,6.8584,6.986,7.0167,6.9513,6.8622,7.0007,7.2738,6.986,7.5476,8.7094,9.6942,10.0596,10.1096,11.0214,11.2099,11.0406,11.4214,11.4099,11.2022,11.0714,10.2404,9.1248,8.3508,7.8777,7.4938,6.8936,7.0097,0.0,7.009,7.0744,0.0,7.6984,7.3966,0.0,8.22,8.1454,8.0935,8.853,9.1958,9.4448,9.7314,9.9204,10.098,10.3293,10.4798,10.689,11.0392,11.0905,11.0905,11.0905,11.1001,11.1111,11.1111,11.1089,11.1515,11.2286,11.3093,11.429,11.5773,11.5883,11.5883,11.5993,11.5993,11.5993,11.5993,11.5993,11.6397,11.7181,11.7181,11.7608,11.8306,11.8416,11.8306,11.8122,11.8195,11.8306,11.8306,11.8416,11.9503,12.1296,12.2879,12.3009,12.2394,12.2708,12.2687,12.21,7.5258,7.6237,7.7309,7.8842,7.9792,8.0708,8.1716,8.0862,8.1016,8.3555,8.4478,8.5824,8.8248,8.6478,8.5132,8.517,7.9746,7.5861,7.4822,7.0629,6.8545,6.9398,7.1052,7.2514,7.3699,7.5592,7.5214,7.2437,7.1975,7.0937,6.9436,6.8359,6.8129,6.8622,6.7744,6.8129,6.9776,7.5822,8.1785,8.7325,8.9479,9.7442,10.829,11.0983,11.3714,11.6215,11.6984,11.6984,11.5907,11.1598,10.629,9.9981,9.1595,8.7094,8.3632,7.7015,7.7553,7.9631,7.6438,7.7784,7.9169,7.5392,7.6336,0.0,7.3119,7.3881,7.638,7.9792,8.1051,8.3328,8.9023,9.1515,9.3088,9.4226,9.8374,10.3293,10.8505,10.9312,10.9312,10.9312,10.979,11.0193,11.0193,11.0817,11.1515,11.2286,11.3093,11.3974,11.5002,11.5002,11.5296,11.5993,11.5993,11.5993,11.5993,11.5993,11.6397,11.7181,11.7181,11.7291,11.7498,11.8122,11.7718,11.6507,11.7204,11.7401,11.7498,11.8122,11.9099,12.0305,12.1181,12.1601,12.1674,12.3104,12.2385,12.051,7.6397,7.7669,7.9208,8.1323,8.2747,8.4016,8.5286,8.5478,8.6555,8.9517,9.2479,9.371,9.2018,9.1056,8.9701,8.7594,8.2362,7.8477,7.6746,7.2668,7.0283,7.0283,7.1521,7.3014,7.4707,7.6015,7.5822,7.4091,7.2829,7.1129,6.9045,6.859,6.909,7.0244,6.936,7.0437,7.3053,7.6053,8.0746,8.6786,9.398,10.252,11.1214,11.4214,11.6599,11.8407,11.8407,11.8215,11.6984,11.1406,10.729,10.3212,9.6019,9.3133,9.1095,8.4324,8.4439,8.5824,8.1601,8.1677,8.2439,8.0323,7.9928,0.0,0.0,7.5766,7.6572,8.0591,7.9938,8.021,8.5587,8.6672,8.7559,9.0012,9.3933,9.786,10.109,10.4687,10.711,10.7587,10.7587,10.7881,10.8688,10.9224,11.0083,11.1698,11.2506,11.3409,11.4217,11.4598,11.5002,11.5406,11.581,11.5993,11.5993,11.5993,11.6397,11.7181,11.6801,11.6801,11.7181,11.7204,11.6801,11.5993,11.6397,11.6777,11.7181,11.7585,11.8309,11.9202,12.0016,12.0403,12.0496,12.1114,12.0398,11.9406,7.733,7.8631,8.0362,8.2909,8.4863,8.644,8.7478,8.894,9.1047,9.4249,9.8673,10.0019,9.6095,9.6288,9.5326,9.1825,8.6632,8.2631,8.06,7.6368,7.3591,7.2899,7.2899,7.4053,7.6438,7.6322,7.5938,7.5284,7.3206,7.0975,6.866,6.9206,7.0437,7.2175,7.1783,7.4014,7.7938,7.6361,8.0585,8.9355,10.1289,10.729,10.9713,11.5792,11.7984,11.7984,11.8792,11.8484,11.6896,11.1291,10.7905,10.4982,9.8942,9.7827,9.7403,9.0594,9.0556,9.1633,8.6833,8.6025,8.6448,8.617,8.4624,8.3016,0.0,0.0,0.0,8.2359,8.065,7.9575,8.3095,8.2615,8.2848,8.6311,8.937,9.1534,9.2075,9.787,10.2593,10.4084,10.421,10.4798,10.6507,10.6397,10.7425,11.0304,11.0487,11.1295,11.2983,11.3901,11.4488,11.4818,11.5406,11.581,11.5993,11.5993,11.6397,11.7181,11.6507,11.6617,11.7204,11.6507,11.6213,11.6213,11.6213,11.6801,11.7718,11.7718,11.8122,11.8893,11.9187,11.9297,11.9107,11.8887,11.871,11.8713,7.8061,7.8523,7.9446,8.2016,8.4478,8.6671,8.8295,8.9325,9.1894,9.748,10.0712,10.3597,10.6713,10.4597,10.3905,10.6213,9.775,9.2133,9.1873,8.4439,8.0054,7.9939,7.713,7.6399,7.8176,7.7522,7.5676,7.2636,7.2329,7.129,6.9552,6.8853,6.986,7.2252,7.3668,7.6669,8.0785,8.2777,9.0171,10.0904,10.3982,10.3212,10.1289,11.0906,11.4099,11.3907,11.7715,11.8484,11.71,11.2714,11.0483,10.8493,10.1799,10.1299,10.1789,9.498,9.5326,9.7134,9.3518,9.4749,9.5326,8.794,9.0825,9.221,7.9708,0.0,8.1444,7.6817,0.0,7.7046,7.8245,0.0,0.0,7.8972,8.2397,8.4829,8.4414,8.8186,9.2428,9.6267,9.9145,10.1494,10.3109,10.2008,10.2999,10.7682,10.5385,10.5988,11.1221,11.2212,11.3313,11.4782,11.4892,11.5296,11.5993,11.5993,11.6397,11.7181,11.7071,11.7071,11.7181,11.7071,11.7094,11.7094,11.7094,11.7902,11.9297,11.9297,11.9811,12.0508,11.9113,11.8122,11.7711,11.911,11.9194,11.8892,7.7484,7.8592,7.99,8.1939,8.3593,8.5901,8.9594,9.6711,10.1904,10.2404,10.7713,11.1291,11.1098,10.9406,10.8482,10.8906,10.3597,9.8634,9.4711,8.9748,8.5863,8.3401,8.0516,7.9285,7.9977,7.7746,7.5592,7.3668,7.2168,7.0591,6.8968,6.9584,7.2283,7.6746,7.9431,8.4085,8.9902,8.9479,9.2172,9.698,9.9635,9.9365,9.8904,11.2983,11.8215,11.81,11.9908,11.9985,11.8484,11.3791,11.0714,10.829,10.5992,10.3597,10.1414,9.9981,9.8865,9.7403,9.448,9.548,9.6019,9.0441,9.1479,9.1633,8.3093,8.09,8.0369,7.9323,0.0,0.0,0.0,0.0,0.0,0.0,7.9569,8.0643,7.9478,8.2557,8.6671,9.1416,9.2758,9.4483,9.753,9.8043,9.9622,10.3109,10.2485,10.388,10.8211,11.0487,11.2212,11.3387,11.3901,11.4488,11.5296,11.5296,11.5699,11.6507,11.6507,11.6507,11.6507,11.6507,11.6507,11.6507,11.7021,11.7805,11.8903,11.9505,12.0181,12.08,11.9689,11.9001,11.8596,11.8919,11.9226,11.9615,7.6984,0.0,7.99,8.1362,8.2901,8.5901,9.171,10.0981,10.7223,10.6608,11.2099,11.5792,11.5215,11.4407,11.4022,11.4099,11.1098,10.679,10.0894,9.6634,9.2979,8.9902,8.5286,8.3054,8.3516,7.9515,7.6515,7.47,7.2629,7.0968,6.9814,7.0783,7.4053,7.9285,8.367,8.9594,9.6249,9.5326,9.6519,9.9211,10.0712,10.2097,10.4405,11.5407,12.0419,12.1612,12.1293,12.0793,11.9485,11.4407,11.1098,10.8983,10.8406,10.5405,10.2404,10.3597,10.202,9.925,9.598,9.6711,9.7057,9.1556,9.0671,8.9787,8.4401,8.1823,8.0793,8.1477,7.9977,0.0,0.0,0.0,7.6244,7.7546,0.0,7.7976,7.6414,7.8253,8.1451,8.6115,8.7355,8.905,9.2024,9.2758,9.4593,9.8374,9.8337,10.0523,10.5789,10.8505,11.0707,11.2286,11.3006,11.3703,11.4488,11.4708,11.5112,11.5699,11.5883,11.5993,11.5993,11.5993,11.6103,11.642,11.7499,11.8408,11.9214,12.0086,12.079,12.1182,12.0407,11.9985,11.9908,11.9003,11.9402,12.0394,7.7138,7.7984,7.883,7.97,8.2623,8.7393,9.498,9.8557,10.2722,10.9185,11.0983,11.4214,12.0612,12.0485,12.1985,12.6909,12.2716,11.8292,11.4907,10.6905,10.2212,10.202,9.2518,8.7979,8.9586,8.3901,7.89,7.47,7.3853,7.3392,7.3315,7.2514,7.4021,7.7676,8.4362,9.0671,9.6519,9.9663,10.6713,11.5495,11.2291,11.4984,12.0292,11.5907,11.7292,12.1497,12.06,12.0292,11.9485,11.4407,11.2588,11.178,10.778,10.6895,10.6982,10.4597,10.4982,10.501,9.9981,10.1096,10.1096,9.021,8.9363,8.9017,8.0639,8.2401,8.4709,8.07,8.4324,8.7025,8.2978,8.1469,0.0,0.0,7.7831,0.0,0.0,7.4778,7.5833,7.9317,8.4062,8.7088,8.7198,8.5179,8.6794,9.3932,9.1565,9.4263,10.4593,10.6009,10.8416,11.2286,11.2396,11.28,11.3593,11.4415,11.4818,11.4796,11.5589,11.5993,11.5993,11.5993,11.6397,11.7311,11.9009,12.0311,12.1093,12.1913,12.219,12.2211,12.121,12.0923,12.0802,11.9884,12.0215,12.128,7.9746,8.0946,8.1447,8.0054,8.217,8.6978,9.5749,10.3597,11.0291,11.5407,11.9292,12.3485,12.8614,12.8422,12.8794,13.1102,12.8679,12.4909,11.9804,11.4687,11.0983,10.9406,10.1712,9.6942,9.5826,8.997,8.4555,7.9746,7.7784,7.6553,7.6015,7.513,7.6553,8.0092,8.6286,9.3326,10.0712,10.4097,10.8521,11.3099,11.2511,11.6407,12.2216,11.9908,12.0112,12.1612,12.1304,12.1189,12.0677,11.7907,11.5407,11.3483,11.3214,11.0214,10.7098,10.8521,10.7713,10.601,10.4289,10.5905,10.5713,9.5788,9.3941,9.221,8.3093,8.3632,8.4901,8.0662,8.4555,8.741,8.3093,0.0,0.0,0.0,0.0,0.0,0.0,7.2358,7.2418,7.4099,7.8519,8.1452,8.1452,8.1672,8.3931,8.9087,8.9931,9.3382,10.0703,10.4981,10.8314,11.0804,11.19,11.3206,11.459,11.4785,11.5121,11.5714,11.5878,11.5993,11.5993,11.5993,11.6103,11.6503,11.8325,11.9512,12.0414,12.1223,12.191,12.219,12.0706,12.0102,12.0104,12.0398,12.1079,12.2203,8.1977,8.287,8.3101,8.1439,8.4755,9.0411,9.8519,10.8213,11.5896,11.9908,12.4909,12.941,13.3103,13.318,13.3487,13.4693,13.3487,13.0102,12.3805,12.0793,11.7907,11.5099,10.929,10.5097,0.0,9.7596,9.1633,8.5016,8.3062,8.11,7.9054,7.79,7.8707,8.1362,8.7278,9.4124,10.1597,10.679,11.1406,11.5215,11.6022,11.9023,12.2793,12.1908,12.1612,12.1612,12.1612,12.1612,12.1293,11.9715,11.76,11.5907,11.6418,11.3291,10.9906,11.1791,11.078,10.878,10.7598,10.8713,10.8213,10.0096,9.8096,9.5711,8.6632,8.7248,8.844,8.3901,8.6517,8.9133,8.7555,8.4632,0.0,0.0,0.0,0.0,0.0,7.1152,7.1151,7.1001,7.4458,7.7264,7.8345,7.8155,8.0241,8.573,8.6811,9.0555,9.8264,10.3291,10.7203,10.9994,11.201,11.3495,11.4687,11.4516,11.489,11.569,11.5599,11.5699,11.5993,11.5993,11.5993,11.6085,11.8482,11.9906,12.049,12.2016,12.2706,12.2691,12.0886,12.0,11.9724,12.0214,12.1496,12.3004,8.387,8.4101,8.4332,8.4524,9.0372,9.7143,10.3289,11.1906,11.91,12.2793,12.7717,13.191,13.4487,13.5411,13.6488,13.8117,13.7488,13.418,12.7602,12.5486,12.3101,11.9908,11.5599,11.2483,11.0714,0.0,0.0,9.047,8.9286,8.6602,8.2516,8.0708,8.0323,8.14,8.7201,9.3133,9.9365,10.779,11.5407,12.1804,12.2601,12.2985,12.2908,12.1908,12.1612,12.1612,12.1612,12.1612,12.1293,11.9715,11.91,11.8792,11.71,11.5995,11.5187,11.4407,11.4099,11.3407,11.0214,10.9906,10.9098,10.3289,10.1702,9.9404,9.1142,9.3095,9.5249,9.0141,9.0556,9.271,9.5518,9.0047,8.5047,0.0,0.0,0.0,0.0,7.1112,7.1931,7.0128,7.2113,7.4738,7.7537,7.4667,7.5903,8.3728,8.2333,8.5967,9.7072,10.0906,10.4888,10.9715,11.24,11.3802,11.3911,11.3786,11.4091,11.4796,11.4802,11.5185,11.5883,11.5993,11.5993,11.6204,11.9704,12.1208,12.1392,12.3893,12.44,12.3499,12.1616,12.0289,11.948,11.959,12.1382,12.3797,8.7525,9.0902,9.4711,9.7288,9.6749,9.9058,10.8213,11.3714,11.9677,12.7486,13.2987,13.7603,14.1412,14.1412,14.1104,14.0912,14.0104,13.8104,13.4411,13.1987,12.9987,12.8486,12.4409,12.0716,11.7792,11.1098,0.0,9.8356,9.1864,8.7795,8.6017,8.2439,8.1208,8.217,8.6247,9.2056,9.925,10.6482,11.4907,12.3485,12.3716,12.3793,12.3601,12.2189,12.1612,12.1612,12.1612,12.1612,12.142,12.0408,11.96,11.8908,11.7792,11.6907,11.6099,11.5907,11.5918,11.5687,11.4802,11.4687,11.3907,10.9906,10.701,10.3712,9.8375,9.9644,10.0481,9.5403,9.7711,9.8981,9.3518,9.0393,8.7393,0.0,0.0,0.0,0.0,7.2841,7.3054,7.4219,7.3293,7.2484,7.2194,7.3821,7.6318,7.9884,8.1782,8.617,9.3932,9.7982,10.211,10.6397,11.0087,11.2598,11.3911,11.3786,11.3793,11.3997,11.4492,11.4892,11.5112,11.5699,11.5993,11.6094,11.8392,11.9777,12.0491,12.1115,12.1592,12.1711,11.9179,11.8401,11.8783,11.9407,12.1382,12.3797,9.2402,9.8211,10.4097,10.7598,10.7098,10.829,11.4407,11.7907,12.2408,12.9602,13.4911,13.8925,14.0912,14.2989,14.3912,14.3105,14.1912,13.9912,13.6988,13.5501,13.3808,13.1795,12.941,12.6717,12.3716,11.7215,0.0,10.351,9.6134,9.0787,8.7325,8.3439,8.1862,8.2477,8.6247,9.1364,9.7797,10.7905,11.6407,12.3101,12.3793,12.4101,0.0,12.2716,12.1908,12.1612,12.1612,12.1612,12.142,12.0216,11.9485,11.8908,11.76,11.6907,11.6495,11.6495,11.6495,11.6495,11.6495,11.6495,11.5984,11.4214,11.2214,10.9483,10.4597,10.4482,10.4405,10.0404,10.0404,10.0404,9.825,9.321,8.7478,0.0,0.0,0.0,0.0,0.0,7.4041,7.3653,7.3586,7.2398,6.9338,7.1276,7.3915,7.6784,7.9307,8.3418,8.9564,9.5773,10.0906,10.4718,10.9014,11.2212,11.3911,11.3374,11.3403,11.3718,11.4087,11.4488,11.4818,11.5589,11.5993,11.6094,11.8392,11.9588,12.0186,12.1312,12.1809,12.1679,11.9789,11.9491,12.0219,12.0702,12.2115,12.3889,9.8327,10.5482,11.2099,11.5099,11.8292,12.0908,12.2293,12.4216,12.7101,13.1295,13.6309,13.9117,13.8181,14.2797,14.549,14.4591,14.3105,14.0912,13.768,13.7411,13.5795,13.2487,13.241,13.1102,12.8486,12.3101,11.5907,0.0,10.0404,9.371,8.7017,8.3785,8.217,8.217,8.6563,9.145,9.7182,11.0493,11.8303,12.1677,12.3408,12.4216,12.4216,12.3204,12.2408,12.1804,12.16,12.1612,12.142,11.9792,11.9215,11.8792,11.7176,11.6611,11.6495,11.6495,11.6495,11.6495,11.6495,11.6495,11.6495,11.6495,11.6495,11.511,10.9713,10.8482,10.779,10.5405,10.1712,10.0404,10.501,9.6673,8.691,8.0408,7.8754,0.0,0.0,0.0,0.0,0.0,7.4207,0.0,6.8654,6.9048,7.1015,7.4331,7.5968,7.9454,8.549,9.3287,9.9541,10.3803,10.8493,11.1779,11.3705,11.2999,11.2902,11.3389,11.3619,11.4095,11.4708,11.5589,11.5993,11.6094,11.8823,11.989,12.0104,12.2602,12.2993,12.21,12.1393,12.1588,12.2399,12.2615,12.3205,12.3885,10.5405,11.1598,11.6715,11.7292,12.2908,12.8909,13.318,13.368,13.4795,13.8411,14.3297,14.6105,14.5182,14.6105,14.6413,14.549,14.4489,14.3105,14.1104,14.0296,13.8719,13.5988,13.5911,13.4411,13.1102,12.3985,11.6792,0.0,10.0096,9.197,8.5286,8.3247,8.1554,8.0431,8.5401,9.348,10.3799,11.1291,11.7215,12.1677,12.3408,12.4486,12.4986,12.3485,12.2793,12.2601,12.1908,12.1612,12.1408,12.0408,11.96,11.8908,11.7907,11.71,11.6495,11.6495,11.6495,11.6495,11.6495,11.6495,11.6495,11.6495,11.6495,11.5918,11.3407,11.2906,11.2406,11.0511,10.8406,10.6213,10.3712,9.6403,8.9248,8.4555,8.367,8.3632,0.0,0.0,0.0,0.0,7.8479,7.6357,7.1018,7.2346,7.3367,7.2943,7.3817,7.7671,8.5397,8.7919,9.3415,10.2687,10.6502,10.9806,11.2701,11.3416,11.2982,11.1711,11.3687,11.4413,11.3923,11.5296,11.5993,11.6094,11.8092,11.9022,11.9091,12.0387,12.0296,11.9493,12.0093,12.0796,12.1714,12.3205,12.3791,12.3885,11.5099,11.8523,12.1908,12.4486,12.9487,13.468,13.9412,14.1989,14.2912,14.1489,14.2989,14.4105,14.3682,14.5605,14.6682,14.6413,14.5605,14.4489,14.3297,14.1989,14.0489,13.8796,13.7488,13.5603,13.3103,12.6409,11.9215,11.1483,10.2212,9.3941,8.6786,8.3708,8.1862,8.14,8.8286,9.6489,10.5492,11.1906,11.71,12.1177,12.3716,12.4986,12.5293,12.3985,12.3293,12.2793,12.1908,12.1612,12.142,12.01,11.9408,11.8908,11.7484,11.6792,11.6495,11.6495,11.6495,11.6495,11.6495,11.6495,11.6495,11.6495,11.6495,11.611,11.4407,11.3984,11.3483,11.178,11.0098,10.729,10.2212,9.6134,9.121,8.9171,8.6632,8.5508,8.7209,0.0,8.2942,0.0,0.0,0.0,7.12,7.2708,7.2936,7.0211,7.1908,7.5873,8.2349,8.5416,9.1283,10.0593,10.3996,10.7491,11.1206,11.2514,11.2701,11.1877,11.3907,11.4704,11.4276,11.5494,11.5993,11.6094,11.8018,11.8778,11.8899,12.0283,12.1198,12.1485,12.1599,12.2591,12.4118,12.4012,12.4194,12.459,12.3524,12.5281,12.7794,13.1795,13.5911,13.9796,14.3105,14.7798,14.9221,14.4412,14.3181,14.272,14.2489,14.5297,14.7182,14.7182,14.6297,14.5297,14.4489,14.2989,14.1681,14.0604,13.8488,13.6488,13.4911,12.9294,12.2293,11.3791,10.5482,9.7336,8.941,8.5486,8.4132,8.5324,9.2565,9.976,10.679,11.2791,11.7484,12.1408,12.4216,12.5486,12.5601,12.4716,12.3909,12.3024,12.2216,12.1804,12.142,11.9908,11.9215,11.8792,11.6984,11.6495,11.6495,11.6495,11.6495,11.6495,11.6495,11.6495,11.6495,11.6495,11.6495,11.611,11.4407,11.3984,11.3483,11.178,11.0098,10.6982,10.0914,9.698,9.4095,9.2479,8.9171,8.7401,8.9257,8.7897,0.0,0.0,0.0,0.0,7.1886,7.2321,7.1797,6.8886,7.0721,7.4404,8.0,8.3911,9.0016,9.8836,10.2227,10.5784,10.9695,11.2009,11.2889,11.2509,11.4286,11.5087,11.4925,11.5724,11.6094,11.6403,11.8112,11.9001,11.9498,12.122,12.2716,12.3793,12.3485,12.4716,12.6309,12.4992,12.4817,12.5217,12.7205,13.1218,13.4603,13.5103,14.0489,14.499,14.5413,14.9106,15.1414,15.0106,14.9798,14.949,14.8721,14.8298,14.8106,14.8106,14.6605,14.5297,14.4489,14.3489,14.2297,14.0681,13.9604,13.8296,13.6603,13.2295,12.5909,11.7281,10.9598,10.1096,9.2095,8.9372,9.0133,9.3932,9.7057,10.3097,11.1098,11.3984,11.86,12.3793,12.4986,12.5909,12.6486,12.5601,12.4716,12.3909,12.3101,12.2293,12.1497,12.0485,11.9715,11.8792,11.6984,11.6495,11.6495,11.6495,11.6495,11.6495,11.6495,11.6495,11.6495,11.6495,11.6495,11.611,11.4407,11.3984,11.3483,11.178,11.0098,10.6905,10.0212,10.0404,9.9404,9.2441,9.221,9.271,9.221,8.9476,8.6809,8.4953,0.0,0.0,7.5398,7.2537,7.1156,7.174,7.0887,7.3707,8.1578,8.2406,8.7709,9.8733,10.2286,10.5602,10.8911,11.2911,11.4097,11.2509,11.4995,11.5691,11.4925,11.5724,11.6491,11.7308,11.8409,11.9809,12.1395,12.2399,12.2908,12.3216,12.4601,12.5293,12.5601,12.6194,12.5882,12.5217,13.5411,13.5911,13.7411,14.0989,14.2989,14.5182,14.8221,15.0606,15.1914,15.1491,15.0991,15.0606,15.0298,14.949,14.899,14.899,14.7913,14.6798,14.599,14.4605,14.3297,14.2181,14.0796,13.9296,13.7603,13.391,12.8602,12.16,11.3896,10.6713,9.9981,9.6442,9.6749,10.0519,10.4597,10.9213,11.3984,11.81,12.1485,12.4216,12.5601,12.6421,12.6601,12.5678,12.4909,12.3985,12.3216,12.2293,12.1497,12.06,11.9792,11.8985,11.8292,11.7292,11.6611,11.71,11.6907,11.6495,11.6495,11.6495,11.6495,11.6495,11.6495,11.611,11.4407,11.3984,11.3483,11.178,11.0098,10.779,10.402,10.1712,9.9981,9.8981,9.5942,9.4287,9.6019,9.2968,0.0,8.8481,0.0,8.1154,7.8121,7.48,7.3458,7.5008,7.1555,7.2275,7.8904,8.1101,8.6244,9.5141,10.1013,10.5301,10.8118,11.2793,11.4796,11.4097,11.6195,11.6884,11.6603,11.7306,11.7903,11.8317,11.8583,11.9492,12.0884,12.2291,12.3216,12.3716,12.4409,12.5293,12.6103,12.5295,12.5101,12.4989,14.1412,14.0681,14.1296,14.6297,14.6413,14.6913,15.0491,15.1606,15.1991,15.1991,15.1491,15.1106,15.1106,15.0298,14.9914,14.9914,14.8798,14.7798,14.699,14.5605,14.4297,14.3105,14.1681,14.0181,13.8488,13.5603,13.141,12.5986,11.9292,11.3407,10.8416,10.4597,10.4713,10.8213,11.2291,11.5599,11.8484,12.21,12.4216,12.5293,12.6294,12.669,12.6601,12.5986,12.5216,12.4409,12.3524,12.2716,12.1793,12.0985,12.01,11.9408,11.9215,11.81,11.6984,11.76,11.7215,11.6495,11.6495,11.6495,11.6495,11.6495,11.6495,11.6099,11.4714,11.4214,11.3407,11.1214,10.979,10.829,10.6405,10.3097,10.0981,10.2212,9.8567,9.6066,9.749,9.4672,0.0,9.0357,8.5973,8.2302,8.0362,7.7004,7.5874,7.8237,7.5332,7.5324,7.9559,8.2163,8.7016,9.4569,10.1279,10.5906,10.8319,11.2923,11.5224,11.521,11.6912,11.7699,11.7708,11.8503,11.8778,11.8796,11.9106,11.9615,12.0317,12.2179,12.3408,12.4101,12.4409,12.5409,12.6514,12.5214,12.5096,12.5483,14.3912,14.572,14.7605,15.0221,15.1298,15.1914,15.1991,15.1991,15.1991,15.1991,15.1991,15.1991,15.1991,15.1221,15.0721,15.0721,14.9183,14.7798,14.699,14.6105,14.4913,14.3181,14.2297,14.1104,13.9296,13.7603,13.468,13.041,12.6101,12.1408,11.6303,11.3714,11.4407,11.7715,11.9408,12.21,12.5293,12.5293,12.6294,12.7794,12.6986,12.669,12.669,12.669,12.6101,12.5293,12.4409,12.3601,12.2793,12.1908,12.0985,12.01,11.9408,11.8484,11.7792,11.7792,11.7215,11.6495,11.6495,11.6495,11.6495,11.6495,11.6495,11.6303,11.5495,11.4599,11.2983,10.9598,10.8906,10.8098,10.5607,10.5107,10.3722,9.9519,9.9529,9.8875,9.5528,9.3566,0.0,9.0115,8.47,8.1431,8.22,7.8688,7.7778,8.1175,8.3161,8.4647,8.5645,8.6499,9.0651,9.8777,10.3912,10.7606,10.9995,11.348,11.5224,11.521,11.6912,11.7699,11.7708,11.8503,11.8778,11.8923,11.9786,12.0206,12.0317,12.2179,12.3408,12.4216,12.4986,12.5909,12.6678,12.6717,12.6717,12.6717,14.8413,14.9106,14.9914,15.1298,15.1799,15.1991,15.1991,15.1991,15.1991,15.1991,15.1991,15.1991,15.1991,15.1221,15.0721,15.0721,14.9183,14.8106,14.7798,14.649,14.5182,14.3989,14.3181,14.1604,13.9283,13.8181,13.6411,13.391,12.9102,12.4716,12.0908,12.06,12.1408,12.3101,12.4716,12.6101,12.7089,12.7717,12.8294,12.8794,12.8486,12.7986,12.7486,12.7486,12.6601,12.5409,12.5101,12.4101,12.2908,12.2601,12.1908,12.11,12.0908,11.9792,11.8715,11.8715,11.81,11.7292,11.6688,11.6495,11.6495,11.6495,11.6495,11.6303,11.5495,11.4214,11.2483,11.0214,10.929,10.8482,10.7098,10.5905,10.4492,10.2597,10.1106,9.9529,9.7836,9.4634,9.2479,9.2479,8.8825,8.6371,8.664,8.4447,8.327,8.3892,8.3493,8.3479,8.4064,9.0152,9.4529,9.6584,10.471,10.9701,11.099,11.439,11.6385,11.6999,11.81,11.9301,12.0312,11.9887,11.9402,11.8796,11.9085,11.8903,11.8409,12.0193,12.1513,12.2485,12.3914,12.5017,12.5909,12.6486,12.669,12.669,15.0606,15.0991,15.1414,15.1914,15.1991,15.1991,15.1991,15.1991,15.1991,15.1991,15.1991,15.1991,15.1991,15.0991,15.0491,15.1106,14.9683,14.8683,14.8683,14.7105,14.5605,14.4489,14.3912,14.222,13.9412,13.8796,13.7488,13.5488,13.141,12.8409,12.6717,12.6601,12.6986,12.7794,12.8909,12.9294,12.9294,12.9602,12.9717,12.9717,12.9294,12.8909,12.8409,12.8012,12.7294,12.6294,12.5601,12.4716,12.3716,12.3101,12.2485,12.1985,12.1689,12.0908,11.9985,11.96,11.8715,11.7715,11.71,11.6715,11.6495,11.6495,11.6495,11.6303,11.5495,11.4214,11.2714,11.0983,10.9713,10.8713,10.779,10.6521,10.5213,10.4097,10.1981,9.9981,9.8519,9.548,9.3412,9.3249,9.1411,8.9872,8.921,8.9325,8.9125,8.8384,8.9772,9.0383,8.9699,9.4116,9.7706,10.0008,10.7603,11.2214,11.3407,11.5495,11.6907,11.7792,11.8985,12.0292,12.1589,12.0597,11.9694,11.8778,11.8778,11.8317,11.7509,11.9382,12.091,12.2081,12.3222,12.4506,12.5909,12.6101,12.6409,12.669,15.0798,15.1414,15.1991,15.1991,15.1991,15.1991,15.1991,15.1991,15.1991,15.1991,15.1991,15.1991,15.1991,15.0606,15.0221,15.1799,15.0298,14.9284,14.9284,14.7798,14.6182,14.4489,14.4412,14.2783,13.9488,13.9296,13.8104,13.5488,13.3103,13.241,13.3115,13.141,13.1102,13.1795,13.1679,13.1679,13.1679,13.091,13.0602,13.0487,12.9717,12.9294,12.9217,12.8397,12.8012,12.7705,12.6101,12.5486,12.5178,12.3601,12.3024,12.2793,12.1985,12.1689,12.142,12.06,11.9215,11.8023,11.7907,11.7292,11.6611,11.6611,11.6484,11.6303,11.5495,11.4714,11.3599,11.1895,11.0214,10.879,10.7905,10.701,10.5779,10.4097,10.2404,10.0279,9.7865,9.6095,9.4527,9.3018,9.2903,9.2287,9.0663,9.3441,9.4989,9.4018,9.9904,10.2585,10.0519,9.8453,10.0592,10.7711,11.1907,11.4907,11.6495,11.6611,11.71,11.8023,11.96,12.0793,12.1589,12.0689,11.9786,11.8882,11.8882,11.8389,11.7611,11.9386,12.1092,12.2583,12.2793,12.4411,12.6409,12.5678,12.5986,12.669,15.1683,15.1914,15.1991,15.1991,15.1991,15.1991,15.1991,15.1991,15.1991,15.1991,15.1991,15.1991,15.1991,15.1106,15.0606,15.0991,14.8913,14.749,14.749,14.7105,14.6182,14.4489,14.4412,14.3105,14.0412,13.9604,13.8104,13.5488,13.4911,13.4411,13.3987,13.291,13.25,13.2692,13.1987,13.1679,13.1679,13.1487,13.141,13.141,13.1179,13.0718,13.0217,12.9987,12.9102,12.7782,12.7486,12.6486,12.5293,12.4909,12.3985,12.2985,12.3408,12.2601,12.142,12.06,11.9985,11.96,11.8985,11.8215,11.7484,11.7484,11.6984,11.6303,11.5495,11.5099,11.4484,11.2791,11.1588,11.0406,10.8906,10.7405,10.5587,10.3289,10.1481,9.9712,9.7788,9.6634,9.6057,9.6288,9.6903,9.7134,9.6711,9.8028,9.8259,9.6711,9.8711,10.0586,10.2002,10.401,10.6215,10.8692,11.2801,11.5495,11.6495,11.7215,11.8215,11.9715,12.0793,12.142,12.16,12.1419,12.0819,11.9901,11.9901,11.93,11.8478,11.8895,11.9812,12.0884,12.2216,12.3584,12.4909,12.5986,12.6486,12.669,15.1991,15.1991,15.1991,15.1991,15.1991,15.1991,15.1991,15.1991,15.1991,15.1991,15.1991,15.1991,15.1991,15.0914,15.0221,15.0221,14.849,14.749,14.749,14.6798,14.5797,14.4489,14.3989,14.2797,14.0604,14.0104,13.8796,13.668,13.6296,13.568,13.4795,13.3603,13.3,13.3,13.2102,13.1679,13.1679,13.1679,13.1679,13.1679,13.1679,13.141,13.0987,13.0602,12.9717,12.8397,12.8012,12.7101,12.5909,12.5486,12.4793,12.3985,12.4101,12.3485,12.2601,12.1716,12.0908,12.0216,11.9792,11.8985,11.8292,11.7907,11.71,11.6418,11.5907,11.561,11.4984,11.4099,11.2599,11.1203,11.0291,10.8098,10.5703,10.352,10.1491,9.9375,9.725,9.6903,9.7326,9.8519,9.9788,10.0789,10.1597,10.2789,10.2904,10.1096,10.2904,10.4597,10.5982,10.8906,11.0584,11.068,11.4119,11.6215,11.71,11.8292,11.9408,12.0292,12.1177,12.1612,12.1612,12.1612,12.1093,12.0221,12.0221,11.9906,11.9397,11.9878,12.0782,12.2019,12.301,12.4098,12.5409,12.5909,12.6421,12.669,15.1991,15.1991,15.1991,15.1991,15.1991,15.1991,15.1991,15.1991,15.1991,15.1991,15.1991,15.1914,15.1799,15.0414,14.9399,14.9298,14.849,14.799,14.799,14.6682,14.5413,14.4399,14.3682,14.2489,14.0796,14.0681,13.9796,13.8117,13.7411,13.6603,13.568,13.4103,13.3308,13.3192,13.2307,13.1795,13.1679,13.1679,13.1679,13.1679,13.1679,13.1679,13.1602,13.091,13.0102,12.9294,12.8397,12.7602,12.6678,12.5909,12.5486,12.5293,12.4716,12.4293,12.3985,12.3408,12.21,12.0716,12.0485,11.9792,11.8908,11.8023,11.71,11.6495,11.6495,11.5995,11.5407,11.5291,11.3599,11.2022,11.1588,10.8895,10.6097,10.3905,10.1712,9.9336,9.6673,9.7442,9.8865,10.0491,10.2289,10.3982,10.5713,10.7098,10.7405,10.629,10.879,11.0483,11.0801,11.2906,11.3907,11.3291,11.5484,11.7215,11.8215,11.96,12.0408,12.0485,12.1177,12.1689,12.1793,12.1793,12.1386,12.0812,12.0812,12.0814,12.0782,12.1605,12.2684,12.3992,12.42,12.5216,12.6409,12.5794,12.6101,12.669,15.1991,15.1991,15.1991,15.1991,15.1991,15.1991,15.1991,15.1991,15.1991,15.1991,15.1991,15.1683,15.0991,15.0106,14.9221,14.849,14.7605,14.7105,14.7105,14.6913,14.599,14.4489,14.4297,14.3412,14.1681,14.0989,13.9796,13.8117,13.8001,13.7501,13.6603,13.5603,13.4718,13.4103,13.318,13.241,13.1679,13.1679,13.1679,13.1679,13.1679,13.1679,13.1679,13.1602,13.0987,13.0217,12.9294,12.8397,12.7602,12.6794,12.5986,12.5486,12.6101,12.5293,12.4216,12.4793,12.3793,12.2293,12.16,12.0292,11.8908,11.8023,11.71,11.6495,11.6495,11.6418,11.6099,11.5407,11.4984,11.4099,11.1906,10.9906,10.7021,10.2395,10.1404,9.9981,9.6749,9.9481,10.2212,10.3212,10.5405,10.7598,10.9213,10.8983,10.9483,11.1406,11.1406,11.1906,11.3291,11.4484,11.5291,11.5918,11.6984,11.8292,11.9908,12.0216,12.0677,12.142,12.1485,12.1985,12.2716,12.2716,12.3003,12.3494,12.3494,12.3509,12.3497,12.3598,12.3801,12.4198,12.4911,12.5409,12.5678,12.6306,12.6614,12.669,15.1991,15.1991,15.1991,15.1991,15.1991,15.1991,15.1991,15.1991,15.1991,15.1991,15.1606,15.1106,15.0721,14.9606,14.8606,14.8182,14.7413,14.6913,14.6913,14.649,14.572,14.4489,14.3989,14.3105,14.1912,14.1489,14.0681,13.9412,13.8988,13.8296,13.7501,13.6103,13.5103,13.4295,13.341,13.2487,13.1679,13.1679,13.1679,13.1679,13.1679,13.1679,13.1679,13.1679,13.1179,13.041,12.9987,12.9294,12.8486,12.7602,12.7101,12.6717,12.6678,12.6101,12.5486,12.5409,12.4216,12.2716,12.1793,12.0677,11.96,11.9215,11.8215,11.7215,11.7215,11.6792,11.6418,11.5995,11.561,11.4907,11.3791,11.1406,10.879,10.6482,10.3789,10.1597,10.0519,10.2097,10.3982,10.5713,10.8213,11.0406,11.2099,11.1906,11.2099,11.3291,11.3099,11.3407,11.4599,11.5099,11.5907,11.7215,11.8484,11.9485,12.0292,12.1216,12.1908,12.2293,12.2716,12.3216,12.3524,12.3524,12.3716,12.4101,12.4101,12.4409,12.4793,12.4793,12.5101,12.5486,12.5909,12.6101,12.6101,12.6614,12.669,12.669,15.1991,15.1991,15.1991,15.1991,15.1991,15.1991,15.1991,15.1991,15.1991,15.1991,15.1414,15.0914,15.0721,14.9413,14.8413,14.8182,14.7413,14.6913,14.6913,14.6297,14.549,14.4399,14.3412,14.2489,14.1912,14.1912,14.1489,14.0604,13.9912,13.9104,13.8117,13.668,13.5488,13.4295,13.3603,13.2679,13.1679,13.1679,13.1679,13.1679,13.1679,13.1679,13.1679,13.1679,13.1295,13.0794,13.0602,13.0102,12.941,12.8486,12.8205,12.8102,12.7217,12.6986,12.6794,12.5986,12.4601,12.3293,12.2216,12.11,12.0292,12.0292,11.9215,11.81,11.81,11.76,11.6984,11.6792,11.6292,11.5792,11.5418,11.2983,11.0791,10.979,10.6482,10.4097,10.4212,10.4905,10.6213,10.829,11.0714,11.2714,11.4214,11.4291,11.4407,11.4599,11.4599,11.4984,11.5792,11.5907,11.6599,11.8292,11.96,12.0485,12.0908,12.2216,12.3024,12.3216,12.3793,12.4216,12.4409,12.4409,12.4486,12.4716,12.4716,12.5101,12.5678,12.5678,12.6101,12.669,12.669,12.669,12.669,12.669,12.669,12.669,15.1991,15.1991,15.1991,15.1991,15.1991,15.1991,15.1991,15.1991,15.1991,15.1991,15.1914,15.1606,15.0798,14.9914,14.9106,14.8298,14.7413,14.6913,14.6913,14.6798,14.6105,14.4489,14.2912,14.1989,14.1912,14.1912,14.1489,14.0604,14.0489,13.9681,13.8117,13.8001,13.6603,13.4295,13.4218,13.3295,13.1679,13.1679,13.1679,13.1679,13.1679,13.1679,13.1679,13.1679,13.1679,13.1487,13.0794,13.0487,13.0294,12.941,12.9102,12.8986,12.8102,12.7782,12.7717,12.6794,12.5909,12.4909,12.3216,12.16,12.0292,12.0292,11.96,11.8985,11.8985,11.8985,11.8715,11.7907,11.7715,11.71,11.5599,11.4407,11.2406,10.8482,10.8213,10.7598,10.529,10.7713,11.0098,11.1098,11.2791,11.4214,11.5099,11.5215,11.5484,11.6303,11.6303,11.6715,11.76,11.76,11.8407,12.01,12.0216,12.11,12.2716,12.2781,12.3293,12.3985,12.4101,12.4486,12.5293,12.5293,12.5678,12.6486,12.6486,12.6486,12.6601,12.6601,12.6601,12.669,12.669,12.669,12.669,12.669,12.669,12.669,15.1991,15.1991,15.1991,15.1991,15.1991,15.1991,15.1991,15.1991,15.1991,15.1991,15.1491,15.1106,15.0721,14.949,14.8606,14.8182,14.7413,14.6913,14.6913,14.6913,14.6182,14.4489,14.2797,14.1912,14.1912,14.1912,14.1681,14.1412,14.0296,13.9488,13.8796,13.7796,13.6488,13.4988,13.4487,13.3603,13.25,13.191,13.1679,13.1679,13.1679,13.1679,13.1679,13.1679,13.1679,13.1679,13.141,13.1179,13.1102,13.0294,12.9987,12.991,12.8986,12.8717,12.8486,12.7717,12.6486,12.5293,12.4601,12.3216,12.1793,12.1216,12.0485,11.9792,11.9792,11.9485,11.8985,11.8715,11.86,11.8407,11.7792,11.6484,11.5215,11.4099,11.2022,11.0521,11.0598,11.1291,11.2099,11.2906,11.4484,11.5676,11.5995,11.5995,11.6407,11.7215,11.7292,11.7715,11.86,11.91,11.9908,12.11,12.16,12.2216,12.2908,12.3909,12.4601,12.4909,12.5486,12.5909,12.6178,12.6178,12.6421,12.669,12.669,12.669,12.669,12.669,12.669,12.669,12.669,12.669,12.669,12.669,12.669,12.669,15.1991,15.1991,15.1991,15.1991,15.1991,15.1991,15.1991,15.1991,15.1991,15.1991,15.1491,15.0991,15.0721,14.9413,14.849,14.8182,14.7413,14.6913,14.6913,14.6682,14.5913,14.4489,14.2989,14.2181,14.1912,14.1912,14.1912,14.1912,14.0412,13.9604,13.9296,13.7911,13.6603,13.5488,13.4911,13.4103,13.3,13.2423,13.1987,13.1679,13.1679,13.1679,13.1679,13.1679,13.1679,13.1679,13.1679,13.1679,13.1602,13.1102,13.091,13.0718,12.991,12.941,12.8986,12.8217,12.7101,12.6101,12.5909,12.4793,12.3485,12.2601,12.1908,12.1408,12.1216,12.0716,12.01,11.96,11.9485,11.9408,11.91,11.81,11.7407,11.7715,11.5407,11.3907,11.4984,11.4714,11.4599,11.5484,11.6599,11.7292,11.7292,11.7292,11.76,11.8215,11.8215,11.8715,11.9792,12.0716,12.1485,12.2408,12.3216,12.3716,12.3716,12.4793,12.5486,12.5794,12.6409,12.6794,12.7101,12.7101,12.7101,12.7101,12.7409,12.7294,12.7101,12.7409,12.7486,12.7486,12.7178,12.7101,12.6986,12.6806,12.669,12.669,15.1991,15.1991,15.1991,15.1991,15.1991,15.1991,15.1991,15.1991,15.1991,15.1991,15.1991,15.1683,15.0798,14.999,14.9106,14.8298,14.7413,14.6913,14.6913,14.6182,14.5297,14.4399,14.3605,14.2681,14.1912,14.1912,14.1912,14.1912,14.0989,14.0104,13.9296,13.8488,13.718,13.5488,13.5488,13.4603,13.3,13.3,13.25,13.1679,13.1679,13.1679,13.1679,13.1679,13.1679,13.1679,13.1679,13.1679,13.1679,13.1679,13.1679,13.1602,13.0794,12.991,12.8986,12.8217,12.7897,12.7705,12.6909,12.6101,12.5216,12.4293,12.4101,12.3909,12.3101,12.2908,12.2408,12.0716,12.0292,12.01,11.9292,11.91,11.8792,11.7984,11.7792,11.7792,11.7792,11.7792,11.81,11.8985,11.91,11.91,11.91,11.91,11.91,11.91,11.91,11.9908,12.1485,12.2408,12.3293,12.4101,12.4986,12.5409,12.5409,12.5409,12.5794,12.669,12.669,12.7101,12.7897,12.7897,12.7897,12.7897,12.8794,12.8717,12.8012,12.8794,12.9217,12.9102,12.8205,12.7897,12.7794,12.6986,12.669,12.669,15.1991,15.1991,15.1991,15.1991,15.1991,15.1991,15.1991,15.1991,15.1991,15.1991,15.1491,15.0991,15.0721,14.9413,14.849,14.8182,14.7413,14.6913,14.6913,14.6682,14.5913,14.4489,14.3605,14.2989,14.2681,14.2181,14.1912,14.1912,14.0412,13.9604,13.9296,13.7911,13.6911,13.6411,13.5795,13.4911,13.391,13.3308,13.25,13.1679,13.1679,13.1679,13.1679,13.1679,13.1679,13.1679,13.1679,13.1679,13.1679,13.1679,13.1679,13.1679,13.141,13.0794,13.0102,12.9794,12.9294,12.8794,12.8486,12.8294,12.7602,12.5486,12.4601,12.3985,12.3793,12.3716,12.3408,12.2293,12.21,12.1908,12.0985,12.0408,11.9908,11.96,11.91,11.8715,11.8715,11.8715,11.8792,11.91,11.91,11.91,11.91,11.91,11.9292,11.9908,12.11,12.1985,12.2485,12.3293,12.4101,12.4986,12.5909,12.6601,12.7089,12.6601,12.6409,12.669,12.7294,12.7409,12.7101,12.8294,12.8486,12.7897,12.8217,12.8486,12.8794,12.8397,12.8282,12.8282,12.8012,12.7602,12.6986,12.6806,12.669,12.669,15.1991,15.1991,15.1991,15.1991,15.1991,15.1991,15.1991,15.1991,15.1914,15.1491,15.0991,15.0414,14.9798,14.8798,14.8106,14.7682,14.7182,14.6913,14.6913,14.6913,14.6297,14.499,14.4105,14.3297,14.2604,14.2104,14.1912,14.1912,14.0489,13.9604,13.9296,13.7911,13.7103,13.6796,13.6219,13.5411,13.4295,13.368,13.2795,13.1679,13.1679,13.1679,13.1679,13.1679,13.1679,13.1679,13.1679,13.1679,13.1679,13.1679,13.1679,13.1679,13.1679,13.141,13.091,13.0602,13.0102,12.9717,12.9717,12.9487,12.8909,12.7717,12.6486,12.5524,12.5216,12.4909,12.4409,12.3524,12.3408,12.3216,12.2716,12.2216,12.1716,12.1408,12.1216,12.0985,12.06,12.06,12.0716,12.0985,12.0793,12.06,12.06,12.0908,12.1293,12.1793,12.2793,12.3485,12.3909,12.4293,12.5216,12.6409,12.6909,12.7602,12.8397,12.7909,12.7486,12.7217,12.7717,12.7794,12.7717,12.9102,12.941,12.8909,12.9294,12.9487,12.9717,12.9487,12.941,12.941,12.9102,12.8602,12.8179,12.7794,12.7486,12.7217,15.1991,15.1991,15.1991,15.1991,15.1914,15.1914,15.1991,15.1914,15.1491,15.0798,15.0606,14.9914,14.8375,14.8106,14.7798,14.699,14.6913,14.6913,14.6913,14.6913,14.649,14.572,14.4913,14.3605,14.1989,14.1912,14.1912,14.1912,14.0989,14.0219,13.9296,13.8488,13.7603,13.6796,13.6796,13.5911,13.4411,13.4411,13.341,13.1795,13.1795,13.1795,13.1679,13.1679,13.1679,13.1679,13.1679,13.1679,13.1679,13.1679,13.1679,13.1679,13.1679,13.1679,13.1602,13.0794,13.0602,13.0602,13.0602,12.9987,12.9602,13.041,12.941,12.7909,12.7101,12.6217,12.5409,12.4486,12.4293,12.4216,12.4101,12.4101,12.3909,12.3101,12.3601,12.3793,12.3101,12.3024,12.3293,12.3985,12.3485,12.3024,12.3024,12.3716,12.4101,12.4101,12.4216,12.4601,12.5409,12.5486,12.6294,12.7897,12.8102,12.8486,12.9294,12.9294,12.8909,12.8012,12.8089,12.8486,12.9217,13.0217,13.0602,13.0487,13.1295,13.1179,13.0679,13.1295,13.1602,13.1487,13.0794,13.0487,13.0294,12.9487,12.8717,12.8012,15.1991,15.1991,15.1991,15.1991,15.1414,15.1221,15.1914,15.0914,15.0221,15.0606,14.9606,14.8606,14.8182,14.7605,14.7105,14.6913,14.6913,14.6913,14.6913,14.6913,14.649,14.572,14.4913,14.3912,14.2912,14.2181,14.1912,14.1912,14.0989,14.0219,13.9296,13.8488,13.7603,13.6796,13.6796,13.618,13.5218,13.5218,13.4295,13.2692,13.2692,13.2307,13.1679,13.1679,13.1679,13.1679,13.1679,13.1679,13.1679,13.1679,13.1679,13.1679,13.1679,13.1679,13.1679,13.1487,13.141,13.141,13.141,13.1295,13.1179,13.141,13.0679,12.9717,12.8909,12.7986,12.7101,12.6294,12.5601,12.4909,12.4216,12.4101,12.3985,12.3909,12.3985,12.3985,12.3909,12.3793,12.3909,12.4101,12.3909,12.3793,12.3793,12.3985,12.4101,12.4101,12.4716,12.5216,12.5409,12.6601,12.7512,12.7897,12.9217,12.9987,13.0217,13.0217,12.9794,12.8909,12.9602,12.9717,12.9294,13.0794,13.1102,13.0487,13.0679,13.0987,13.141,13.091,13.0794,13.0718,13.0602,13.0102,12.9487,12.9294,12.9102,12.8794,15.1991,15.1683,15.1491,15.1914,15.0991,15.0414,15.1298,15.0298,14.949,14.949,14.8683,14.799,14.7605,14.7182,14.6913,14.6913,14.6913,14.6913,14.6913,14.6913,14.6413,14.5105,14.4591,14.3797,14.2604,14.2104,14.1912,14.1912,14.1412,14.0604,13.9296,13.8911,13.7988,13.6796,13.6796,13.6296,13.5488,13.5488,13.4795,13.3603,13.3603,13.3103,13.241,13.2795,13.2679,13.2295,13.2295,13.2115,13.1679,13.1679,13.1679,13.1679,13.1679,13.1679,13.1679,13.1679,13.1679,13.1679,13.1679,13.1679,13.1679,13.1679,13.141,13.091,12.9987,12.9102,12.8409,12.7986,12.7486,12.7101,12.6601,12.6217,12.5794,12.5409,12.5293,12.5216,12.4793,12.4716,12.4909,12.5293,12.4986,12.4909,12.5293,12.4986,12.4909,12.5293,12.6101,12.6601,12.6601,12.7794,12.8717,12.9102,12.9987,13.0679,13.1102,13.1102,13.0794,13.041,13.0487,13.0294,12.991,13.1102,13.1487,13.1102,13.1102,13.1295,13.1679,13.1179,13.1102,13.1102,13.1102,13.0794,13.041,13.041,13.0102,12.9717,15.1991,15.1298,15.0914,15.1683,15.0414,14.9606,15.0414,14.9721,14.8798,14.8298,14.8106,14.7682,14.699,14.6913,14.6913,14.6913,14.6913,14.6913,14.6913,14.6913,14.6221,14.472,14.4489,14.372,14.2104,14.1989,14.1912,14.1912,14.1912,14.1104,13.9488,13.9412,13.8488,13.6988,13.6911,13.6411,13.5719,13.5719,13.5295,13.4487,13.4487,13.3987,13.3295,13.3987,13.391,13.318,13.318,13.2692,13.191,13.191,13.1795,13.1679,13.1679,13.1679,13.1679,13.1679,13.1679,13.1679,13.1679,13.1679,13.1679,13.1679,13.1679,13.1487,13.091,12.9987,12.941,12.941,12.9294,12.9217,12.9217,12.8602,12.7909,12.7178,12.7101,12.6794,12.5909,12.5986,12.6294,12.6794,12.6409,12.6294,12.7114,12.6486,12.6294,12.7101,12.7717,12.8089,12.8089,12.8909,12.9794,13.0487,13.0602,13.0987,13.1679,13.1679,13.1679,13.1679,13.0987,13.0679,13.0718,13.141,13.1679,13.1679,13.1679,13.1679,13.1679,13.1679,13.1679,13.1679,13.1679,13.1679,13.1679,13.1679,13.1179,13.041,15.1991,15.1298,15.0721,15.0914,14.949,14.8683,14.949,14.8298,14.749,14.8106,14.749,14.699,14.6913,14.6913,14.6913,14.6913,14.6913,14.6913,14.6913,14.6913,14.649,14.5605,14.4797,14.3912,14.2989,14.2297,14.1912,14.1912,14.1912,14.1412,14.0412,13.9719,13.8796,13.7886,13.7103,13.668,13.6603,13.6603,13.6103,13.5295,13.5295,13.4911,13.4103,13.4295,13.4218,13.4103,13.4103,13.3603,13.2808,13.2808,13.2295,13.1679,13.1679,13.1679,13.1679,13.1679,13.1679,13.1679,13.1679,13.1679,13.1679,13.1679,13.1679,13.1679,13.1602,13.091,13.0294,13.0294,12.9717,12.9217,12.9217,12.9102,12.8986,12.8909,12.8909,12.8602,12.7717,12.8217,12.8486,12.7794,12.8294,12.8717,12.8909,12.8794,12.8717,12.8909,12.8986,12.8986,12.8986,12.991,13.041,13.0487,13.1179,13.1602,13.1679,13.1679,13.1679,13.1679,13.1602,13.1487,13.1487,13.1679,13.1679,13.1679,13.1679,13.1679,13.1679,13.1679,13.1679,13.1679,13.1679,13.1679,13.1679,13.1679,13.1179,13.0487,15.1414,15.0606,14.999,14.999,14.8606,14.7798,14.8606,14.7682,14.699,14.7413,14.7105,14.6913,14.6913,14.6913,14.6913,14.6913,14.6913,14.6913,14.6913,14.6913,14.6297,14.499,14.4605,14.3797,14.2489,14.2104,14.1912,14.1912,14.1912,14.1489,14.0604,14.0219,13.9296,13.8117,13.7694,13.7309,13.6796,13.6796,13.6603,13.618,13.618,13.5719,13.4988,13.5488,13.5411,13.4988,13.4988,13.4411,13.368,13.368,13.3487,13.318,13.318,13.318,13.3103,13.2615,13.241,13.2295,13.1795,13.1679,13.1679,13.1679,13.1679,13.1679,13.1679,13.141,13.1179,13.1179,13.091,13.0602,13.0602,13.0217,12.991,12.991,12.9487,12.9102,12.8717,12.8986,12.9102,12.8717,12.8986,12.9217,12.9217,12.9217,12.9217,12.9217,12.9717,12.991,12.991,13.0718,13.1179,13.1179,13.1487,13.1679,13.1679,13.1679,13.1679,13.1679,13.1679,13.1679,13.1679,13.1679,13.1679,13.1679,13.1679,13.1679,13.1679,13.1679,13.1679,13.1679,13.1679,13.1679,13.1679,13.1679,13.1487,13.1179]}]]